[[{"header":{"parameterUnit":"m.s-1","parameterCategory":1,"la1":30.6,"la2":28.766,"lo1":-90.7593,"lo2":-88.6598,"dx":0.0162,"dy":0.0183,"nx":116,"ny":114,"refTime":"2022-12-12T18:00:00:Z","depth":0,"parameterNumber":2,"parameterNumberName":"U-component_of_WINDS"},"data":[0.0,0.0,0.0,0.0,0.0,0.0,0.0,0.0,0.0,0.0,0.0,0.0,0.0,0.0,0.0,0.0,0.0,0.0,0.0,0.0,0.0,0.0,0.0,0.0,0.0,0.0,0.0,0.0,0.0,0.0,0.0,0.0,0.0,0.0,0.0,0.0,0.0,0.0,0.0,0.0,0.0,0.0,0.0,0.0,0.0,0.0,0.0,0.0,0.0,0.0,0.0,0.0,0.0,0.0,0.0,0.0,0.0,0.0,0.0,0.0,0.0,0.0,0.0,0.0,0.0,0.0,0.0,0.0,0.0,0.0,0.0,0.0,0.0,0.0,0.0,0.0,0.0,0.0,0.0,0.0,0.0,0.0,0.0,0.0,0.0,0.0,0.0,0.0,0.0,0.0,0.0,0.0,0.0,0.0,0.0,0.0,0.0,0.0,0.0,0.0,0.0,0.0,0.0,0.0,0.0,0.0,0.0,0.0,0.0,0.0,0.0,0.0,0.0,0.0,0.0,0.0,0.0,0.0,0.0,0.0,0.0,0.0,0.0,0.0,0.0,0.0,0.0,0.0,0.0,0.0,0.0,0.0,0.0,0.0,0.0,0.0,0.0,0.0,0.0,0.0,0.0,0.0,0.0,0.0,0.0,0.0,0.0,0.0,0.0,0.0,0.0,0.0,0.0,0.0,0.0,0.0,0.0,0.0,0.0,0.0,0.0,0.0,0.0,0.0,0.0,0.0,0.0,0.0,0.0,0.0,0.0,0.0,0.0,0.0,0.0,0.0,0.0,0.0,0.0,0.0,0.0,0.0,0.0,0.0,0.0,0.0,0.0,0.0,0.0,0.0,0.0,0.0,0.0,0.0,0.0,0.0,0.0,0.0,0.0,0.0,0.0,0.0,0.0,0.0,0.0,0.0,0.0,0.0,0.0,0.0,0.0,0.0,0.0,0.0,0.0,0.0,0.0,0.0,0.0,0.0,0.0,0.0,0.0,0.0,0.0,0.0,0.0,0.0,0.0,0.0,0.0,0.0,0.0,0.0,0.0,0.0,0.0,0.0,0.0,0.0,0.0,0.0,0.0,0.0,0.0,0.0,0.0,0.0,0.0,0.0,0.0,0.0,0.0,0.0,0.0,0.0,0.0,0.0,0.0,0.0,0.0,0.0,0.0,0.0,0.0,0.0,0.0,0.0,0.0,0.0,0.0,0.0,0.0,0.0,0.0,0.0,0.0,0.0,0.0,0.0,0.0,0.0,0.0,0.0,0.0,0.0,0.0,0.0,0.0,0.0,0.0,0.0,0.0,0.0,0.0,0.0,0.0,0.0,0.0,0.0,0.0,0.0,0.0,0.0,0.0,0.0,0.0,0.0,0.0,0.0,0.0,0.0,0.0,0.0,0.0,0.0,0.0,0.0,0.0,0.0,0.0,0.0,0.0,0.0,0.0,0.0,0.0,0.0,0.0,0.0,0.0,0.0,0.0,0.0,0.0,0.0,0.0,0.0,0.0,0.0,0.0,0.0,0.0,0.0,0.0,0.0,0.0,0.0,0.0,0.0,0.0,0.0,0.0,0.0,0.0,0.0,0.0,0.0,0.0,0.0,0.0,0.0,0.0,0.0,0.0,0.0,0.0,0.0,0.0,0.0,0.0,0.0,0.0,0.0,0.0,0.0,0.0,0.0,0.0,0.0,0.0,0.0,0.0,0.0,0.0,0.0,0.0,0.0,0.0,0.0,0.0,0.0,0.0,0.0,0.0,0.0,0.0,0.0,0.0,0.0,0.0,0.0,0.0,0.0,0.0,0.0,0.0,0.0,0.0,0.0,0.0,0.0,0.0,0.0,0.0,0.0,0.0,0.0,0.0,0.0,0.0,0.0,0.0,0.0,0.0,0.0,0.0,0.0,0.0,0.0,0.0,0.0,0.0,0.0,0.0,0.0,0.0,0.0,0.0,0.0,0.0,0.0,0.0,0.0,0.0,0.0,0.0,0.0,0.0,0.0,0.0,0.0,0.0,0.0,0.0,0.0,0.0,0.0,0.0,0.0,0.0,0.0,0.0,0.0,0.0,0.0,0.0,0.0,0.0,0.0,0.0,0.0,0.0,0.0,0.0,0.0,0.0,0.0,0.0,0.0,0.0,0.0,0.0,0.0,0.0,0.0,0.0,0.0,0.0,0.0,0.0,0.0,0.0,0.0,0.0,0.0,0.0,0.0,0.0,0.0,0.0,0.0,0.0,0.0,0.0,0.0,0.0,0.0,0.0,0.0,0.0,0.0,0.0,0.0,0.0,0.0,0.0,0.0,0.0,0.0,0.0,0.0,0.0,0.0,0.0,0.0,0.0,0.0,0.0,0.0,0.0,0.0,0.0,0.0,0.0,0.0,0.0,0.0,0.0,0.0,0.0,0.0,0.0,0.0,0.0,0.0,0.0,0.0,0.0,0.0,0.0,0.0,0.0,0.0,0.0,0.0,0.0,0.0,0.0,0.0,0.0,0.0,0.0,0.0,0.0,0.0,0.0,0.0,0.0,0.0,0.0,0.0,0.0,0.0,0.0,0.0,0.0,0.0,0.0,0.0,0.0,0.0,0.0,0.0,0.0,0.0,0.0,0.0,0.0,0.0,0.0,0.0,0.0,0.0,0.0,0.0,0.0,0.0,0.0,0.0,0.0,0.0,0.0,0.0,0.0,0.0,0.0,0.0,0.0,0.0,0.0,0.0,0.0,0.0,0.0,0.0,0.0,0.0,0.0,0.0,0.0,0.0,0.0,0.0,0.0,0.0,0.0,0.0,0.0,0.0,0.0,0.0,0.0,0.0,0.0,0.0,0.0,0.0,0.0,0.0,0.0,0.0,0.0,0.0,0.0,0.0,0.0,0.0,0.0,0.0,0.0,0.0,0.0,0.0,0.0,0.0,0.0,0.0,0.0,0.0,0.0,0.0,0.0,0.0,0.0,0.0,0.0,0.0,0.0,0.0,0.0,0.0,0.0,0.0,0.0,0.0,0.0,0.0,0.0,0.0,0.0,0.0,0.0,0.0,0.0,0.0,0.0,0.0,0.0,0.0,0.0,0.0,0.0,0.0,0.0,0.0,0.0,0.0,0.0,0.0,0.0,0.0,0.0,0.0,0.0,0.0,0.0,0.0,0.0,0.0,0.0,0.0,0.0,0.0,0.0,0.0,0.0,0.0,0.0,0.0,0.0,0.0,0.0,0.0,0.0,0.0,0.0,0.0,0.0,0.0,0.0,0.0,0.0,0.0,0.0,0.0,0.0,0.0,0.0,0.0,0.0,0.0,0.0,0.0,0.0,0.0,0.0,0.0,0.0,0.0,0.0,0.0,0.0,0.0,0.0,0.0,0.0,0.0,0.0,0.0,0.0,0.0,0.0,0.0,0.0,0.0,0.0,0.0,0.0,0.0,0.0,0.0,0.0,0.0,0.0,0.0,0.0,0.0,0.0,0.0,0.0,0.0,0.0,0.0,0.0,0.0,0.0,0.0,0.0,0.0,0.0,0.0,0.0,0.0,0.0,0.0,0.0,0.0,0.0,0.0,0.0,0.0,0.0,0.0,0.0,0.0,0.0,0.0,0.0,0.0,0.0,0.0,0.0,0.0,0.0,0.0,0.0,0.0,0.0,0.0,0.0,0.0,0.0,0.0,0.0,0.0,0.0,0.0,0.0,0.0,0.0,0.0,0.0,0.0,0.0,0.0,0.0,0.0,0.0,0.0,0.0,0.0,0.0,0.0,0.0,0.0,0.0,0.0,0.0,0.0,0.0,0.0,0.0,0.0,0.0,0.0,0.0,0.0,0.0,0.0,0.0,0.0,0.0,0.0,0.0,0.0,0.0,0.0,0.0,0.0,0.0,0.0,0.0,0.0,0.0,0.0,0.0,0.0,0.0,0.0,0.0,0.0,0.0,0.0,0.0,0.0,0.0,0.0,0.0,0.0,0.0,0.0,0.0,0.0,0.0,0.0,0.0,0.0,0.0,0.0,0.0,0.0,0.0,0.0,0.0,0.0,0.0,0.0,0.0,0.0,0.0,0.0,0.0,0.0,0.0,0.0,0.0,0.0,0.0,0.0,0.0,0.0,0.0,0.0,0.0,0.0,0.0,0.0,0.0,0.0,0.0,0.0,0.0,0.0,0.0,0.0,0.0,0.0,0.0,0.0,0.0,0.0,0.0,0.0,0.0,0.0,0.0,0.0,0.0,0.0,0.0,0.0,0.0,0.0,0.0,0.0,0.0,0.0,0.0,0.0,0.0,0.0,0.0,0.0,0.0,0.0,0.0,0.0,0.0,0.0,0.0,0.0,0.0,0.0,0.0,0.0,0.0,0.0,0.0,0.0,0.0,0.0,0.0,0.0,0.0,0.0,0.0,0.0,0.0,0.0,0.0,0.0,0.0,0.0,0.0,0.0,0.0,0.0,0.0,0.0,0.0,0.0,0.0,0.0,0.0,0.0,0.0,0.0,0.0,0.0,0.0,0.0,0.0,0.0,0.0,0.0,0.0,0.0,0.0,0.0,0.0,0.0,0.0,0.0,0.0,0.0,0.0,0.0,0.0,0.0,0.0,0.0,0.0,0.0,0.0,0.0,0.0,0.0,0.0,0.0,0.0,0.0,0.0,0.0,0.0,0.0,0.0,0.0,0.0,0.0,0.0,0.0,0.0,0.0,0.0,0.0,0.0,0.0,0.0,0.0,0.0,0.0,0.0,0.0,0.0,0.0,0.0,0.0,0.0,0.0,0.0,0.0,0.0,0.0,0.0,0.0,0.0,0.0,0.0,0.0,0.0,0.0,0.0,0.0,0.0,0.0,0.0,0.0,0.0,0.0,0.0,0.0,0.0,0.0,0.0,0.0,0.0,0.0,0.0,0.0,0.0,0.0,0.0,0.0,0.0,0.0,0.0,0.0,0.0,0.0,0.0,0.0,0.0,0.0,0.0,0.0,0.0,0.0,0.0,0.0,0.0,0.0,0.0,0.0,0.0,0.0,0.0,0.0,0.0,0.0,0.0,0.0,0.0,0.0,0.0,0.0,0.0,0.0,0.0,0.0,0.0,0.0,0.0,0.0,0.0,0.0,0.0,0.0,0.0,0.0,0.0,0.0,0.0,0.0,0.0,0.0,0.0,0.0,0.0,0.0,0.0,0.0,0.0,0.0,0.0,0.0,0.0,0.0,0.0,0.0,0.0,0.0,0.0,0.0,0.0,0.0,0.0,0.0,0.0,0.0,0.0,0.0,0.0,0.0,0.0,0.0,0.0,0.0,0.0,0.0,0.0,0.0,0.0,0.0,0.0,0.0,0.0,0.0,0.0,0.0,0.0,0.0,0.0,0.0,0.0,0.0,0.0,0.0,0.0,0.0,0.0,0.0,0.0,0.0,0.0,0.0,0.0,0.0,0.0,0.0,0.0,0.0,0.0,0.0,0.0,0.0,0.0,0.0,0.0,0.0,0.0,0.0,0.0,0.0,0.0,0.0,0.0,0.0,0.0,0.0,0.0,0.0,0.0,0.0,0.0,0.0,0.0,0.0,0.0,0.0,0.0,0.0,0.0,0.0,0.0,0.0,0.0,0.0,0.0,0.0,0.0,0.0,0.0,0.0,0.0,0.0,0.0,0.0,0.0,0.0,0.0,0.0,0.0,0.0,0.0,0.0,0.0,0.0,0.0,0.0,0.0,0.0,0.0,0.0,0.0,0.0,0.0,0.0,0.0,0.0,0.0,0.0,0.0,0.0,0.0,0.0,0.0,0.0,0.0,0.0,0.0,0.0,0.0,0.0,0.0,0.0,0.0,0.0,0.0,0.0,0.0,0.0,0.0,0.0,0.0,0.0,0.0,0.0,0.0,0.0,0.0,0.0,0.0,0.0,0.0,0.0,0.0,0.0,0.0,0.0,0.0,0.0,0.0,0.0,0.0,0.0,0.0,0.0,0.0,0.0,0.0,0.0,0.0,0.0,0.0,0.0,0.0,0.0,0.0,0.0,0.0,0.0,0.0,0.0,0.0,0.0,0.0,0.0,0.0,0.0,0.0,0.0,0.0,0.0,0.0,0.0,0.0,0.0,0.0,0.0,0.0,0.0,0.0,0.0,0.0,0.0,0.0,0.0,0.0,0.0,3.6637,0.0,0.0,0.0,0.0,0.0,0.0,0.0,0.0,0.0,0.0,0.0,0.0,0.0,0.0,0.0,0.0,0.0,0.0,0.0,0.0,0.0,0.0,0.0,0.0,2.1945,2.2327,2.2327,2.2327,0.0,0.0,0.0,0.0,0.0,0.0,0.0,0.0,0.0,2.1854,2.3308,2.3308,2.4831,2.774,2.6962,2.5812,2.4391,0.0,0.0,0.0,0.0,0.0,0.0,0.0,0.0,0.0,0.0,0.0,0.0,0.0,0.0,0.0,0.0,0.0,0.0,0.0,0.0,0.0,0.0,0.0,0.0,0.0,0.0,0.0,0.0,0.0,0.0,0.0,0.0,0.0,0.0,0.0,0.0,0.0,0.0,0.0,0.0,0.0,0.0,0.0,0.0,0.0,0.0,0.0,0.0,0.0,0.0,0.0,0.0,0.0,0.0,0.0,0.0,0.0,0.0,0.0,0.0,0.0,0.0,0.0,0.0,0.0,0.0,0.0,0.0,0.0,0.0,0.0,3.7806,0.0,0.0,0.0,0.0,0.0,0.0,0.0,0.0,0.0,0.0,0.0,0.0,0.0,0.0,0.0,0.0,0.0,0.0,0.0,0.0,0.0,2.0184,2.1844,2.2169,2.2361,2.2496,2.2395,2.2361,2.2496,2.2395,0.0,0.0,0.0,0.0,2.2327,2.2564,2.3714,2.5778,2.6691,2.845,3.0886,3.163,3.0649,2.818,2.642,0.0,0.0,0.0,0.0,0.0,0.0,0.0,0.0,0.0,0.0,0.0,0.0,0.0,0.0,0.0,0.0,0.0,0.0,0.0,0.0,0.0,0.0,0.0,0.0,0.0,0.0,0.0,0.0,0.0,0.0,0.0,0.0,0.0,0.0,0.0,0.0,0.0,0.0,0.0,0.0,0.0,0.0,0.0,0.0,0.0,0.0,0.0,0.0,0.0,0.0,0.0,0.0,0.0,0.0,0.0,0.0,0.0,0.0,0.0,0.0,0.0,0.0,0.0,3.9276,3.9445,3.9478,4.0087,4.1339,4.2963,4.1136,4.1221,4.2437,4.0065,0.0,0.0,0.0,0.0,0.0,0.0,0.0,0.0,0.0,0.0,0.0,0.0,0.0,0.0,0.0,0.0,0.0,0.0,0.0,2.0176,2.0766,2.172,2.2564,2.3207,2.2665,2.2564,2.3207,2.2665,0.0,0.0,0.0,0.0,2.2327,2.3545,2.4966,2.6556,3.1089,3.3525,3.3931,3.4675,3.481,3.4336,3.1562,3.058,3.0838,0.0,0.0,0.0,0.0,0.0,0.0,0.0,0.0,0.0,0.0,0.0,0.0,0.0,0.0,0.0,0.0,0.0,0.0,0.0,0.0,0.0,0.0,0.0,0.0,0.0,0.0,0.0,0.0,0.0,0.0,0.0,0.0,0.0,0.0,0.0,0.0,0.0,0.0,0.0,0.0,0.0,3.4506,3.5385,0.0,0.0,0.0,0.0,0.0,0.0,0.0,0.0,0.0,0.0,0.0,0.0,0.0,3.87,3.9005,4.1441,4.2692,4.2726,4.4688,4.5635,4.5635,4.5737,4.5906,4.6177,4.5906,0.0,4.4245,4.3864,0.0,0.0,0.0,0.0,0.0,0.0,0.0,0.0,0.0,0.0,0.0,0.0,0.0,0.0,0.0,0.0,0.0,0.0,0.0,0.0,0.0,2.359,2.4628,2.5778,2.5981,2.5642,2.4695,2.4323,0.0,0.0,0.0,2.2936,2.2936,2.5169,2.7909,3.1089,3.5081,3.7009,3.7043,3.7787,3.8125,3.8058,3.6772,3.495,3.2672,3.1036,0.0,0.0,0.0,0.0,0.0,0.0,0.0,0.0,0.0,0.0,0.0,0.0,0.0,0.0,0.0,0.0,0.0,0.0,0.0,0.0,0.0,0.0,0.0,0.0,0.0,0.0,0.0,0.0,0.0,0.0,0.0,0.0,0.0,0.0,0.0,0.0,0.0,0.0,0.0,3.4506,3.5554,3.6772,3.6231,3.5622,0.0,0.0,0.0,0.0,0.0,0.0,0.0,0.0,0.0,4.0967,4.1745,4.2523,4.3369,4.4654,4.5331,4.5331,4.6312,4.6786,4.6786,4.6786,4.7022,4.7462,4.7868,4.7902,4.7496,4.5432,4.4048,4.3031,0.0,0.0,0.0,0.0,4.1271,4.1339,0.0,0.0,0.0,0.0,0.0,0.0,0.0,0.0,0.0,0.0,0.0,0.0,2.4526,2.5609,2.6759,2.8245,2.8755,2.8349,2.686,2.6048,2.4864,2.3241,2.3308,2.3477,2.368,2.7334,3.1258,3.5351,3.799,3.9276,3.9276,3.9817,4.0087,4.0087,4.0087,3.8323,3.5275,3.4116,3.2667,3.0898,0.0,0.0,0.0,0.0,0.0,0.0,0.0,0.0,0.0,0.0,0.0,0.0,0.0,0.0,0.0,0.0,0.0,0.0,0.0,0.0,0.0,0.0,0.0,0.0,0.0,0.0,0.0,0.0,0.0,0.0,0.0,0.0,0.0,0.0,0.0,0.0,0.0,3.64,3.711,3.8058,3.8024,3.755,0.0,0.0,0.0,0.0,0.0,0.0,4.1204,4.1948,4.2963,4.4248,4.4857,4.5669,4.6786,4.7158,4.7361,4.7361,4.7733,4.7936,4.7936,4.7936,4.824,4.8781,4.9323,4.9864,5.0168,4.7428,4.6351,4.6281,4.464,4.3775,4.3538,4.4485,4.4857,4.5229,0.0,0.0,0.0,0.0,0.0,0.0,0.0,0.0,0.0,0.0,0.0,2.3819,2.5372,2.6826,2.8279,2.9871,2.9364,2.9228,2.9837,2.7199,2.5575,2.5439,2.412,2.3714,2.4455,3.0142,3.4641,3.7753,3.9276,4.002,4.002,4.0054,4.0087,4.0087,4.0087,4.0231,4.0389,3.8218,3.7166,3.6432,3.16,0.0,0.0,0.0,0.0,0.0,0.0,0.0,0.0,0.0,0.0,0.0,0.0,0.0,0.0,0.0,0.0,0.0,0.0,0.0,0.0,0.0,0.0,0.0,0.0,0.0,0.0,0.0,0.0,0.0,0.0,0.0,0.0,0.0,0.0,0.0,0.0,0.0,0.0,3.9005,4.0155,0.0,0.0,0.0,0.0,4.1001,4.1745,4.2828,4.4282,4.506,4.5838,4.6583,4.665,4.6718,4.6786,4.8173,4.8883,4.8917,5.0304,5.098,5.098,5.098,5.1014,5.1048,5.1082,5.1116,5.115,5.0947,5.0067,4.8809,4.868,4.78,4.6752,4.8206,4.8714,4.8951,0.0,0.0,0.0,2.0771,1.9925,1.9268,1.9412,1.9951,2.0542,2.0942,2.3216,2.5372,2.686,2.9228,3.1292,3.278,3.3119,3.2747,3.1596,2.9161,2.801,2.8484,2.7063,2.818,3.2307,3.4472,3.6806,3.9309,3.9817,4.0087,4.0087,4.0087,4.0087,4.0087,4.0087,4.0204,4.03,3.9563,3.8368,3.6801,3.4901,3.2291,0.0,0.0,0.0,0.0,0.0,0.0,0.0,0.0,0.0,0.0,0.0,0.0,0.0,0.0,0.0,0.0,0.0,0.0,0.0,0.0,0.0,0.0,0.0,0.0,0.0,0.0,0.0,0.0,0.0,0.0,0.0,0.0,0.0,0.0,0.0,0.0,0.0,4.046,4.0899,0.0,4.046,4.1508,4.2557,4.3335,4.4519,4.5432,4.5974,4.6718,4.7462,4.8173,4.868,4.9154,4.9627,5.0168,5.0439,5.0439,5.098,5.1217,5.1217,5.1217,5.1217,5.1251,5.1725,5.2217,5.2722,5.3169,5.2204,5.0439,5.0439,5.0101,4.9695,5.0236,5.0744,5.1217,0.0,0.0,0.0,2.1204,2.0534,2.0103,2.0365,2.0839,2.1576,2.253,2.4831,2.7097,2.9093,3.1529,3.3525,3.4776,3.5588,3.5284,3.3525,3.1326,3.0209,3.0446,2.9499,3.1427,3.6671,3.7043,3.8125,4.0087,4.0087,4.0087,4.0087,4.0087,4.0087,4.0087,4.0087,4.0087,4.0087,4.0087,3.9501,3.8422,3.7737,3.5744,3.2962,0.0,0.0,0.0,0.0,0.0,0.0,0.0,0.0,0.0,0.0,0.0,0.0,0.0,0.0,0.0,0.0,0.0,0.0,0.0,0.0,0.0,0.0,0.0,0.0,0.0,0.0,0.0,0.0,0.0,0.0,0.0,0.0,0.0,0.0,4.0493,4.1474,4.1238,4.2117,4.2523,4.2016,4.3538,4.4891,4.5635,4.6853,4.7631,4.7902,4.8612,4.9255,4.9729,5.0236,5.071,5.1217,5.1454,5.1589,5.1589,5.186,5.1995,5.1995,5.1995,5.1995,5.1995,5.2503,5.3,5.3513,5.3994,5.3489,5.2345,5.2626,5.275,5.2688,5.2472,5.2652,5.3031,0.0,0.0,2.1237,2.1237,2.0602,2.0306,2.1136,2.1271,2.2293,2.5236,2.6928,2.9025,3.1968,3.3626,3.481,3.5554,3.6332,3.6468,3.5656,3.3525,3.1968,3.1292,3.1393,3.3152,3.6806,3.7584,3.8667,4.0087,4.0087,4.0087,4.0087,4.0087,4.0087,4.0087,4.0087,4.0087,4.0087,4.0138,4.0767,4.164,4.0022,3.9331,3.8757,0.0,0.0,0.0,0.0,0.0,0.0,0.0,0.0,0.0,0.0,0.0,0.0,0.0,0.0,0.0,0.0,0.0,0.0,0.0,0.0,0.0,0.0,0.0,0.0,0.0,0.0,0.0,0.0,0.0,0.0,0.0,0.0,0.0,4.1238,4.1914,4.2151,4.1441,4.3944,4.5162,4.3707,4.5568,4.7158,4.7936,4.8646,4.939,5.0101,5.0811,5.1217,5.1251,5.1251,5.1251,5.1285,5.1995,5.2334,5.2367,5.3145,5.3518,5.3518,5.3518,5.3518,5.3518,5.3518,5.3484,5.3551,5.3585,5.398,5.473,5.5379,5.5667,5.561,5.4878,5.4606,5.4482,0.0,2.2158,2.1989,2.1989,2.182,2.1752,2.1955,2.2462,2.3477,2.5372,2.7875,3.0209,3.207,3.41,3.5385,3.5588,3.6332,3.6468,3.5656,3.3525,3.2442,3.278,3.5893,3.8125,3.914,3.9377,3.9681,4.0087,4.0087,4.0087,4.0087,4.0087,4.0087,4.0087,4.0087,4.0087,4.0154,4.1001,4.1508,4.174,4.1309,4.0187,3.8737,0.0,0.0,0.0,0.0,0.0,0.0,0.0,0.0,0.0,0.0,0.0,0.0,0.0,0.0,0.0,0.0,0.0,0.0,0.0,0.0,0.0,0.0,0.0,0.0,0.0,0.0,0.0,0.0,0.0,0.0,0.0,4.1238,4.2625,4.2049,4.3606,4.4688,4.4485,4.5669,4.6549,4.6684,4.7733,4.8714,4.9424,5.0202,5.071,5.0913,5.1116,5.1454,5.1995,5.1995,5.23,5.2875,5.3078,5.3179,5.3179,5.3382,5.3518,5.3518,5.3518,5.3518,5.3518,5.3518,5.3783,5.4362,5.4849,5.5563,5.6188,5.5269,5.5203,5.5667,5.5495,5.5024,5.4482,0.0,2.2327,2.2327,2.2327,2.2327,2.2327,2.2327,2.2936,2.4255,2.6691,2.8822,3.1021,3.3423,3.4844,3.5757,3.6062,3.6806,3.6806,3.569,3.41,3.3829,3.5216,3.7787,3.9445,4.0054,4.0087,4.0087,4.0087,4.0087,4.0087,4.0087,4.0392,4.0392,4.0121,4.073,4.0663,4.0138,4.116,4.1372,4.1105,4.1595,4.1369,4.0602,3.9458,3.8651,3.7848,3.6006,3.5544,3.5684,3.4703,0.0,0.0,0.0,0.0,0.0,0.0,0.0,0.0,0.0,0.0,0.0,0.0,0.0,0.0,0.0,0.0,0.0,0.0,0.0,0.0,0.0,0.0,0.0,0.0,4.3369,4.4688,4.4248,4.5331,4.6143,4.6143,4.6819,4.7564,4.8308,4.9052,4.9763,5.0507,5.1251,5.1657,5.1657,5.1995,5.2367,5.2807,5.2807,5.3044,5.3518,5.3518,5.3518,5.3518,5.3822,5.3957,5.3957,5.4296,5.4431,5.4431,5.4431,5.4635,5.5066,5.5512,5.6171,0.0,0.0,0.0,0.0,0.0,5.6772,5.5977,2.2327,2.2327,2.2327,2.2327,2.2327,2.2327,2.2327,2.3004,2.4831,2.8518,2.9702,3.1596,3.5216,3.5622,3.5926,3.6705,3.7483,3.7313,3.596,3.5318,3.5859,3.7821,3.8058,3.8768,4.0054,4.0155,4.0189,4.0189,4.029,4.0324,4.0358,4.1001,4.0967,4.0392,4.1711,4.1542,4.0409,4.1138,4.1036,4.0542,4.153,4.249,4.3069,4.0948,4.0489,4.0689,3.8328,3.7524,3.7364,3.582,0.0,0.0,0.0,0.0,0.0,0.0,0.0,0.0,0.0,0.0,0.0,0.0,0.0,0.0,0.0,0.0,0.0,0.0,0.0,0.0,0.0,0.0,0.0,0.0,4.55,4.6955,4.7022,4.7124,4.7124,4.7056,4.7699,4.8443,4.9187,4.9932,5.0608,5.1285,5.2029,5.2435,5.2435,5.3112,0.0,0.0,0.0,5.3518,5.3518,5.3585,5.3619,5.3619,5.4363,5.4702,5.4735,5.5412,5.5716,5.5716,5.5716,5.5716,5.5716,5.5854,5.6473,5.7295,5.7806,5.8445,5.906,5.906,5.8616,5.7917,2.2327,2.2327,2.2327,2.2327,2.2327,2.2327,2.2327,2.3444,2.5406,2.8621,3.0142,3.2171,3.5284,3.5622,3.5926,3.6705,3.7483,3.7787,3.7483,3.7889,3.8058,3.7922,3.9039,3.9783,4.0054,4.0663,4.1001,4.1001,4.1576,4.1847,4.188,4.2016,4.2016,4.188,4.2151,4.2117,4.1933,4.2551,4.2718,4.263,4.284,4.2633,4.2144,4.2123,4.2479,4.285,4.1887,4.1818,4.2048,4.0825,3.9617,3.8438,3.7365,3.6197,0.0,0.0,0.0,0.0,0.0,0.0,0.0,0.0,0.0,0.0,0.0,0.0,0.0,0.0,0.0,0.0,0.0,0.0,0.0,4.5128,4.665,4.7902,4.8477,4.9086,4.9221,4.8646,4.9221,4.9965,5.071,5.1454,5.1928,5.2097,5.2841,5.3281,5.3281,5.3416,5.3518,5.3518,5.3518,5.3518,5.3518,5.4093,5.4397,5.4397,0.0,0.0,5.5513,5.5649,5.5716,5.5716,5.5716,5.5716,5.582,5.7054,5.8403,5.9585,5.8471,5.8096,5.8155,5.7517,5.7206,5.7051,2.2327,2.2327,2.2327,2.2327,2.2327,2.2327,2.2327,2.3545,2.5471,2.8044,2.9702,3.163,3.4235,3.4167,3.4269,3.5013,3.5757,3.6671,3.7855,3.8261,3.8599,3.8971,3.9681,4.0087,4.0087,4.0832,4.1204,4.1204,4.1948,4.2286,4.2286,4.2692,4.2658,4.232,4.3098,4.2997,4.2373,4.303,4.3065,4.2826,4.3402,4.3335,4.29,4.2622,4.2847,4.328,4.2713,4.2431,4.2317,4.2114,4.1059,3.979,3.9608,3.8768,3.7719,0.0,0.0,0.0,0.0,0.0,0.0,0.0,0.0,0.0,0.0,0.0,0.0,0.0,0.0,4.2658,4.3775,0.0,4.6041,4.7158,4.8274,4.9255,4.9999,5.0439,5.0507,5.0135,5.0439,5.0947,5.1691,5.2097,5.2469,5.2875,5.3281,5.3518,5.3518,5.3518,5.3687,5.4025,5.4059,5.4228,5.46,5.4972,5.5141,5.5175,5.5919,5.6258,5.6258,5.663,5.6799,5.6799,5.6799,5.7002,5.7408,5.859,5.9563,6.0151,5.939,5.9587,6.0367,5.9916,6.0285,6.0879,2.2327,2.2327,2.2327,2.2327,2.2327,2.2327,2.2327,2.3444,2.5067,2.73,2.8789,3.0514,3.2747,3.2307,3.2205,3.3119,3.4269,3.5791,3.7787,3.8159,3.887,4.002,4.0087,4.0087,4.0087,4.0832,4.1271,4.1407,4.2151,4.2591,4.276,4.3369,4.3335,4.2794,4.4045,4.3876,4.2794,4.3403,4.3301,4.2833,4.3805,4.4202,4.406,4.3116,4.3168,4.364,4.2893,4.2313,4.2003,4.2364,4.1682,4.0798,4.1256,4.1001,4.0358,3.9648,3.9749,0.0,0.0,0.0,0.0,0.0,0.0,0.0,0.0,4.073,4.1373,4.2861,4.3775,4.4722,4.6109,4.6955,4.7868,4.9221,4.9932,5.0574,5.1319,5.142,5.1488,5.1657,5.1522,5.1725,5.2469,5.2536,5.2807,5.345,5.3518,5.3551,5.3721,5.3721,5.4059,5.4769,5.4803,5.5108,5.5716,5.5852,5.5919,5.5919,5.6664,5.7103,5.7239,5.7848,5.8186,5.8321,5.8321,5.8733,5.9531,6.0143,6.0421,6.0608,6.0754,6.1831,6.3171,6.2427,6.3059,6.4022,2.2327,2.2327,2.2327,2.2327,2.2327,2.2327,2.2327,2.3004,2.4323,2.6522,2.7537,2.8924,3.119,3.0784,3.092,3.2273,3.4945,3.6907,3.7855,3.9106,3.9918,4.0054,4.0087,4.0087,4.0087,4.0832,4.1508,4.2185,4.2929,4.3639,4.4316,4.4418,4.4384,4.4316,4.4485,4.4485,4.4316,4.4418,4.4384,4.4372,4.4449,4.4558,4.4504,4.4372,4.4879,4.5435,4.4245,4.4165,4.44,4.3415,4.299,4.2752,4.2328,4.2117,4.1914,4.117,4.0527,3.9884,3.9073,3.9005,3.958,4.1441,4.1441,4.1847,0.0,4.4959,4.4485,4.5974,4.6887,4.7665,4.8477,4.9221,4.9999,5.0845,5.1048,5.1352,5.2063,5.2198,5.2435,5.3179,5.2604,5.2503,5.3281,5.3382,5.3416,5.3484,5.3518,5.3788,5.4431,5.4465,5.4803,5.5581,5.5581,5.5649,5.5716,5.6359,5.6697,5.6697,5.7408,5.8118,5.8761,5.8863,5.9235,5.9844,5.9844,6.0291,6.1153,6.1222,6.1674,6.244,6.3199,6.4076,6.4507,6.1502,6.0467,6.0754,2.2327,2.2327,2.2327,2.2327,2.2327,2.2327,2.2327,2.2936,2.3883,2.5236,2.6048,2.7063,2.8416,2.8315,2.8721,3.0281,3.3085,3.5318,3.6502,3.8768,4.0087,4.0087,4.0087,4.0087,4.0087,4.0832,4.1576,4.2286,4.3064,4.3809,4.4587,4.4587,4.4587,4.4587,4.4587,4.4587,4.4587,4.4587,4.4587,4.4643,4.5015,4.5142,4.5142,4.5142,4.5579,4.5996,4.4774,4.3919,0.0,4.3906,4.3116,4.2142,4.2765,4.2658,4.2219,4.1914,4.1914,4.2151,4.2726,4.2252,4.2016,4.3809,4.4045,4.4248,4.5805,4.6007,4.6177,4.7225,4.8376,4.9255,4.9593,5.0236,5.098,5.1725,5.186,5.2131,5.2909,5.301,5.3112,5.345,5.3213,5.3145,5.3484,5.3518,5.3687,5.4093,5.4126,5.4465,5.5209,5.5243,5.5581,5.6325,5.6359,5.6765,5.7611,5.7949,5.8321,5.8727,5.9032,5.9336,5.9641,5.9641,5.981,6.0148,6.0588,6.1326,6.2125,6.2576,6.3206,6.4043,6.4429,6.4415,6.4168,6.3291,6.3618,6.4365,2.2327,2.2327,2.2327,2.2327,2.2327,2.2327,2.2327,2.2767,2.3342,2.4086,2.4661,2.527,2.6015,2.6454,2.7232,2.8552,3.1393,3.3829,3.552,3.8227,3.9884,4.0054,4.0087,4.0087,4.0087,4.0595,4.1339,4.2286,4.2828,4.3606,4.4587,4.4587,4.4587,4.4587,4.4587,4.4587,4.4587,4.4587,4.4587,4.4643,4.5089,4.5267,4.5267,4.5267,4.5355,4.5451,4.4565,4.3702,4.2959,4.3749,4.2861,4.1711,4.276,4.2726,4.232,4.2523,4.2828,4.3335,4.4451,4.4113,4.3842,4.5568,4.6177,4.638,4.6583,4.7192,4.7868,4.8409,4.9526,5.0473,5.0676,5.115,5.1758,5.2503,5.2638,5.2841,5.3416,5.3518,5.3518,5.3518,5.3687,5.3788,5.3788,5.3788,5.4025,5.4566,5.4769,5.5243,5.5987,5.6021,5.6427,5.7374,5.7408,5.8017,5.9302,5.9302,5.9573,6.0114,6.0114,6.0216,6.0452,6.0655,6.0723,6.0757,6.1366,6.2097,6.2906,6.3417,6.4135,6.4918,6.5435,6.523,6.4848,6.6053,6.6487,6.6289,0.0,2.2327,2.2327,2.2327,2.2327,2.2327,2.2327,2.2327,2.2598,2.3342,2.3444,2.3748,2.4489,2.5812,2.6996,2.7739,3.0581,3.3254,3.5487,3.7753,3.9343,4.0054,4.0087,4.0087,4.0087,4.0087,4.0832,4.2286,4.232,4.3098,4.4587,4.4587,4.4587,4.4587,4.4587,4.4587,4.4587,4.4587,4.4587,4.4587,4.4643,4.4643,4.4643,4.4643,4.4169,4.3491,4.3436,4.3852,4.4111,4.2822,4.232,4.2252,4.232,4.232,4.2422,4.3166,4.2895,4.232,4.2388,4.2895,4.3944,4.621,4.7293,4.8037,4.8748,4.9458,4.9999,5.0033,5.0642,5.1386,5.2097,5.2266,5.2536,5.3348,5.345,5.3484,5.3518,5.3518,5.3518,5.3518,5.4126,5.4566,5.4566,5.4566,5.4566,5.46,5.5277,5.6021,5.6731,5.6765,5.7442,5.8896,5.893,5.9302,6.0047,6.008,6.008,6.0114,6.0114,6.052,6.1298,6.2009,6.2313,6.2313,6.2347,6.2787,6.3429,6.3463,6.395,6.4801,6.6565,6.7229,6.7433,6.9282,6.7273,6.3747,0.0,2.3038,2.3173,2.3646,2.3748,2.3579,2.3105,2.2632,2.2564,2.3308,2.3816,0.0,0.0,0.0,0.0,0.0,3.0108,3.2307,3.4032,3.6738,3.8599,3.9309,3.9817,4.0087,4.0087,4.0087,4.0561,4.1576,4.2049,4.2828,4.3809,4.435,4.4587,4.4587,4.4587,4.4587,4.4587,4.4587,4.4587,4.4587,4.4587,4.4587,4.4621,4.5128,4.4519,4.3369,0.0,4.2513,4.2261,4.2291,4.1982,4.1644,4.2151,4.1948,4.1711,4.2455,4.2828,4.3369,4.4857,4.5466,4.6177,4.8409,4.9187,4.956,5.0304,5.0676,5.0845,5.0845,5.142,5.2029,5.2266,5.2739,5.3179,5.345,5.3518,5.3518,5.3518,5.3518,5.3687,5.416,5.4431,5.4769,5.5277,5.5344,5.5547,5.6021,5.6292,5.6765,5.7476,5.7983,5.849,5.8998,5.9471,6.0114,6.0892,6.0892,6.1129,6.1637,6.1637,6.2009,6.2787,6.3024,6.3723,6.4793,6.4793,6.5642,6.6982,6.6982,6.7461,6.8299,6.8898,6.8775,6.8462,6.966,6.8769,6.6913,0.0,2.3782,2.3917,2.4421,2.4523,0.0,0.0,0.0,0.0,0.0,0.0,0.0,0.0,0.0,0.0,0.0,0.0,3.1157,3.2882,3.5318,3.7246,3.8531,3.9039,3.9411,3.9681,3.9445,3.9918,4.1204,4.1677,4.2557,4.3842,4.435,4.4587,4.4587,4.4587,4.4587,4.4587,4.4587,4.4891,4.5297,4.4485,4.4485,4.4959,4.4621,4.3707,0.0,4.2083,4.1441,4.0832,4.1035,4.0798,4.0527,4.1271,4.1542,4.1677,4.2151,4.32,4.4654,4.665,4.7394,4.8037,4.9999,5.0473,5.0608,5.1116,5.142,5.1589,5.1589,5.1961,5.23,5.23,5.2739,5.3078,5.3078,5.3315,5.3585,5.3856,5.389,5.416,5.4905,5.5243,5.5581,5.6055,5.6325,5.6562,5.6799,5.7306,5.778,5.8254,5.8998,5.9539,5.981,6.0283,6.0892,6.167,6.167,6.2076,6.2787,6.3383,6.3791,6.3903,6.4234,6.483,6.5474,6.5474,6.6334,6.7691,6.7691,6.8211,6.8994,6.9705,6.958,6.9261,7.0478,7.0532,6.9937,0.0,0.0,2.4591,0.0,0.0,0.0,0.0,0.0,0.0,0.0,0.0,0.0,0.0,0.0,0.0,0.0,0.0,0.0,3.2009,3.3525,3.5385,3.7652,3.7821,3.8193,3.8937,3.8261,3.8971,4.1102,4.1136,4.2252,4.4418,4.4451,4.4451,4.4451,4.4451,4.4451,4.4451,4.4451,4.5263,4.638,4.4215,4.4248,4.5297,4.3166,4.188,4.1204,4.1204,4.0696,3.9918,3.9276,3.9106,3.9309,4.0104,4.1323,4.2422,4.2489,4.4079,4.6143,4.7631,4.8578,4.9458,5.0913,5.1285,5.1285,5.1319,5.186,5.2367,5.23,5.23,5.23,5.2266,5.2266,5.23,5.2367,5.3044,5.3822,5.4532,5.4668,5.4938,5.5683,5.6393,5.6833,5.69,5.7543,5.7679,5.7036,5.8254,5.9032,5.9066,5.9776,6.052,6.1298,6.1332,6.167,6.2381,6.2415,6.2821,6.3645,6.5241,6.5585,6.4729,6.5662,6.5619,6.4843,6.4843,6.5298,6.6024,6.6024,6.6432,6.7243,6.913,6.9849,7.0058,7.1854,7.2496,7.227,0.0,0.0,0.0,0.0,0.0,0.0,0.0,0.0,0.0,0.0,0.0,0.0,0.0,0.0,0.0,0.0,0.0,0.0,2.9773,3.1732,3.3592,3.5284,3.6468,3.7415,3.8159,3.799,3.8464,3.9546,4.0087,4.0933,4.2083,4.2625,4.2861,4.2861,4.2861,4.2861,4.2861,4.2861,4.3098,4.3403,4.2794,4.2828,4.3166,4.3132,4.232,4.1204,4.1204,4.0358,3.9309,3.9681,4.0527,4.1782,4.3615,4.4092,4.4215,4.5331,4.6447,4.7665,4.9154,5.0067,5.0879,5.1792,5.2029,5.2198,5.2773,5.3078,5.301,5.2435,5.23,5.2131,5.1589,5.1928,5.2503,5.3112,5.3822,5.4566,5.5344,5.5446,5.5716,5.6427,5.6697,5.7239,5.8355,5.8626,5.8863,5.9235,5.9099,5.9268,5.981,6.0588,6.1095,6.1298,6.1839,6.2212,6.2381,6.2956,6.3927,6.5393,6.5792,6.6173,6.6454,6.6727,6.7417,6.8386,6.8386,6.9282,7.077,7.077,7.0879,7.1095,7.1573,7.1794,7.1854,7.2285,7.2496,7.2475,0.0,0.0,0.0,0.0,0.0,0.0,0.0,0.0,0.0,0.0,0.0,0.0,0.0,0.0,0.0,0.0,0.0,0.0,0.0,3.0446,3.2138,3.3931,3.4844,3.5656,3.64,3.6096,3.6772,3.8531,3.8599,3.9512,4.1204,4.1271,4.1305,4.1305,4.1339,4.1339,4.1339,4.1677,4.2185,0.0,0.0,4.2219,4.2726,4.2151,4.1441,4.0696,4.0696,4.0814,4.116,4.2486,4.31,4.36,4.5096,4.5589,4.5771,4.6955,4.8274,4.9627,5.0744,5.1623,5.2334,5.2739,5.2841,5.2773,5.2536,5.2739,5.2672,5.1555,5.1319,5.1217,5.0777,5.1589,5.2469,5.2909,5.416,5.5344,5.6089,5.619,5.6461,5.7205,5.7577,5.8084,5.893,5.9302,5.981,6.0554,6.025,6.0182,6.0622,6.1366,6.1772,6.1772,6.2482,6.3024,6.3362,6.4517,6.5378,6.5877,6.7069,6.7377,6.7044,6.7829,6.8562,6.913,6.9883,7.0654,7.1295,7.2046,7.2155,7.1865,7.2642,7.2911,7.2972,7.3406,7.356,7.3634,0.0,0.0,0.0,0.0,0.0,0.0,0.0,0.0,0.0,2.7266,2.6928,2.6691,2.6691,2.6691,0.0,0.0,0.0,0.0,0.0,0.0,3.1021,3.3017,3.322,3.3592,3.4336,3.3728,3.4742,3.7449,3.6907,3.799,4.0595,4.0054,3.9783,3.9783,3.9817,3.9817,3.9851,4.0493,4.1576,4.2726,4.1441,4.1745,4.276,0.0,4.0087,4.0087,4.0087,4.1458,4.3597,4.5823,4.5889,4.5192,4.6048,4.6742,4.7361,4.8139,4.9796,5.1522,5.2266,5.2976,5.3518,5.3518,5.3518,5.3145,5.1691,5.1792,5.1758,5.0371,4.9999,4.9932,4.9932,5.115,5.2232,5.2435,5.4296,5.6021,5.6833,5.7036,5.734,5.7949,5.8693,5.9201,5.9302,5.9877,6.0588,6.14,6.1467,6.1467,6.1467,6.2144,6.2584,6.2685,6.3453,6.4211,6.4958,6.6342,6.6798,6.6289,6.8593,6.8833,6.7243,6.9056,6.9457,6.8822,7.0378,7.0806,7.0519,7.1908,7.205,7.1551,7.3122,7.3675,7.3805,7.4604,7.4918,7.4918,0.0,0.0,0.0,0.0,0.0,0.0,0.0,0.0,0.0,0.0,2.8247,2.6691,0.0,0.0,0.0,0.0,0.0,0.0,0.0,0.0,0.0,3.1529,3.2171,3.2848,3.3558,3.3491,3.3964,3.5081,3.5588,3.64,3.755,3.8058,3.8294,3.8294,3.8294,3.8294,3.8294,3.843,3.8971,3.9749,3.9478,3.9884,4.0629,4.0223,0.0,0.0,4.0087,4.1138,4.2877,4.5681,4.6906,4.7607,4.9521,4.986,4.9661,5.0405,5.1352,5.23,5.3078,5.3382,5.3518,5.3518,5.3518,5.3281,5.2334,5.1758,5.115,5.027,4.9627,4.9187,4.9187,5.0405,5.1826,5.3078,5.4668,5.619,5.7509,5.822,5.8693,5.8795,5.9471,6.0182,6.0858,6.1028,6.14,6.2144,6.2212,6.2212,6.2212,6.2922,6.3599,6.4208,6.5079,6.5918,6.6677,6.6934,6.7771,6.8992,6.9494,6.9565,6.9276,7.0364,7.1159,7.1637,7.1914,0.0,7.4019,7.4274,7.4311,7.4201,7.4568,7.4702,7.4702,7.4859,7.4918,7.5028,0.0,0.0,0.0,0.0,0.0,0.0,0.0,2.9025,2.9803,3.2036,3.1089,2.9905,2.9127,2.8349,2.8044,0.0,0.0,0.0,0.0,0.0,0.0,3.1157,3.1529,3.1867,3.2239,3.2611,3.3355,3.4506,0.0,3.5622,3.6772,3.6738,3.6705,3.6705,3.6705,3.6705,3.6738,3.7144,3.7753,3.8464,3.8836,3.9411,4.0087,4.0087,0.0,0.0,4.0087,4.1546,4.3597,4.462,4.6444,4.8707,5.0524,5.1228,5.1302,5.121,5.2286,5.3592,5.3939,5.3783,5.3618,5.4011,5.3783,5.2976,5.1048,5.0608,5.0202,4.868,4.8409,4.8545,4.8951,5.0202,5.1589,5.2706,5.4465,5.6224,5.7679,5.8524,5.9167,5.9539,6.025,6.0892,6.1264,6.1637,6.2178,6.2922,6.2956,6.2956,6.2956,6.4152,6.5147,6.5901,6.6825,6.7469,6.7669,6.8678,6.907,6.8947,6.9953,7.0196,6.9708,7.1098,7.1925,7.2387,7.3706,7.4482,7.4955,7.5799,7.5909,7.5579,7.6019,7.6166,7.6166,7.6166,7.6166,7.6203,0.0,0.0,0.0,0.0,0.0,0.0,0.0,3.048,3.1495,3.4032,3.41,3.3423,3.2273,3.0514,2.9397,0.0,0.0,0.0,0.0,0.0,0.0,0.0,0.0,0.0,3.1427,0.0,0.0,3.4269,3.4404,0.0,0.0,0.0,0.0,0.0,3.5622,3.5622,3.5656,3.6265,3.7077,0.0,0.0,3.9276,4.0087,0.0,0.0,0.0,0.0,4.1579,4.3573,4.3617,4.5459,4.8038,4.982,5.1304,5.22,5.1439,5.2843,5.4606,5.4606,5.4171,5.3881,5.4419,5.4136,5.2969,4.9927,4.956,4.9323,4.7428,4.7361,4.7936,4.8849,5.0101,5.1251,5.2164,5.3957,5.5852,5.7645,5.8524,5.9336,6.025,6.1061,6.1535,6.1535,6.2212,6.2888,6.3463,6.4007,6.4257,6.4257,6.5752,6.6825,6.7288,6.8326,6.8715,6.8496,7.0022,7.016,6.8838,7.0543,7.0985,7.0343,7.2047,7.2971,7.3225,7.5263,7.5836,7.5542,7.679,7.6937,7.6423,7.7084,7.7304,7.7304,7.7304,7.7304,7.7304,0.0,0.0,0.0,0.0,0.0,0.0,0.0,3.1664,3.3389,3.7009,3.6299,3.5351,3.5216,3.2679,3.0717,0.0,0.0,0.0,0.0,0.0,0.0,0.0,0.0,0.0,0.0,0.0,0.0,3.3525,3.4167,0.0,0.0,0.0,0.0,0.0,0.0,3.5622,3.5622,3.569,0.0,0.0,0.0,0.0,0.0,0.0,0.0,0.0,0.0,4.0239,4.0916,4.3539,4.4165,4.4368,4.7188,5.0077,5.22,5.1439,5.2843,5.4606,5.4606,5.4544,5.4544,5.4606,5.4544,5.3708,5.0697,4.9526,4.8849,4.8003,4.7327,4.7327,4.8748,4.9661,5.0642,5.2063,5.3078,5.4668,5.7476,5.8524,5.9539,6.1028,6.1839,6.2279,6.2279,6.2956,6.3429,6.3497,6.549,6.6754,6.6754,6.7796,6.8254,6.805,6.9063,6.9566,6.953,6.9778,7.0196,7.0865,7.1752,7.2178,7.2113,7.3847,7.5055,7.5751,7.5959,7.6497,0.0,7.7268,7.7268,7.7231,7.7304,7.7304,7.7304,7.7304,7.7304,7.7304,0.0,0.0,0.0,0.0,0.0,0.0,3.1427,3.2476,3.4303,3.8058,3.8024,3.7483,3.7043,3.5115,3.3017,3.0954,0.0,0.0,0.0,0.0,0.0,0.0,0.0,0.0,0.0,0.0,3.3761,3.4066,3.481,0.0,0.0,0.0,0.0,0.0,0.0,3.5622,3.5656,3.6129,0.0,0.0,0.0,0.0,0.0,0.0,0.0,0.0,0.0,0.0,4.0883,4.1613,4.2856,4.4236,4.494,4.7851,5.1038,5.1202,5.282,5.4781,5.573,5.561,5.5262,5.5262,5.459,5.3142,5.0119,4.8883,4.8139,4.7394,4.6989,4.7259,4.8748,4.9255,4.9932,5.142,5.23,5.3687,5.6224,5.7205,5.8389,6.0351,6.0825,6.1535,6.2922,6.3328,6.4075,6.5602,6.8006,6.9491,6.9491,6.9352,6.9494,6.9918,7.0297,7.0535,7.0535,7.1564,7.201,7.1817,7.3198,7.3847,7.3884,7.5128,7.5799,7.613,7.6607,7.7011,0.0,7.7304,7.7304,7.7304,7.7304,7.7304,7.7304,7.7304,7.7304,7.7304,0.0,0.0,0.0,0.0,0.0,2.9431,3.2205,3.3254,3.4912,3.8227,3.8464,3.8159,3.7618,3.5994,3.4201,3.2341,3.1562,0.0,0.0,0.0,0.0,0.0,0.0,0.0,0.0,0.0,3.4709,3.5182,3.569,3.6096,0.0,0.0,3.596,3.596,0.0,0.0,0.0,0.0,0.0,0.0,0.0,0.0,0.0,0.0,0.0,0.0,0.0,0.0,0.0,0.0,0.0,4.3842,4.3538,4.5862,4.9057,5.0504,5.2682,5.4898,5.6206,5.6313,5.6059,5.6059,5.4931,5.3018,4.9975,4.8761,4.797,4.6989,4.6955,4.7496,4.8781,4.9018,4.9492,5.098,5.1657,5.2841,5.5378,5.6156,5.7205,5.9201,5.9641,6.0588,6.2651,6.3917,6.5577,6.8109,7.0043,7.1223,7.1511,7.0601,7.04,7.1095,7.1312,7.142,7.142,7.2922,7.3483,7.3071,7.4507,7.5249,7.5285,7.6093,7.646,7.6497,7.7084,7.7304,0.0,7.7304,7.7304,7.7304,7.7304,7.7304,7.7304,7.7304,7.7304,7.7304,0.0,0.0,0.0,0.0,0.0,0.0,3.3051,3.3998,3.5318,3.7618,3.728,3.6806,3.6806,3.4776,3.3694,3.4404,3.2442,0.0,0.0,0.0,0.0,0.0,0.0,0.0,0.0,0.0,3.525,3.6772,3.6772,3.7144,3.7855,3.711,3.6772,3.6738,0.0,0.0,0.0,0.0,0.0,0.0,0.0,0.0,0.0,0.0,0.0,0.0,0.0,0.0,0.0,0.0,0.0,0.0,0.0,4.4485,4.6312,4.9221,5.225,5.4752,5.5511,5.6313,5.6912,5.6912,5.5705,5.3808,5.0745,4.9521,4.8578,4.709,4.7394,4.8139,4.8849,4.9018,4.9492,5.098,5.1217,5.2266,5.531,5.5716,5.6258,5.7746,5.8558,5.9641,6.1163,6.4778,6.8144,7.0858,7.1059,7.1511,7.2438,7.1573,7.1095,7.1095,7.1853,7.2286,7.2286,7.311,7.3933,7.4918,7.5726,7.6093,7.613,7.6937,7.7304,7.7304,7.7304,7.7304,0.0,7.7304,7.7304,7.7304,7.7304,7.7304,7.7304,7.7304,7.7304,7.7304,0.0,0.0,0.0,0.0,0.0,0.0,0.0,3.251,3.3592,3.5351,3.5351,3.5419,3.5926,3.4878,3.4235,3.4472,3.2916,0.0,0.0,0.0,0.0,0.0,0.0,0.0,0.0,3.5791,3.6299,3.6772,3.728,3.7686,3.7889,3.7144,3.6772,3.6738,3.596,3.5622,0.0,0.0,0.0,0.0,0.0,0.0,0.0,0.0,0.0,0.0,0.0,0.0,0.0,0.0,0.0,0.0,0.0,0.0,0.0,4.7428,5.0367,5.3282,5.3973,5.515,5.5785,5.4197,5.3098,5.179,4.9795,4.8761,4.8139,4.7665,4.7767,4.8139,4.8883,4.9018,4.9492,5.098,5.1217,5.1928,5.3923,5.5074,5.6505,5.8497,6.2301,6.4807,6.5248,6.8046,7.0181,7.1059,7.1696,7.2226,7.2496,7.2738,7.2875,7.2875,7.25,7.2898,7.408,7.4884,7.5446,7.5726,7.6533,7.6937,7.6937,7.7194,7.7304,7.7304,7.7304,7.7304,7.7304,7.7304,7.7304,7.7304,7.7304,7.7304,7.7304,7.7304,7.7304,7.7304,0.0,0.0,0.0,0.0,0.0,0.0,0.0,3.1968,3.2713,3.3931,3.3829,3.4066,3.5081,3.4269,3.3998,3.4844,3.3829,0.0,0.0,0.0,0.0,0.0,0.0,0.0,3.5588,3.6096,3.6637,3.7212,3.7686,3.8193,3.87,3.7956,3.7618,3.7584,3.684,3.6502,0.0,0.0,0.0,0.0,0.0,0.0,4.0087,0.0,0.0,0.0,0.0,0.0,0.0,0.0,0.0,0.0,0.0,0.0,0.0,0.0,4.8633,5.1315,5.2392,5.378,5.4597,5.3141,5.2021,5.098,4.9692,4.8855,4.824,4.797,4.8139,4.8477,4.8917,4.9018,4.9492,5.098,5.1217,5.2058,5.4493,5.5586,5.7292,6.0233,6.4309,6.7126,6.7729,6.9823,7.1223,7.1573,7.2167,7.2642,7.2936,7.3413,7.3964,7.4588,7.403,7.4249,7.5359,7.6166,7.657,7.657,7.7084,7.7304,7.7304,7.7304,7.7304,7.7304,7.7304,7.7304,0.0,7.7304,7.7304,7.7304,7.7304,7.7304,7.7304,7.7304,7.7304,7.7304,0.0,0.0,0.0,0.0,0.0,0.0,0.0,3.2205,3.2442,3.3152,3.2645,3.2713,3.41,3.3085,3.3152,3.5284,0.0,0.0,0.0,0.0,0.0,0.0,0.0,0.0,3.552,3.569,3.6502,3.7922,3.8024,3.8768,4.0054,3.9343,3.9005,3.8971,3.8227,3.7922,3.8024,0.0,0.0,0.0,4.0087,4.0087,0.0,0.0,0.0,0.0,0.0,0.0,0.0,0.0,0.0,0.0,0.0,0.0,0.0,0.0,0.0,0.0,0.0,5.2046,5.3193,5.3068,5.2061,5.0864,5.009,4.9419,0.0,4.797,4.8409,4.8951,4.8984,4.9018,4.9492,5.1112,5.1315,5.2652,5.6571,5.7387,5.8962,6.2718,6.5226,6.7261,6.8848,7.0355,7.1573,7.2438,7.2569,7.2899,7.367,7.3817,7.4551,7.6056,7.6166,7.6203,7.6203,7.6937,7.7304,7.7304,7.7304,7.7304,7.7304,7.7304,7.7304,0.0,7.7304,7.7304,7.7304,7.7304,7.7304,7.7304,7.7304,7.7304,7.7304,7.7304,7.7304,7.7304,0.0,0.0,0.0,0.0,0.0,0.0,0.0,0.0,0.0,0.0,3.1562,3.1596,3.1935,3.2171,3.2713,0.0,0.0,0.0,0.0,0.0,0.0,0.0,0.0,0.0,3.4742,3.6468,3.755,3.7922,3.9039,3.9749,4.0054,3.9343,3.9005,3.8971,3.8227,3.8227,3.8734,3.8937,0.0,0.0,4.0087,4.0087,0.0,0.0,0.0,0.0,4.0577,4.0842,0.0,0.0,0.0,0.0,0.0,0.0,0.0,0.0,4.5451,4.7125,4.7033,0.0,5.0522,4.9342,4.8919,4.8592,0.0,4.8196,4.797,4.7225,4.7665,4.8342,4.8917,4.9018,4.9909,5.2544,5.2494,5.3454,5.7374,6.1034,6.3821,6.5171,6.8182,6.9999,6.9678,7.115,7.2285,7.2496,7.3083,7.3487,7.367,7.4882,7.5726,7.6093,7.6717,7.7047,7.7047,7.7231,7.7304,7.7304,7.7304,7.7304,7.7304,7.7304,7.7304,7.7304,7.7304,7.7304,7.7304,7.7304,7.7304,7.7304,7.7304,7.7304,7.7304,7.7304,7.7304,7.7304,0.0,0.0,0.0,0.0,0.0,0.0,0.0,0.0,0.0,0.0,0.0,3.119,3.119,3.1833,0.0,0.0,0.0,0.0,0.0,0.0,0.0,0.0,0.0,3.3761,3.4472,3.6062,3.7212,3.7922,3.87,3.9411,4.0054,3.9681,3.9478,3.9478,3.9073,3.8937,3.9005,3.9343,3.9715,4.0087,4.0087,0.0,0.0,0.0,0.0,0.0,4.078,4.0803,0.0,4.2723,4.336,4.3443,0.0,0.0,0.0,0.0,4.5057,4.5939,4.5711,4.777,4.9694,4.8533,4.8311,4.8403,4.8641,4.8259,4.766,4.7307,4.8105,4.8838,4.8939,5.04,5.1987,5.3241,5.4677,5.6894,6.0425,6.4085,6.6801,6.7822,6.9923,7.1259,7.1138,7.197,7.2496,7.2496,7.323,7.3854,7.4221,7.5432,7.6276,7.6644,7.7084,7.7304,7.7304,7.7304,7.7304,7.7304,7.7304,7.7304,7.7304,7.7304,7.7304,7.7304,7.7304,7.7304,7.7304,7.7304,7.7304,7.7304,7.7304,7.7304,7.7304,7.7304,7.7304,7.7304,0.0,0.0,0.0,0.0,0.0,0.0,0.0,0.0,0.0,0.0,0.0,0.0,0.0,0.0,0.0,0.0,0.0,0.0,0.0,0.0,0.0,0.0,3.3795,3.3761,3.4472,3.5216,3.6434,3.8058,3.8193,3.8937,4.0257,4.0257,4.0189,4.0087,4.0087,3.9749,3.9208,3.9817,4.0087,4.0087,4.0087,0.0,0.0,0.0,0.0,0.0,0.0,0.0,0.0,4.3841,4.4227,4.3694,4.5165,0.0,0.0,0.0,0.0,0.0,4.5606,4.7849,4.9948,4.8818,4.8673,4.9028,4.9407,4.8591,4.768,4.768,4.875,4.9748,4.9776,5.2247,5.4401,5.4437,5.7683,6.1229,6.407,6.6555,6.8568,6.9926,7.0917,7.1725,7.2275,7.2422,7.2569,7.2679,7.3413,7.4221,7.5065,7.5873,7.6607,7.7304,7.7304,7.7304,7.7304,7.7304,7.7304,7.7304,7.7304,7.7304,7.7304,7.7304,7.7304,7.7304,7.7304,0.0,7.7304,7.7304,7.7304,7.7304,7.7304,7.7304,7.7304,7.7304,7.7304,7.7304,0.0,0.0,0.0,0.0,0.0,0.0,0.0,0.0,0.0,0.0,0.0,0.0,0.0,0.0,0.0,0.0,0.0,0.0,0.0,0.0,0.0,3.4506,3.3795,3.3761,3.4472,3.5216,3.6671,3.8836,3.9478,4.0223,4.1035,4.1035,4.0696,4.0087,4.0087,4.002,3.9918,4.002,4.0087,4.0087,4.0087,0.0,0.0,0.0,0.0,0.0,0.0,0.0,0.0,4.3278,4.3906,4.4063,4.3447,0.0,0.0,0.0,0.0,0.0,4.6236,4.8938,5.0882,4.7583,4.7823,4.8657,4.7949,4.7689,4.7632,4.7682,4.8381,4.9953,5.3245,5.3175,5.4154,5.8646,6.1676,6.4014,6.5877,6.822,6.9816,7.0073,7.1394,7.2092,7.1541,7.2092,7.2789,7.345,7.4258,7.5065,7.5873,7.668,7.7194,7.7304,7.7304,7.7304,7.7304,7.7304,7.7304,7.7304,7.7304,7.7304,7.7304,7.7304,7.7304,7.7304,0.0,7.7304,7.7304,7.7304,7.7304,7.7304,7.7304,7.7304,7.7304,7.7304,7.7304,7.7304,0.0,0.0,0.0,0.0,0.0,0.0,0.0,0.0,0.0,0.0,0.0,0.0,0.0,0.0,0.0,0.0,0.0,0.0,0.0,0.0,3.4675,3.5081,3.4776,3.4776,3.5081,3.5859,3.7347,3.9614,3.9952,4.0696,4.1779,4.1407,4.0595,3.9512,3.9884,3.9851,3.9512,3.9918,4.0087,4.0138,0.0,0.0,0.0,0.0,0.0,0.0,0.0,0.0,0.0,0.0,4.3913,4.3603,4.3746,0.0,0.0,0.0,0.0,0.0,4.6175,4.843,5.0309,4.865,5.008,5.1922,5.1871,5.1628,5.1262,5.088,5.1658,5.3062,5.4999,5.6428,5.887,6.3619,6.4265,6.4971,6.7467,6.8385,6.9265,7.0587,0.0,7.1872,7.1945,7.2275,7.2826,7.3634,7.4441,7.5249,7.6056,7.6864,7.7304,7.7304,7.7304,7.7304,7.7304,7.7304,7.7304,7.7304,7.7304,7.7304,7.7304,7.7304,7.7304,7.7304,0.0,7.7304,7.7304,7.7304,7.7304,7.7304,7.7304,7.7304,7.7304,7.7304,7.7304,7.7304,0.0,0.0,0.0,0.0,0.0,0.0,0.0,0.0,0.0,0.0,0.0,0.0,0.0,0.0,0.0,0.0,0.0,0.0,0.0,3.4404,3.4912,3.5859,3.5893,3.596,3.6163,3.6738,3.8125,4.0392,4.0527,4.1204,4.2286,4.1542,4.0595,3.9486,3.9917,3.9849,3.9486,4.0065,4.0303,4.0319,0.0,0.0,0.0,0.0,0.0,0.0,0.0,0.0,0.0,0.0,0.0,0.0,0.0,0.0,0.0,4.4674,4.5112,4.5497,4.6472,4.8101,4.9731,5.0192,5.1883,5.3763,5.5009,5.4638,5.4023,5.4179,5.5231,5.6283,5.6855,5.9847,6.3135,6.6072,6.5632,6.5925,6.8788,6.8825,6.9302,7.1358,7.1578,7.1835,7.2459,7.2679,7.312,7.3927,7.4735,7.5542,7.635,7.6974,7.7304,7.7304,7.7304,7.7304,7.7304,7.7304,7.7304,7.7304,7.7304,7.7304,7.7304,7.7304,7.7304,7.7304,7.7304,7.7304,7.7304,7.7304,7.7304,7.7304,7.7304,7.7304,7.7304,7.7304,7.7304,7.7304,0.0,0.0,0.0,0.0,0.0,0.0,0.0,0.0,0.0,0.0,0.0,0.0,0.0,0.0,0.0,0.0,0.0,0.0,0.0,3.41,3.5148,3.6637,3.6705,3.7009,3.7719,3.7787,3.8903,4.1136,4.1813,4.2185,4.2286,4.1542,4.1034,4.0758,4.0319,4.0334,4.0804,4.0792,4.0874,4.092,4.1473,0.0,0.0,0.0,0.0,0.0,0.0,0.0,0.0,0.0,0.0,0.0,0.0,0.0,4.4971,4.5626,4.581,4.6177,4.7716,4.8854,4.9958,5.1458,5.0908,5.0762,5.3812,5.3256,5.3036,5.597,5.7217,5.829,5.9784,6.2218,6.3759,6.3246,6.5558,6.8017,6.9779,0.0,7.1394,7.2312,7.2422,7.2459,7.2496,7.3193,7.3964,7.4771,7.5579,7.6387,7.7194,7.7304,7.7304,7.7304,7.7304,7.7304,7.7304,7.7304,7.7304,7.7304,7.7304,7.7304,7.7304,7.7304,7.7304,7.7304,7.7304,7.7304,7.7304,7.7304,7.7304,7.7304,7.7304,7.7304,7.7304,7.7304,7.7304,7.7304,0.0,0.0,0.0,0.0,0.0,0.0,0.0,0.0,0.0,0.0,0.0,0.0,0.0,0.0,0.0,0.0,0.0,0.0,0.0,3.3828,3.4709,3.6705,3.7558,3.8081,3.8345,3.9318,4.0659,4.243,4.2838,4.294,4.2842,4.2121,4.1478,4.092,4.072,4.0685,4.092,4.092,4.1115,4.1473,4.2139,4.2498,0.0,0.0,0.0,0.0,0.0,0.0,0.0,0.0,4.3324,4.3204,4.3797,4.4126,4.4436,4.5004,4.5516,4.614,4.7278,4.893,5.0618,5.172,5.227,5.3298,5.6014,5.6932,5.7556,5.8804,6.0089,6.119,6.1777,6.4347,6.5888,6.4567,6.6659,6.8825,6.9926,7.0807,7.1615,7.2422,7.2496,7.2496,7.2496,7.323,7.4037,7.4845,7.5652,7.646,7.7268,7.7304,7.7304,7.7304,7.7304,7.7304,7.7304,7.7304,7.7304,7.7304,7.7304,7.7304,7.7304,7.7304,7.7304,7.7304,7.7304,7.7304,7.7304,7.7304,7.7304,7.7304,7.7304,7.7304,7.7304,7.7304,7.7304,7.7304,0.0,0.0,0.0,0.0,0.0,0.0,0.0,0.0,0.0,0.0,0.0,0.0,0.0,0.0,0.0,0.0,0.0,0.0,3.3675,3.3705,3.4525,3.657,3.7732,3.8668,3.9463,4.0631,4.1777,4.2797,4.3186,4.3151,4.2812,4.2288,4.195,4.1824,4.1356,4.1436,4.1824,4.1578,4.1725,4.2103,4.2732,4.2921,0.0,0.0,0.0,0.0,0.0,0.0,0.0,0.0,4.325,4.3068,4.3686,4.4017,4.4267,4.4894,4.5847,4.6838,4.7682,4.9114,5.0765,5.2344,5.3371,5.4803,5.7703,5.9024,6.0015,6.13,6.2034,6.2658,6.3466,6.5007,6.5962,6.5411,6.754,6.9486,7.0,7.1027,7.1872,7.2422,7.2496,7.2606,7.2863,7.3597,7.4404,7.5212,7.6019,7.6717,7.7304,7.7304,7.7304,7.7304,7.7304,7.7304,7.7304,7.7304,7.7304,7.7304,7.7304,7.7304,7.7304,7.7304,7.7304,7.7304,7.7304,7.7304,7.7304,7.7304,7.7304,7.7304,7.7304,7.7304,7.7304,7.7304,7.7304,7.7304,0.0,0.0,0.0,0.0,0.0,0.0,0.0,0.0,0.0,0.0,0.0,0.0,0.0,0.0,0.0,0.0,0.0,0.0,3.2988,3.3675,3.4782,3.6305,3.7143,3.8731,4.132,4.1635,4.185,4.1988,4.2846,4.2812,4.2098,4.1939,4.2573,4.3812,4.2418,4.2573,4.3851,4.3018,4.2693,4.2732,4.3286,4.3497,4.3497,0.0,0.0,0.0,0.0,0.0,0.0,0.0,4.3497,4.3644,4.4452,4.4709,4.4892,4.5663,4.7021,4.8489,4.9334,4.9554,5.0325,5.3592,5.3849,5.4326,5.8327,5.8621,5.9171,6.3246,6.2768,6.2401,6.4861,6.398,6.3392,6.5044,6.8017,7.011,7.011,7.1505,7.2496,7.2496,7.2496,7.2826,7.3597,7.4441,7.5249,7.6056,7.6864,7.7304,7.7304,7.7304,7.7304,7.7304,7.7304,7.7304,7.7304,7.7304,7.7304,7.7304,7.7304,7.7304,7.7304,7.7304,7.7304,7.7304,7.7304,7.7304,7.7304,7.7304,7.7304,7.7304,7.7304,7.7304,7.7304,7.7304,7.7304,7.7304,0.0,0.0,0.0,0.0,0.0,0.0,0.0,0.0,0.0,0.0,0.0,0.0,0.0,0.0,0.0,0.0,0.0,0.0,3.2986,3.319,3.4025,3.555,3.6991,3.7968,3.8467,4.0081,4.1788,4.3476,4.3297,4.3208,4.328,4.2701,4.2645,4.3054,4.2609,4.2645,4.3018,4.2802,4.292,4.3286,4.3463,4.3497,4.3497,0.0,0.0,0.0,0.0,0.0,0.0,0.0,0.0,0.0,4.3791,4.4635,4.548,4.5149,4.581,4.6801,4.7609,4.9921,5.2344,5.3335,5.6345,5.9281,5.9905,5.9869,6.0676,6.4237,6.4567,6.442,6.5154,6.5815,6.6219,6.6145,6.8385,7.0293,7.0881,7.1835,7.2496,7.2496,7.2496,7.2826,7.3597,7.4441,7.5249,7.6056,7.6864,7.7304,7.7304,7.7304,7.7304,7.7304,7.7304,7.7304,7.7304,7.7304,7.7304,7.7304,7.7304,7.7304,7.7304,7.7304,7.7304,7.7304,7.7304,7.7304,7.7304,7.7304,7.7304,7.7304,7.7304,7.7304,7.7304,7.7304,7.7304,7.7304,0.0,0.0,0.0,0.0,0.0,0.0,0.0,0.0,3.5865,3.5432,3.4784,3.4505,0.0,0.0,0.0,3.5382,3.4434,3.377,3.3565,3.3847,3.4552,3.5858,3.747,3.8366,3.8397,4.0356,4.1742,4.2567,4.282,4.2888,4.2835,4.2956,4.3359,4.3977,4.3977,4.3977,4.394,4.3613,4.3506,4.3497,4.3497,4.3497,4.3497,0.0,0.0,0.0,0.0,0.0,0.0,0.0,0.0,0.0,4.3497,4.4158,4.5039,4.5516,4.6691,4.8233,4.9994,5.2527,5.495,5.6235,5.8621,6.086,6.1667,6.2108,6.2989,6.5301,6.5521,6.5521,6.6145,6.6769,6.7283,6.743,6.9229,7.077,7.1248,7.1982,7.2496,7.2496,7.2789,7.3303,7.4111,7.4918,7.5726,7.6533,7.7047,7.7304,7.7304,7.7304,7.7304,7.7304,7.7304,7.7304,7.7304,7.7304,7.7304,7.7304,7.7304,7.7304,7.7304,7.7304,7.7304,7.7304,7.7304,7.7304,7.7304,7.7304,7.7304,7.7304,7.7304,7.7304,7.7304,7.7304,7.7304,7.7304,0.0,0.0,0.0,0.0,0.0,0.0,0.0,3.5569,3.4877,3.4455,3.4061,3.3963,0.0,0.0,0.0,3.6135,3.5439,3.479,3.4465,3.5047,3.5836,3.6877,3.8397,3.9553,4.0239,4.1681,4.1681,4.0167,4.1753,4.215,4.1541,4.2848,4.4305,4.5773,4.5773,4.5773,4.5736,4.4929,4.4158,4.3497,4.3497,4.3497,4.3497,4.3497,0.0,0.0,0.0,0.0,0.0,0.0,0.0,0.0,4.3497,4.3534,4.4011,4.6177,4.8636,5.1316,5.4252,5.5941,5.7629,6.0639,6.0529,6.0456,6.3503,6.4824,6.5632,6.6366,6.5999,6.5999,6.7504,6.721,6.7247,6.8862,7.0367,7.1358,7.1431,7.2055,7.2532,7.2606,7.323,7.4037,7.4918,7.5689,7.6423,7.7268,7.7304,7.7304,7.7304,7.7304,7.7304,7.7304,7.7304,7.7304,7.7304,7.7304,7.7304,7.7304,7.7304,7.7304,7.7304,7.7304,7.7304,7.7304,7.7304,7.7304,7.7304,7.7304,7.7304,7.7304,7.7304,7.7304,7.7304,7.7304,7.7304,7.7304,0.0,0.0,0.0,0.0,0.0,0.0,3.6303,3.5569,3.4877,3.4455,3.4061,3.3963,3.4346,3.4754,0.0,3.5701,3.4981,3.4578,3.4759,3.4702,3.558,3.7636,3.9192,4.031,4.0909,4.0817,4.0527,3.9991,4.1107,4.1832,4.215,4.3059,4.4011,4.4966,4.4966,4.4966,4.4929,4.4085,4.3644,4.3497,4.3497,4.3497,4.3497,4.3497,4.3497,0.0,0.0,0.0,0.0,0.0,0.0,0.0,4.3497,4.3938,4.4415,4.4305,4.6874,4.9921,5.0692,5.4216,5.807,5.9391,6.141,6.3392,6.4751,6.5668,6.6292,6.6476,6.6843,6.7467,6.8458,6.8495,6.8898,7.055,7.1101,7.1541,7.2165,7.2386,7.2716,7.3377,7.3597,7.4258,7.5689,7.6019,7.6423,7.7268,7.7304,7.7304,7.7304,7.7304,7.7304,7.7304,7.7304,7.7304,7.7304,7.7304,7.7304,7.7304,7.7304,7.7304,7.7304,7.7304,7.7304,7.7304,7.7304,7.7304,7.7304,7.7304,7.7304,7.7304,7.7304,7.7304,7.7304,7.7304,7.7304,7.7304,0.0,0.0,0.0,0.0,0.0,0.0,0.0,0.0,3.5264,3.4251,3.4284,3.4458,3.4659,3.484,0.0,0.0,3.5169,3.4933,3.5507,3.5405,3.6552,3.9352,4.0593,4.1207,4.1079,4.0805,4.0221,3.9313,3.9859,4.0662,4.1735,4.2543,4.3571,4.4745,4.5112,4.4856,4.4121,4.4085,4.3644,4.2947,4.3314,4.3497,4.3497,4.3497,4.3497,4.3497,4.3497,0.0,0.0,0.0,0.0,0.0,0.0,0.0,4.4268,4.5002,4.6985,4.9517,5.2307,5.5464,5.8584,6.097,6.3135,6.4897,6.5705,6.6512,6.7063,6.7063,6.7393,6.7944,6.8752,6.9229,6.9889,7.1101,7.1651,7.2018,7.2459,7.2496,7.2789,7.3597,7.4037,7.4771,7.5983,7.646,7.6864,7.7304,7.7304,7.7304,7.7304,7.7304,7.7304,7.7304,7.7304,7.7304,7.7304,7.7304,7.7304,7.7304,7.7304,7.7304,7.7304,7.7304,7.7304,7.7304,7.7304,7.7304,7.7304,7.7304,7.7304,7.7304,7.7304,7.7304,7.7304,7.7304,7.7304,7.7304,0.0,0.0,0.0,0.0,0.0,0.0,0.0,0.0,0.0,3.4174,3.4614,3.499,3.499,3.488,3.5165,0.0,0.0,0.0,3.6229,3.656,3.7955,4.0781,4.1662,4.1772,4.1111,4.0965,4.023,3.8909,3.8762,3.9533,4.1148,4.1919,4.3167,4.4745,4.5406,4.4892,4.3534,4.4048,4.3461,4.2176,4.2947,4.3277,4.3314,4.3424,4.3497,4.3497,4.3497,4.3497,4.3497,4.3497,0.0,0.0,0.0,0.0,4.3864,4.5883,4.7462,4.9554,5.4252,5.6859,5.9171,6.3099,6.4714,6.5521,6.6329,6.71,6.7687,6.7687,6.7797,6.8128,6.8972,6.9779,7.0587,7.1394,7.2092,7.2496,7.2496,7.2606,7.301,7.3817,7.4625,7.5432,7.624,7.6937,7.7304,7.7304,7.7304,7.7304,7.7304,7.7304,7.7304,7.7304,7.7304,7.7304,7.7304,7.7304,7.7304,7.7304,7.7304,7.7304,7.7304,7.7304,7.7304,7.7304,7.7304,7.7304,7.7304,7.7304,7.7304,7.7304,7.7304,7.7304,7.7304,7.7304,7.7304,7.7341,0.0,0.0,0.0,0.0,0.0,0.0,0.0,0.0,0.0,0.0,3.4917,3.499,3.499,3.4394,3.4284,3.51,3.4431,3.4614,3.6193,0.0,0.0,4.001,4.0818,4.1222,4.1111,4.0414,3.9937,3.9753,3.9056,3.9533,4.1148,4.1919,4.3167,4.4709,4.4819,4.4342,4.3461,4.2873,4.2103,4.1332,4.2139,4.247,4.2543,4.3204,4.3497,4.3497,4.3497,4.3497,4.3497,4.3497,4.3497,0.0,0.0,0.0,4.3534,4.3864,4.6507,4.9517,5.0251,5.4656,5.9869,6.3246,6.4714,6.5521,6.6329,6.71,6.7687,6.7687,6.8238,6.9009,6.9779,7.0587,7.1394,7.2202,7.2422,7.2496,7.2496,7.3083,7.3854,7.4661,7.5469,7.6276,7.7084,7.7268,7.7304,7.7304,7.7304,7.7304,7.7304,7.7304,7.7304,7.7304,7.7304,7.7304,7.7304,7.7304,7.7304,7.7304,7.7304,7.7304,7.7304,7.7304,7.7304,7.7304,7.7304,7.7304,7.7304,7.7304,7.7304,7.7304,7.7304,7.7304,7.7304,7.7304,7.7304,7.7414,0.0,0.0,0.0,0.0,0.0,0.0,0.0,0.0,0.0,0.0,0.0,3.5569,3.5027,3.466,3.4431,3.4357,3.399,3.4284,3.5495,3.711,3.8395,3.9203,4.001,4.0414,4.0414,3.9643,3.9239,3.9239,3.8432,3.9093,4.1111,4.1479,4.2506,4.4011,4.3571,4.291,4.2139,4.1772,4.1148,4.0487,4.1295,4.2727,4.4195,4.3204,4.3938,4.5333,4.3975,4.3497,4.3497,4.3497,4.3497,4.3497,4.3497,0.0,0.0,0.0,4.5076,4.7609,5.1242,5.5647,6.0126,6.3833,6.5044,6.5632,6.688,6.743,6.7687,6.7687,6.8678,6.9669,7.0036,7.077,7.1578,7.2386,7.2496,7.2496,7.2496,7.3193,7.4001,7.4808,7.5616,7.6423,7.7231,7.7304,7.7304,7.7304,7.7304,7.7304,7.7304,7.7304,7.7304,7.7304,7.7304,7.7304,7.7304,7.7304,7.7304,7.7304,7.7304,7.7304,7.7304,7.7304,7.7304,7.7304,7.7304,7.7304,7.7304,7.7304,7.7304,7.7304,7.7304,7.7304,7.7304,7.7304,7.7635,7.8075,0.0,0.0,0.0,0.0,0.0,0.0,0.0,0.0,0.0,0.0,0.0,3.6046,3.5422,0.0,0.0,0.0,3.3807,3.4137,3.4954,3.6156,3.7331,3.8358,3.8946,3.9386,3.957,3.8799,3.8505,3.8689,3.8102,3.8946,4.1111,4.1332,4.2139,4.3461,4.2873,4.2176,4.1405,4.1185,4.0634,4.001,4.1442,4.3461,4.5516,4.4745,4.5957,4.7719,4.5296,4.4415,4.4305,4.3718,4.3497,4.3497,4.3497,4.3497,0.0,0.0,0.0,4.5993,5.1903,5.539,5.851,6.3209,6.453,6.5191,6.7247,6.7687,6.776,0.0,6.9119,7.0146,7.0367,7.1064,7.1798,7.2422,7.2496,7.2569,7.2789,7.3487,7.4294,7.5102,7.5909,7.6644,7.7268,7.7304,7.7304,7.7304,7.7304,7.7304,7.7304,7.7304,7.7304,7.7304,7.7304,7.7304,7.7304,7.7304,7.7304,7.7304,7.7304,7.7304,7.7304,7.7304,7.7304,7.7304,7.7304,7.7304,7.7304,7.7304,7.7304,7.7304,7.7304,7.7451,7.7635,7.7635,7.8185,7.8919,0.0,0.0,0.0,0.0,0.0,0.0,0.0,0.0,0.0,0.0,0.0,3.6266,3.6229,3.5495,3.466,3.388,3.3807,3.4137,3.4954,3.5064,3.5862,3.7477,3.7588,0.0,3.8762,3.7955,3.7918,3.8689,3.8652,3.9496,4.1148,4.1882,4.269,4.3497,4.3461,4.2983,4.2176,4.1442,4.0634,4.0157,4.3277,4.4635,4.5186,4.893,5.0472,5.0288,4.7829,4.6911,4.6581,4.4268,4.3497,4.3497,4.3497,4.3497,4.3497,0.0,0.0,0.0,4.9848,5.1683,5.3885,6.0199,6.2365,6.3796,6.6953,6.7687,6.7907,6.8678,6.9522,7.033,7.1101,7.1908,7.2459,7.2496,7.2496,7.2789,7.3523,7.4331,7.5139,7.5946,7.6754,7.7268,7.7304,7.7304,7.7304,7.7304,7.7304,7.7304,7.7304,7.7304,7.7304,7.7304,7.7304,7.7304,7.7304,7.7304,7.7304,7.7304,7.7304,7.7304,7.7304,7.7304,7.7304,7.7304,7.7304,7.7304,7.7304,7.7304,7.7304,7.7304,7.7304,7.7818,7.8516,7.8516,7.9029,7.9837,0.0,0.0,0.0,0.0,0.0,0.0,0.0,0.0,0.0,0.0,0.0,0.0,0.0,3.6009,3.5275,3.3917,3.3807,3.3917,3.4211,3.4697,3.5532,3.667,3.7221,3.7881,3.8689,3.7404,3.711,3.7918,3.7404,3.8248,4.0341,4.1148,4.2249,4.3424,4.2433,4.2103,4.2176,4.0341,4.001,4.0855,4.3057,4.548,4.7939,4.9444,5.1316,5.2784,5.0362,4.8453,4.6985,4.6104,4.4782,4.3497,4.3497,4.3497,4.3497,4.3497,4.4085,4.548,4.904,5.0618,5.2527,5.7923,6.0676,6.2622,6.4861,6.6586,6.7907,6.8752,6.9522,7.033,7.1174,7.1982,7.2496,7.2496,7.2496,7.2789,7.3597,7.4404,7.5212,7.6019,7.6827,7.7304,7.7304,7.7304,7.7304,7.7304,7.7304,7.7304,7.7304,7.7304,7.7304,7.7304,7.7304,7.7304,7.7304,7.7304,7.7304,7.7304,7.7304,7.7304,7.7304,7.7304,7.7304,7.7304,7.7304,7.7304,7.7304,7.7304,7.7635,7.8148,7.8148,7.8626,7.936,7.936,7.9874,8.0608,0.0,0.0,0.0,0.0,0.0,0.0,0.0,0.0,3.4724,3.6119,0.0,0.0,0.0,0.0,3.6009,3.4357,3.4211,3.41,3.3807,3.4321,3.5128,3.6229,3.6817,3.7588,3.8689,3.7404,3.711,3.7881,3.7367,3.8065,3.99,4.0744,4.1809,4.302,4.1405,4.1442,4.258,4.0708,4.0524,4.1735,4.4452,4.6654,4.8526,5.0765,5.2417,5.3371,5.1793,5.0141,4.871,4.8453,4.7462,4.614,4.5039,4.4158,4.3497,4.3497,4.3864,4.4892,4.7609,4.893,5.0802,5.5904,5.84,6.0456,6.3759,6.5521,6.7026,6.8898,6.9743,7.044,7.1505,7.2165,7.2496,7.2496,7.2716,7.3193,7.4001,7.4808,7.5616,7.6423,7.6974,7.7304,7.7304,7.7304,7.7304,7.7304,7.7304,0.0,7.7304,7.7304,7.7304,7.7304,7.7304,7.7304,7.7304,7.7304,7.7304,7.7304,7.7304,7.7304,7.7304,7.7304,7.7304,7.7304,7.7304,7.7304,7.7341,7.7635,7.8075,7.8626,7.8883,7.947,8.0204,8.0204,8.0718,8.1415,0.0,0.0,0.0,0.0,0.0,0.0,3.634,3.5605,3.5349,3.6229,0.0,0.0,0.0,0.0,0.0,3.521,3.5064,3.4697,3.388,3.3844,3.4578,3.6229,3.6303,3.7037,3.8652,3.7918,3.7881,3.8652,3.8652,3.9093,3.9863,4.0708,4.1515,4.2213,4.0634,4.1222,4.3351,4.2543,4.2249,4.2763,4.7535,4.8086,4.6728,5.3115,5.4142,5.216,5.216,5.2123,5.1977,5.1206,5.1353,5.1316,4.8049,4.5406,4.3497,4.3497,4.3497,4.3828,0.0,0.0,0.0,5.3995,5.5464,5.7189,6.3576,6.4457,6.5081,6.9155,7.0,7.0513,7.2202,7.2496,7.2496,7.2496,7.3193,7.3964,7.4808,7.5579,7.6387,7.7231,7.7304,7.7304,7.7304,7.7304,7.7304,7.7304,7.7304,7.7304,7.7304,7.7304,7.7304,7.7304,7.7304,7.7304,7.7304,7.7304,7.7304,7.7304,7.7304,7.7304,7.7304,7.7304,7.7304,7.7304,7.7304,7.7341,7.7414,7.8259,7.8589,7.8699,7.9507,8.0314,8.1048,8.1048,8.1525,8.2186,0.0,0.0,0.0,0.0,0.0,3.7147,3.7147,3.645,3.6229,0.0,0.0,0.0,3.7551,3.7507,3.7294,3.6853,3.6817,3.6193,3.4761,3.4688,3.5165,3.6229,3.6303,3.7037,3.8652,3.7918,3.7588,3.7808,3.7808,3.8248,3.9056,3.9863,4.0671,4.1405,4.0965,4.1148,4.1662,4.0304,4.1038,4.3314,4.5296,4.7425,4.9848,5.3371,5.539,5.6345,5.6345,5.5574,5.4546,5.4326,5.205,4.8746,4.5516,4.4048,4.3497,4.3497,4.3497,4.3718,4.4745,0.0,0.0,0.0,0.0,0.0,5.7593,5.9465,6.1887,6.6549,6.7504,6.8531,7.1872,7.2496,7.2496,7.2496,7.3193,7.3964,7.4808,7.5579,7.6387,7.7231,7.7304,7.7304,7.7304,0.0,0.0,0.0,7.7304,7.7304,7.7304,7.7304,7.7304,7.7304,7.7304,7.7304,7.7304,7.7304,7.7304,7.7304,7.7304,7.7304,7.7304,7.7304,7.7304,7.7304,7.7304,7.7671,7.8259,7.8516,7.8919,7.9543,8.0351,8.1158,8.1856,8.1856,8.2003,8.2186,0.0,0.0,3.9203,3.9203,3.8799,3.8505,3.8505,3.8102,3.7955,0.0,0.0,0.0,3.9056,3.8982,3.8726,3.8065,3.7991,3.7294,3.5642,3.5569,3.5936,3.6743,3.678,3.7551,3.9166,3.8395,3.8175,3.8505,3.8175,3.8248,3.8726,3.9166,3.9827,4.0598,4.0267,4.0671,4.1515,3.9863,4.0671,4.324,4.6104,4.8049,4.9664,5.3445,5.5354,5.6124,5.7152,5.6675,5.5794,5.7152,5.4142,4.9554,4.8012,4.592,4.3938,4.3608,4.3975,4.4599,4.5076,4.581,4.6874,4.8857,0.0,0.0,5.6712,5.8437,6.0896,0.0,6.7981,6.8935,7.1945,7.2496,7.2496,7.2496,7.3193,7.3964,7.4808,7.5579,7.6387,7.7231,7.7304,0.0,0.0,7.7304,7.7304,7.7304,7.7304,7.7304,7.7304,7.7304,7.7304,7.7304,7.7304,7.7304,7.7304,7.7304,7.7304,7.7304,7.7304,7.7304,7.7304,7.7304,7.7304,7.7341,7.7708,7.8148,7.8662,7.9323,7.9874,8.0388,8.1195,8.1782,8.2186,8.2186,8.2186,8.2186,0.0,3.9533,4.001,4.001,4.001,4.001,4.001,4.001,4.001,0.0,4.0671,4.1185,4.1368,4.1295,4.0671,3.9239,3.9019,3.8285,3.667,3.6486,3.6743,3.747,3.7588,3.8285,3.9717,3.9239,3.9239,3.9753,3.9129,3.8836,3.8836,3.8726,3.9129,3.9863,3.9056,3.9937,4.1956,4.0598,4.1111,4.3277,4.8269,4.9224,4.8233,5.3555,5.4913,5.4289,5.6455,5.6785,5.6638,5.9245,5.6822,5.2674,5.2747,4.9517,4.5406,4.4121,4.4966,4.625,4.5957,4.6544,4.7755,4.9884,5.0141,0.0,5.7776,5.8877,6.0456,0.0,6.8678,6.9302,7.1101,7.1505,7.1578,7.1578,7.2459,7.356,7.4735,7.5579,7.6387,0.0,0.0,0.0,7.7304,7.7304,7.7304,7.7304,7.7304,7.7304,7.7304,7.7304,7.7304,7.7304,7.7304,7.7304,7.7304,7.7304,7.7304,7.7304,7.7304,7.7304,7.7304,7.7304,7.7304,7.7378,7.8222,7.8662,7.8846,8.0388,8.1012,8.1085,8.1893,8.2186,8.2186,8.2186,8.2186,8.2186,4.0487,4.0781,4.0891,4.0891,4.0891,4.0891,4.0891,4.0891,4.0891,4.0891,4.1001,4.1589,4.2873,4.2433,4.1956,4.1625,4.1001,3.9974,3.8358,3.7624,3.7331,3.7477,3.8102,3.8615,3.8946,4.0047,4.0084,3.8946,3.9423,3.968,3.9643,3.9019,3.9129,3.9863,3.9056,3.9313,4.0377,4.0744,4.2947,4.6214,4.6691,4.8526,5.1389,5.4436,5.7005,5.9061,5.9538,6.0015,6.0236,5.8914,5.774,5.6051,5.161,5.0839,5.0765,4.6617,4.7021,4.8379,4.6434,4.6948,4.8049,4.7865,4.9701,0.0,5.1683,5.3078,5.5354,0.0,5.9905,6.1263,6.4163,6.5264,6.5742,6.5742,6.8054,7.1027,7.4441,7.5579,0.0,0.0,0.0,0.0,7.7304,7.7304,7.7304,7.7304,7.7304,7.7304,7.7304,7.7304,7.7304,7.7304,7.7304,7.7304,7.7304,7.7304,7.7304,7.7304,7.7304,7.7304,7.7304,7.7304,7.7304,7.7378,7.8222,7.8956,7.9617,8.0608,8.1012,8.1085,8.1893,8.2186,8.2186,8.2186,8.2186,8.2186,4.0965,4.1442,4.1699,4.1699,4.2029,4.2433,4.2837,4.291,4.3057,4.3461,4.3167,4.3204,4.4011,4.3387,4.2727,4.2323,4.1919,4.1038,3.9386,3.8909,3.8505,3.8102,3.8469,3.9093,3.99,3.99,3.99,3.99,3.9496,3.9313,3.9276,3.8909,3.9753,4.1625,4.001,4.0634,4.2837,4.2029,4.3094,4.5516,4.7976,5.1132,5.4656,5.7079,5.9245,6.1006,6.1006,6.152,6.1887,5.9869,5.8143,5.6418,5.4399,5.3225,5.1977,4.871,4.915,5.0141,4.7278,4.7388,4.8416,4.8857,4.9554,0.0,0.0,5.3518,5.495,5.8988,5.9795,6.0529,6.2989,6.3796,6.409,6.409,6.6806,6.9339,7.055,7.3487,7.5946,0.0,0.0,0.0,7.7304,7.7304,7.7304,7.7304,7.7304,7.7304,7.7304,7.7304,7.7304,7.7304,7.7304,7.7304,7.7304,7.7304,7.7304,7.7304,7.7304,7.7304,7.7304,7.7304,7.7304,7.7378,7.8662,7.9433,7.9874,8.1085,8.1599,8.1636,8.2039,8.2186,8.2186,8.2186,8.2186,8.2186,4.1148,4.1992,4.2543,4.2543,4.3057,4.3718,4.4378,4.4488,4.4745,4.5553,4.5259,4.5039,4.5369,4.4966,4.4488,4.3975,4.3791,4.2947,4.1148,4.0891,4.0524,3.99,3.9423,3.9937,4.1552,4.001,3.9643,4.0634,3.9496,3.8946,3.8946,3.8762,4.0267,4.2947,4.1479,4.247,4.5112,4.3791,4.4048,4.5773,5.0362,5.3408,5.55,5.8547,6.0199,6.1006,6.1777,6.2511,6.2805,6.119,5.8914,5.6822,5.7189,5.5721,5.3298,5.0618,5.1499,5.2601,4.904,4.8746,4.9701,5.0582,5.0141,5.0508,0.0,0.0,0.0,5.9832,6.0346,6.0382,6.1741,0.0,0.0,0.0,0.0,0.0,0.0,7.0036,0.0,7.5285,0.0,0.0,0.0,7.6387,7.6644,7.7268,7.6754,7.668,7.7304,7.7304,7.7304,7.7304,7.7304,7.7304,7.7304,7.7304,7.7304,7.7304,7.7304,7.7304,7.7341,7.7488,7.7561,7.7671,7.9323,8.0021,8.0131,8.1599,8.2186,8.2186,8.2186,8.2186,8.2186,8.2186,8.2186,8.2186,4.1882,4.28,4.3351,4.3351,4.3424,4.3534,4.3608,4.3644,4.3938,4.4745,4.5369,4.6324,4.7755,4.8489,4.915,4.9774,4.9114,4.7682,4.5369,4.4562,4.4121,4.4011,4.1992,4.1589,4.3167,4.1662,4.023,3.8982,3.9496,3.9753,3.9753,3.9019,3.968,4.1479,4.3314,4.3608,4.2873,4.548,4.871,5.216,5.2821,5.1536,0.0,5.517,5.7703,5.8877,6.2511,6.387,6.3686,0.0,6.1227,6.0199,5.6088,5.7409,5.9208,5.2601,5.4326,5.7373,5.2711,5.2564,5.3225,5.1279,5.227,5.3115,5.0912,0.0,5.3335,5.3225,0.0,5.4216,5.4399,0.0,0.0,0.0,0.0,0.0,6.2071,6.5191,6.7797,6.8678,0.0,0.0,0.0,7.3046,7.4258,7.7121,7.4661,7.4294,7.7157,7.7304,7.7304,7.7304,7.7304,7.7304,7.7304,7.7304,7.7304,7.7304,7.7304,7.7304,7.7341,7.8112,7.8442,7.8552,8.0167,8.0865,8.0938,8.1819,8.2186,8.2186,8.2186,8.2186,8.2186,8.2186,8.2186,8.2186,4.2066,4.258,4.2947,4.3424,4.3497,4.3644,4.4121,4.5406,4.625,4.6104,4.6801,4.7572,4.8233,4.8196,4.8673,4.9921,4.9738,4.8526,0.0,4.559,4.4562,4.269,4.1662,4.1442,4.2103,4.1001,4.0084,3.9386,3.9276,3.9203,3.9203,3.935,4.0744,4.3277,4.5223,4.6801,4.7939,4.8379,4.926,5.0435,5.1426,5.0692,0.0,5.7409,6.0823,6.1814,6.4016,6.4787,6.4677,0.0,6.2181,6.0272,6.0639,5.9538,5.7776,5.6161,5.6381,5.6455,5.3518,5.3885,5.462,5.2674,5.2968,5.3371,5.2013,5.1756,5.2123,5.3151,0.0,0.0,0.0,0.0,0.0,0.0,5.7776,5.9869,0.0,0.0,6.6292,0.0,0.0,0.0,0.0,0.0,0.0,0.0,7.4331,7.3927,7.7157,7.7304,7.7304,7.7304,7.7304,7.7304,7.7304,7.7304,7.7304,7.7304,7.7304,7.7304,7.7341,7.8222,7.8589,7.8699,8.0314,8.1012,8.1048,8.1856,8.2186,8.2186,8.2186,8.2186,8.2186,8.2186,8.2186,8.2186,4.2103,4.247,4.28,4.3387,4.3497,4.3754,4.4599,4.5993,4.7021,4.7095,4.7609,4.8416,4.9517,4.9334,4.9848,5.1683,5.1867,5.0839,0.0,0.0,4.6507,4.4819,4.2616,4.2066,4.3387,4.1332,4.023,4.023,3.9423,3.9129,3.9386,3.9717,4.1368,4.4158,4.6434,4.8746,5.0986,5.0912,5.1059,5.1389,5.2601,5.3408,5.4509,6.0052,6.3099,6.453,6.5338,6.5632,6.5558,6.5118,6.2989,0.0,6.3246,6.119,5.8143,5.9208,5.8951,5.774,5.5464,5.5868,5.6308,5.3812,5.3371,5.3371,5.2711,5.1977,5.2013,5.3995,5.4106,0.0,0.0,0.0,5.4656,5.4436,0.0,5.818,5.5611,5.9538,0.0,0.0,0.0,0.0,0.0,0.0,0.0,0.0,0.0,7.2973,7.7084,7.7304,7.7304,7.7304,7.7304,7.7304,7.7304,7.7304,7.7304,7.7304,7.7304,7.7304,7.7378,7.8442,7.8919,7.9029,8.0645,8.1342,8.1379,8.1966,8.2186,8.2186,8.2186,8.2186,8.2186,8.2186,8.2186,8.2186,4.1992,4.291,4.3461,4.3497,4.3497,4.3754,4.4599,4.4085,4.4488,4.6801,4.7094,4.8673,5.2637,5.3702,5.5133,5.7519,0.0,5.6712,5.4289,0.0,5.1646,5.3885,4.6434,4.4488,4.9224,4.3901,4.1075,4.1075,4.0267,4.0267,4.1038,4.0267,4.0781,4.2543,4.6507,4.8343,4.8673,5.2601,5.6051,5.8877,5.8914,6.13,6.4494,0.0,6.2475,6.5375,6.6182,0.0,0.0,6.464,6.4053,0.0,0.0,0.0,6.3356,6.1043,6.2548,6.4127,6.0126,5.9612,5.9098,5.4399,5.3812,5.3739,5.1426,5.205,5.3371,5.4216,5.4987,5.5537,5.5537,5.5537,5.5317,5.4509,5.517,0.0,0.0,5.528,5.6198,0.0,0.0,0.0,0.0,0.0,0.0,0.0,0.0,0.0,7.6974,7.7304,7.7304,7.7304,7.7304,7.7304,7.7304,7.7304,7.7304,7.7304,7.7304,7.7304,7.7378,7.8993,7.9764,7.9837,8.1452,8.215,8.215,8.2186,8.2186,8.2186,8.2186,8.2186,8.2186,8.2186,8.2186,8.2186,4.2575,4.3262,4.3758,4.3529,4.3497,4.3754,4.4599,4.5369,4.6581,0.0,0.0,0.0,0.0,5.4252,5.517,0.0,0.0,5.6418,5.4509,5.2637,0.0,0.0,0.0,4.5443,0.0,4.4232,4.2176,4.1111,4.0855,4.0855,4.1111,4.1368,4.1772,4.2506,4.7095,5.0031,5.1756,5.473,5.7226,5.9318,6.0382,6.2622,6.5264,0.0,6.5118,6.6219,6.699,6.7283,0.0,6.6659,6.5411,6.4237,6.4971,6.3943,6.2695,6.4053,6.4457,6.431,0.0,0.0,6.3943,5.8547,5.7776,5.7336,5.3298,5.2821,5.3445,5.4216,5.5023,5.5574,5.5574,5.5574,5.55,5.5244,5.5427,5.5317,0.0,5.462,0.0,0.0,0.0,0.0,0.0,0.0,0.0,0.0,0.0,0.0,0.0,7.7304,7.7304,7.7304,7.7304,7.7304,7.7304,7.7304,7.7304,7.7304,7.7304,7.7304,7.7378,7.9029,7.98,7.9874,8.1489,8.2186,8.2186,8.2186,8.2186,8.2186,8.2186,8.2186,8.2186,8.2186,8.2186,8.2186,4.3274,4.354,4.3758,4.3566,4.3718,4.4195,4.5002,4.6652,0.0,0.0,5.1332,0.0,5.4663,0.0,5.5464,0.0,5.7226,5.6528,5.4913,5.3849,0.0,5.2931,5.0068,0.0,0.0,4.7058,4.5002,4.3681,4.2506,4.1956,4.1956,4.2176,4.2433,4.2873,4.6617,5.0251,5.3775,5.5904,5.8731,6.1924,6.3246,6.4897,0.0,0.0,6.699,6.6623,0.0,6.8311,6.8531,6.8531,6.7504,6.6512,6.8054,6.6733,6.5044,6.7173,6.7063,6.6219,6.6182,6.6916,0.0,6.1704,6.1117,0.0,5.5611,5.495,5.55,5.6014,5.6051,5.6638,5.8657,5.7629,5.6528,5.6822,5.6161,5.5207,0.0,5.4473,0.0,0.0,0.0,0.0,0.0,0.0,0.0,0.0,0.0,0.0,0.0,0.0,7.7304,7.7304,7.7304,7.7304,7.7304,7.7304,7.7304,7.7304,7.7304,7.7304,7.7378,7.9029,7.98,7.9874,8.1489,8.2186,8.2186,8.2186,8.2186,8.2186,8.2186,8.2186,8.2186,8.2186,8.2186,8.2186,4.4028,4.3795,4.3571,4.3642,4.4195,4.4966,0.0,0.0,4.9445,0.0,5.2047,5.3608,5.5588,5.5757,5.6418,5.796,5.8107,5.7483,5.5941,5.5757,0.0,0.0,5.4656,5.4436,5.6748,0.0,4.9224,4.8379,4.5149,4.3534,4.3534,4.2727,4.2763,4.3571,4.5186,4.9077,5.4509,5.6161,6.0603,6.6623,6.743,6.8164,6.8788,6.8898,6.7981,6.6806,6.8421,6.9449,7.011,7.011,7.011,7.011,7.011,7.011,7.0146,7.0146,7.0183,6.9889,6.8348,6.7944,6.7136,6.3906,6.3686,0.0,0.0,5.8364,5.9465,5.9465,5.8253,5.8841,6.409,6.1263,5.8327,5.8951,5.7042,5.4987,5.3482,5.4583,5.5574,0.0,0.0,0.0,0.0,0.0,0.0,0.0,0.0,0.0,0.0,0.0,7.7157,7.7304,7.7304,7.7304,7.7304,7.7304,7.7304,7.7304,7.7304,7.7304,7.7378,7.9029,7.98,7.9874,8.1489,8.2186,8.2186,8.2186,8.2186,8.2186,8.2186,8.2186,8.2186,8.2186,8.2186,8.2186,4.4595,4.4432,4.4667,4.549,4.4623,4.4672,0.0,0.0,0.0,0.0,5.427,5.5711,5.8033,5.829,5.8694,5.9722,5.9795,0.0,0.0,0.0,0.0,5.9428,5.6602,5.5537,5.6785,5.2674,5.0068,4.9187,4.5957,4.4378,4.4378,4.3571,4.3277,4.3571,4.5186,4.9077,5.4546,5.6748,6.1447,6.7467,6.8274,6.8017,6.732,0.0,6.9155,6.8421,6.9412,6.9926,7.011,7.011,7.011,7.011,7.011,7.0513,7.0991,7.0991,7.1431,7.1798,7.1394,7.1284,7.0624,6.7981,6.7063,6.5962,0.0,0.0,0.0,6.2842,6.2989,6.2842,6.1851,6.0639,5.9061,5.6859,5.55,5.4546,5.4142,5.4436,0.0,5.6345,0.0,0.0,0.0,0.0,0.0,0.0,0.0,0.0,0.0,0.0,0.0,7.7231,7.7304,7.7304,7.7304,7.7304,7.7304,7.7304,7.7304,7.7304,7.7378,7.9029,7.98,7.9874,8.1489,8.2186,8.2186,8.2186,8.2186,8.2186,8.2186,8.2186,8.2186,8.2186,8.2186,8.2186,4.548,4.6001,4.6895,4.8097,4.7909,0.0,4.9455,5.0452,0.0,5.4374,5.6403,0.0,5.8887,5.9656,6.0248,6.0728,6.0525,0.0,5.9391,0.0,0.0,5.9869,5.9171,5.8951,5.9428,5.6161,0.0,5.1646,4.8416,4.6104,4.4672,4.3864,4.3497,4.3571,4.5186,4.8673,5.3702,5.8951,6.3282,6.6806,6.8678,6.9082,0.0,7.011,7.055,7.055,7.0991,7.1138,7.1138,7.1138,7.1138,7.1138,7.1138,7.1468,7.1835,7.1835,7.2165,7.2496,7.2496,7.2496,7.2165,7.0807,7.0146,6.9082,6.6292,6.5668,6.5668,0.0,6.5191,6.4971,0.0,6.2805,5.9245,5.5647,5.4399,5.3885,5.3885,5.4473,0.0,0.0,5.851,0.0,0.0,0.0,0.0,0.0,0.0,0.0,0.0,0.0,0.0,7.7231,7.6644,7.6607,7.7304,7.6607,7.6607,7.7304,7.7304,7.7304,7.7378,7.9029,7.98,7.9874,8.1489,8.2186,8.2186,8.2186,8.2186,8.2186,8.2186,8.2186,8.2186,8.2186,8.2186,8.2186,4.6663,4.8108,4.9664,5.0656,5.2108,0.0,0.0,5.3903,0.0,5.5771,0.0,6.0069,5.9438,6.0547,6.14,6.1512,0.0,6.0162,5.8877,6.075,6.1337,6.0089,6.2034,6.3135,6.3135,6.075,5.796,0.0,5.1389,4.8086,4.4856,4.3938,4.3534,4.3718,4.5223,4.8526,5.3482,6.1777,6.5558,6.6182,6.9082,7.0697,7.1321,7.1431,7.1908,7.2496,7.2496,7.2496,7.2496,7.2496,7.2496,7.2496,7.2496,7.2496,7.2496,7.2496,7.2496,7.2496,7.2496,7.2496,7.2496,7.2496,7.2496,7.1762,6.8972,6.8311,6.8311,6.8311,6.6659,6.6549,0.0,6.5852,5.9612,5.5684,5.4436,5.4179,0.0,0.0,0.0,0.0,0.0,0.0,0.0,0.0,0.0,0.0,0.0,0.0,0.0,0.0,0.0,7.7194,7.5946,7.5873,7.7157,0.0,7.5873,7.7157,7.7268,7.7304,7.7378,7.9029,7.98,7.9874,8.1489,8.2186,8.2186,8.2186,8.2186,8.2186,8.2186,8.2186,8.2186,8.2186,8.2186,8.2186,4.8571,5.0096,5.1479,5.1254,5.3489,5.5788,5.7376,5.7642,5.8131,5.954,6.0818,6.1798,6.2296,6.2245,6.2439,6.3109,6.2714,0.0,0.0,0.0,0.0,6.4237,6.464,6.4861,6.4861,6.2438,5.9612,0.0,5.2491,4.8893,4.5663,4.4195,4.3864,4.4525,4.548,5.0398,5.8253,6.3209,6.6843,6.9376,7.0624,7.1174,7.1394,7.2055,7.2386,7.2496,7.2496,7.2496,7.2496,7.2496,7.2496,7.2496,7.2496,7.2496,7.2496,7.2496,7.2496,7.2496,7.2496,7.2496,7.2496,7.2496,7.2496,7.2349,7.1798,7.1651,7.1651,7.1651,7.1321,7.0513,6.8825,0.0,0.0,5.8914,5.8253,0.0,0.0,0.0,0.0,0.0,0.0,6.3319,0.0,0.0,0.0,0.0,0.0,0.0,0.0,0.0,7.1211,0.0,7.7047,0.0,0.0,0.0,7.6717,7.6313,7.7011,7.7304,7.7378,7.9029,7.98,7.9874,8.1489,8.2186,8.2186,8.2186,8.2186,8.2186,8.2186,8.2186,8.2186,8.2186,8.2186,8.2186,5.2417,0.0,5.4047,0.0,0.0,0.0,0.0,6.1792,6.1963,6.1178,6.1987,6.2856,6.3503,6.3842,6.4475,6.5578,6.4993,6.4809,6.5501,6.5546,6.5589,6.5705,6.5742,6.5583,6.5301,6.4127,6.13,5.6822,0.0,5.0729,4.5883,4.4672,4.4342,4.4856,4.8636,5.3151,5.8327,6.409,0.0,6.9009,7.1101,7.1945,7.1982,7.2349,7.2753,7.312,7.312,7.3377,7.367,7.3266,7.312,7.3193,7.3634,7.3744,7.3744,7.3744,7.345,7.3193,7.3634,7.345,7.312,7.312,7.345,7.3634,7.323,7.345,7.3744,7.3744,7.3744,7.2753,6.9522,6.6623,0.0,0.0,0.0,0.0,0.0,0.0,6.3576,0.0,0.0,0.0,0.0,0.0,0.0,0.0,0.0,0.0,0.0,0.0,7.066,0.0,0.0,0.0,0.0,0.0,0.0,7.6754,7.7121,7.7304,7.7378,7.9029,7.98,7.9874,8.1489,8.2186,8.2186,8.2186,8.2186,8.2186,8.2186,8.2186,8.2186,8.2186,8.2186,8.2186,5.6126,5.6228,0.0,0.0,6.0214,0.0,6.3271,6.5051,6.5282,6.2929,6.3475,6.4296,6.4853,6.5593,6.6442,6.754,6.6783,6.6528,6.7125,6.7085,6.6875,6.6619,6.6519,6.6223,6.5815,6.5815,6.3282,0.0,0.0,5.3041,4.7168,4.5847,4.57,4.6764,5.2417,5.6381,0.0,0.0,6.8091,6.8935,7.1468,7.2606,7.2753,7.2753,7.3266,7.3964,7.3964,7.4368,7.4845,7.4368,7.4111,7.4074,7.4698,7.4918,7.4918,7.4918,7.4441,7.4074,7.4735,7.4441,7.3964,7.3964,7.4441,7.4735,7.4111,7.4441,7.4918,7.4918,7.4918,7.3927,7.0697,6.8715,0.0,0.0,0.0,0.0,0.0,0.0,6.6769,0.0,0.0,0.0,6.3796,0.0,0.0,0.0,0.0,0.0,7.1174,0.0,0.0,0.0,0.0,7.5175,7.6276,0.0,7.5983,7.7047,7.7231,7.7304,7.7378,7.9029,7.98,7.9874,8.1489,8.2186,8.2186,8.2186,8.2186,8.2186,8.2186,8.2186,8.2186,8.2186,8.2186,8.2186,0.0,0.0,0.0,0.0,0.0,0.0,6.432,6.5897,6.6898,6.6602,6.6667,6.7051,6.7883,6.7615,6.7469,6.7578,6.7125,6.7162,6.7956,6.7535,6.7597,6.825,6.7825,6.752,6.7467,6.7467,6.5742,0.0,0.0,5.5611,5.1353,4.8306,4.8857,5.2527,5.5354,0.0,0.0,6.71,6.9376,7.2092,7.2386,7.2936,7.3597,7.3597,7.4074,7.4808,7.4808,7.4845,7.5028,7.5652,7.5395,7.4808,7.4882,7.4918,7.4918,7.4918,7.4845,7.4808,7.4882,7.4845,7.4808,7.4808,7.4845,7.4882,7.4808,7.4845,7.4918,7.4918,7.4918,7.3927,7.0697,7.2826,7.3193,0.0,0.0,0.0,0.0,0.0,6.7577,7.0513,0.0,0.0,0.0,0.0,0.0,0.0,6.4457,0.0,0.0,0.0,0.0,7.3927,0.0,7.3523,7.2973,7.5689,7.679,7.624,7.6974,7.7304,7.7378,7.9029,7.98,7.9874,8.1489,8.2186,8.2186,8.2186,8.2186,8.2186,8.2186,8.2186,8.2186,8.2186,8.2186,8.2186,0.0,0.0,0.0,0.0,0.0,0.0,0.0,6.7436,6.809,6.859,6.8205,6.8205,6.909,6.8671,6.8629,6.9519,6.9103,6.9081,6.9731,6.9281,6.9013,6.8978,6.891,6.8735,6.8421,6.8898,6.754,0.0,0.0,0.0,5.3408,5.2087,5.3665,5.7666,6.1117,6.4347,6.7357,6.9633,7.1615,7.323,7.323,7.3707,7.4441,7.4441,7.4918,7.5616,7.5616,7.5946,7.6423,7.6717,7.6313,7.5726,7.6203,7.635,7.635,7.635,7.6019,7.5726,7.624,7.5983,7.5616,7.5616,7.5983,7.624,7.5726,7.6019,7.635,7.635,7.635,7.5983,7.4661,7.4147,7.3744,7.312,0.0,0.0,0.0,0.0,7.3487,7.4771,7.2606,7.0807,0.0,0.0,0.0,0.0,0.0,0.0,0.0,0.0,0.0,7.077,0.0,7.5028,7.323,7.5946,7.7157,7.6827,7.7157,7.7304,7.7378,7.9029,8.0314,8.1269,8.1929,8.2186,8.2186,8.2186,8.2186,8.2186,8.2186,8.2186,8.2186,8.2186,8.2186,8.2186,6.4359,0.0,6.3474,0.0,6.5628,6.5705,6.8359,6.8783,6.909,6.9937,6.9513,6.936,6.9975,6.9643,6.9842,7.0794,7.0784,7.0776,7.1006,7.0739,7.0346,6.9778,6.9788,0.0,6.9265,6.9816,6.8972,6.6733,6.3686,0.0,5.7593,5.6859,5.8547,0.0,6.5448,6.7687,6.9265,7.1541,7.2973,7.3707,7.3707,7.4331,7.5249,7.5249,7.5763,7.646,7.646,7.6827,7.7304,7.7304,7.6937,7.657,7.7157,7.7304,7.7304,7.7304,7.69,7.6607,7.7157,7.69,7.646,7.646,7.69,7.7157,7.6607,7.69,7.7304,7.7304,7.7304,7.7304,7.7304,7.5469,7.4368,7.5689,0.0,0.0,0.0,7.5909,7.5909,7.5909,7.4001,7.2642,7.2532,6.8274,0.0,0.0,0.0,0.0,0.0,0.0,0.0,0.0,0.0,0.0,7.3707,7.6093,7.7304,7.7304,7.7304,7.7304,7.7378,7.9029,8.0681,8.2186,8.2186,8.2186,8.2186,8.2186,8.2186,8.2186,8.2186,8.2186,8.2186,8.2186,8.2186,8.2186,6.6898,6.7051,6.7321,6.8205,6.8359,6.8629,6.9552,6.9667,6.9975,7.0783,7.0898,7.086,7.0898,7.0898,7.0898,7.0898,7.1668,7.1918,7.1315,7.1596,7.1507,0.0,0.0,7.0073,7.0073,7.011,7.0073,7.0036,0.0,0.0,6.5118,6.2658,6.3282,6.6476,6.7283,6.9449,7.2459,7.2496,7.2973,7.3707,7.3707,7.4661,7.6093,7.6093,7.6607,7.7304,7.7304,7.7304,7.7304,7.7304,7.7304,7.7304,7.7304,7.7304,7.7304,7.7304,7.7304,7.7304,7.7304,7.7304,7.7304,7.7304,7.7304,7.7304,7.7304,7.7304,7.7304,7.7304,7.7304,7.7304,7.7304,7.7304,7.624,7.3083,0.0,0.0,7.301,7.2569,7.2569,7.2569,6.6182,6.4604,7.1798,6.5228,0.0,0.0,0.0,0.0,0.0,0.0,0.0,7.3523,7.3707,0.0,7.3707,7.6093,7.7304,7.7304,7.7304,7.7304,7.7378,7.9029,8.0681,8.2186,8.2186,8.2186,8.2186,8.2186,8.2186,8.2186,8.2186,8.2186,8.2186,8.2186,8.2186,8.2186,6.7936,6.7975,6.8244,6.9129,6.9283,6.9552,7.0398,7.1014,7.1514,7.1745,7.2283,7.2668,7.2668,7.2129,7.2014,0.0,7.2937,7.2996,0.0,7.2494,7.2244,7.209,7.2078,7.2099,7.2099,7.2261,7.234,7.234,0.0,0.0,0.0,6.6109,6.7467,7.0624,7.1431,7.2349,7.334,7.3891,7.4588,7.5322,7.5322,7.5983,7.6937,7.6937,7.7084,7.7304,7.7304,7.7304,7.7304,7.7304,7.7304,7.7304,7.7304,7.7304,7.7304,7.7304,7.7304,7.7304,7.7304,7.7304,7.7304,7.7304,7.7304,7.7304,7.7304,7.7304,7.7304,7.7304,7.7304,7.7304,7.7304,7.7304,7.6974,7.5946,7.6644,0.0,7.5946,7.5799,7.5799,7.5799,7.3744,7.323,0.0,7.1468,0.0,0.0,0.0,0.0,0.0,0.0,0.0,0.0,7.4147,0.0,7.3707,7.6093,7.7304,7.7304,7.7304,7.7928,7.9029,8.0131,8.1195,8.2186,8.2186,8.2186,8.2186,8.2186,8.2186,8.2186,8.2186,8.2186,8.2186,8.2186,8.2186,8.2186,6.936,6.936,6.9629,7.0475,7.0629,7.0937,7.1745,7.2322,7.2706,7.2706,7.3168,7.363,7.3937,7.3476,0.0,7.3476,7.3783,7.388,7.3691,7.3586,7.3455,7.327,7.3408,7.3463,7.3463,7.3437,0.0,7.3391,7.0786,6.9669,6.9926,6.9926,7.1174,7.3413,7.3927,7.4147,7.4184,7.4698,7.5359,7.6093,7.6093,7.6607,7.7304,7.7304,7.7304,7.7304,7.7304,7.7304,7.7304,7.7304,7.7304,7.7304,7.7304,7.7304,7.7304,7.7304,7.7304,7.7304,7.7304,7.7304,7.7304,7.7304,7.7304,7.7304,7.7304,7.7304,7.7304,7.7304,7.7304,7.7304,7.7304,7.7304,7.7304,7.7304,7.7304,7.7304,7.7304,7.7304,7.6864,7.5652,7.5506,0.0,0.0,7.367,7.2165,0.0,0.0,0.0,0.0,0.0,0.0,7.2055,7.5469,0.0,7.5065,7.657,7.7304,7.7304,7.7635,7.8479,7.98,8.0645,8.1452,8.2186,8.2186,8.2186,8.2186,8.2186,8.2186,8.2186,8.2186,8.2186,8.2186,8.2186,8.2186,8.2186,7.0975,7.0975,7.1283,0.0,7.2283,0.0,7.3399,7.3553,7.3591,7.3591,7.363,7.3976,7.4707,7.4784,7.4476,7.3745,0.0,0.0,0.0,7.4781,7.4943,7.4422,7.4422,7.446,7.4497,7.3869,7.3553,7.3527,7.2945,7.3046,7.378,7.378,7.4184,7.4918,7.4955,7.4992,7.4992,7.5065,7.5506,7.6166,7.6166,7.6644,7.7304,7.7304,7.7304,7.7304,7.7304,7.7304,7.7304,7.7304,7.7304,7.7304,7.7304,7.7304,7.7304,7.7304,7.7304,7.7304,7.7304,7.7304,7.7304,7.7304,7.7304,7.7304,7.7304,7.7304,7.7304,7.7304,7.7304,7.7304,7.7304,7.7304,7.7304,7.7304,7.7304,7.7304,7.7304,7.7304,7.6203,7.3193,0.0,0.0,0.0,7.2826,7.4001,0.0,0.0,0.0,0.0,0.0,7.0881,7.7121,7.7304,7.7304,7.7304,7.7304,7.7304,7.7341,7.8259,7.9066,7.98,8.0681,8.1489,8.2186,8.2186,8.2186,8.2186,8.2186,8.2186,8.2186,8.2186,8.2186,8.2186,8.2186,8.2186,8.2186,0.0,0.0,7.2168,7.3053,7.3206,7.3283,7.3476,7.4014,7.4437,7.4437,7.5014,7.5476,7.5668,7.5707,7.563,7.5438,7.5592,7.5639,7.5511,7.5672,7.5718,7.5622,7.5622,7.5929,7.658,7.5535,7.4836,7.4527,7.439,7.4441,7.4625,7.4625,7.4735,7.4955,7.5542,7.5836,7.5873,7.6497,7.6864,7.7047,7.7047,7.7157,7.7304,7.7304,7.7304,7.7304,7.7304,7.7304,7.7304,7.7304,7.7304,7.7304,7.7304,7.7304,7.7304,7.7304,7.7304,7.7304,7.7304,7.7304,7.7304,7.7304,7.7304,7.7304,7.7304,7.7304,7.7304,7.7304,7.7304,7.7304,7.7304,7.7304,7.7304,7.7304,7.7304,7.7304,7.7304,7.7304,7.7047,7.6276,7.6166,7.6166,7.6166,7.6166,7.5469,0.0,0.0,0.0,7.3634,7.2202,7.3193,7.7194,7.7304,7.7304,7.7304,7.7304,7.7304,7.7341,7.8809,7.9617,7.9837,8.1269,8.2003,8.2186,8.2186,8.2186,8.2186,8.2186,8.2186,8.2186,8.2186,8.2186,8.2186,8.2186,8.2186,8.2186,7.2706,7.2783,7.3053,7.3899,7.4053,7.4168,7.4591,7.5014,7.5284,7.5284,7.5707,7.6015,7.6015,7.6361,7.6592,7.6592,7.6245,7.6169,7.6553,7.6592,7.6746,7.713,7.713,7.7361,7.7823,7.6959,7.6248,7.5761,7.5761,7.5984,7.6303,7.6014,7.6068,7.6474,7.6604,7.6644,7.668,7.7121,7.7304,7.7304,7.7304,7.7304,7.7304,7.7304,7.7304,7.7304,7.7304,7.7304,7.7304,7.7304,7.7304,7.7304,7.7304,7.7304,7.7304,7.7304,7.7304,7.7304,7.7304,7.7304,7.7304,7.7304,7.7304,7.7304,7.7304,7.7304,7.7304,7.7304,7.7304,7.7304,7.7304,7.7304,7.7304,7.7304,7.7304,7.7304,7.7304,7.7304,7.7304,7.7304,7.7304,7.7304,7.7304,7.7304,7.6607,7.4845,7.4698,0.0,7.4698,7.4698,7.5506,7.7268,7.7304,7.7304,7.7304,7.7304,7.7304,7.7341,7.8993,7.98,7.9837,8.1452,8.2186,8.2186,8.2186,8.2186,8.2186,8.2186,8.2186,8.2186,8.2186,8.2186,8.2186,8.2186,8.2186,8.2186,7.3668,7.3668,7.3937,7.4745,7.4899,7.5168,7.5899,7.6015,7.6015,7.6015,7.6092,7.6207,7.6207,7.6976,7.7476,7.7476,7.6784,7.6669,7.7438,7.7476,7.7784,7.8477,7.8477,7.8554,7.8669,7.8282,7.7756,7.713,7.713,7.7508,7.8179,7.7554,7.7638,7.8255,7.7629,7.7304,7.7304,7.7304,7.7304,7.7304,7.7304,7.7304,7.7304,7.7304,7.7304,7.7304,7.7304,7.7304,7.7304,7.7304,7.7304,7.7304,7.7304,7.7304,7.7304,7.7304,7.7304,7.7304,7.7304,7.7304,7.7304,7.7304,7.7304,7.7304,7.7304,7.7304,7.7304,7.7304,7.7304,7.7304,7.7304,7.7304,7.7194,7.6827,7.7084,7.7194,7.6827,7.7084,7.7304,7.7304,7.7304,7.7304,7.7304,7.7304,7.7304,7.7304,7.7304,7.7304,7.7304,7.7304,7.7304,7.7304,7.7304,7.7304,7.7304,7.7304,7.7304,7.7341,7.8993,7.98,7.9837,8.1452,8.2186,8.2186,8.2186,8.2186,8.2186,8.2186,8.2186,8.2186,8.2186,8.2186,8.2186,8.2186,8.2186,8.2186,7.4399,7.4514,7.4784,7.5668,7.5784,7.5822,7.5976,7.6015,7.6015,7.6015,7.663,7.7092,7.7092,7.7823,7.8284,7.8284,7.8169,7.8169,7.8284,7.8284,7.8361,7.8477,7.8477,7.8823,7.9592,7.9698,7.9426,7.8821,7.8821,7.8896,7.901,7.8364,7.8197,7.8255,7.7629,7.7304,7.7304,7.7304,7.7304,7.7304,7.7304,7.7304,7.7304,7.7304,7.7304,7.7304,7.7304,7.7304,7.7304,7.7304,7.7304,7.7304,7.7304,7.7304,7.7304,7.7304,7.7304,7.7304,7.7304,7.7304,7.7304,7.7304,7.7304,7.7304,7.7304,7.7304,7.7304,7.7304,7.7304,7.7304,7.7304,7.7304,7.6644,7.4588,7.5983,7.6607,7.4551,7.6019,7.7304,7.7304,7.7304,7.7304,7.7304,7.7304,7.7304,7.7304,7.7304,7.7304,7.7304,7.7304,7.7304,7.7304,7.7304,7.7304,7.7304,7.7304,7.7304,7.7341,7.8993,7.98,7.9837,8.1452,8.2186,8.2186,8.2186,8.2186,8.2186,8.2186,8.2186,8.2186,8.2186,8.2186,8.2186,8.2186,8.2186,8.2186,7.5322,7.5399,7.5515,7.5938,7.6015,7.6015,7.6015,7.6015,7.6169,7.663,7.7053,7.7476,7.79,7.8707,7.9208,7.9208,7.9631,7.99,7.99,7.9477,7.94,7.9862,7.99,8.0092,8.0477,8.0591,8.0499,8.024,8.024,8.024,8.0201,7.9198,7.8804,7.8754,7.7731,7.7304,7.7304,7.7304,7.7304,7.7304,7.7304,7.7304,7.7304,7.7304,7.7304,7.7304,7.7304,7.7304,7.7304,7.7304,7.7304,7.7304,7.7304,7.7304,7.7304,7.7304,7.7304,7.7304,7.7304,7.7304,7.7304,7.7304,7.7304,7.7304,7.7304,7.7304,7.7304,7.7304,7.7304,7.7304,7.7304,7.7304,7.6974,7.5836,7.657,7.6937,7.5799,7.6607,7.7304,7.7304,7.7304,7.7304,7.7304,7.7304,7.7304,7.7304,7.7304,7.7304,7.7304,7.7304,7.7304,7.7304,7.7304,7.7304,7.7304,7.7304,7.7304,7.7341,7.8993,7.98,7.9837,8.1452,8.2186,8.2186,8.2186,8.2186,8.2186,8.2186,8.2186,8.2186,8.2186,8.2186,8.2186,8.2186,8.2186,8.2186,7.6015,7.6015,7.6015,7.6015,7.6015,7.6053,7.6284,7.6284,7.6592,7.7476,7.7746,7.813,7.8707,7.9592,8.0092,8.0092,8.0708,8.1093,8.1093,8.0477,8.04,8.1054,8.1093,8.1093,8.1093,8.1093,8.1093,8.1093,8.1093,8.1093,8.1061,7.9806,7.9198,7.9152,7.7903,7.7304,7.7304,7.7304,7.7304,7.7304,7.7304,7.7304,7.7304,7.7304,7.7304,7.7304,7.7304,7.7304,7.7304,7.7304,7.7304,7.7304,7.7304,7.7304,7.7304,7.7304,7.7304,7.7304,7.7304,7.7304,7.7304,7.7304,7.7304,7.7304,7.7304,7.7304,7.7304,7.7304,7.7304,7.7304,7.7304,7.7304,7.7157,7.657,7.6937,7.7121,7.657,7.6974,7.7304,7.7304,7.7304,7.7304,7.7304,7.7304,7.7304,7.7304,7.7304,7.7304,7.7304,7.7304,7.7304,7.7304,7.7304,7.7304,7.7304,7.7304,7.7304,7.7341,7.8993,7.98,7.9837,8.1452,8.2186,8.2186,8.2186,8.2186,8.2186,8.2186,8.2186,8.2186,8.2186,8.2186,8.2186,8.2186,8.2186,8.2186,7.6015,7.6015,7.6015,7.6015,7.6015,7.6284,7.7092,7.7207,7.7476,7.8284,7.9092,7.9631,7.9708,8.0477,8.1016,8.1016,8.1054,8.1093,8.1093,8.1054,8.1016,8.1093,8.1093,8.1093,8.1093,8.1093,8.1093,8.1093,8.1093,8.1093,8.1061,7.9806,7.9198,7.9152,7.7903,7.7304,7.7304,7.7304,7.7304,7.7304,7.7304,7.7304,7.7304,7.7304,7.7304,7.7304,7.7304,7.7304,7.7304,7.7304,7.7304,7.7304,7.7304,7.7304,7.7304,7.7304,7.7304,7.7304,7.7304,7.7304,7.7304,7.7304,7.7304,7.7304,7.7304,7.7304,7.7304,7.7304,7.7304,7.7304,7.7304,7.7304,7.657,7.4331,7.5836,7.6533,7.4294,7.5909,7.7304,7.7304,7.7304,7.7304,7.7304,7.7304,7.7304,7.7304,7.7304,7.7304,7.7304,7.7304,7.7304,7.7304,7.7304,7.7304,7.7304,7.7304,7.7304,7.7341,7.8993,7.98,7.9837,8.1452,8.2186,8.2186,8.2186,8.2186,8.2186,8.2186,8.2186,8.2186,8.2186,8.2186,8.2186,8.2186,8.2186,8.2186,7.6015,7.6438,7.6823,7.6823,7.7207,7.7669,7.7977,7.8015,7.8361,7.9208,7.9592,8.0015,8.0554,8.09,8.1093,8.1093,8.1093,8.1093,8.1093,8.1093,8.1093,8.1093,8.1093,8.1093,8.1093,8.1093,8.1093,8.1093,8.1093,8.1093,8.1093,8.0163,7.9556,7.9152,7.8325,7.771,7.7304,7.7304,7.7304,7.7304,7.7304,7.7304,7.7304,7.7304,7.7304,7.7304,7.7304,7.7304,7.7304,7.7304,7.7304,7.7304,7.7304,7.7304,7.7304,7.7304,7.7304,7.7304,7.7304,7.7304,7.7304,7.7304,7.7304,7.7304,7.7304,7.7304,7.7304,7.7304,7.7304,7.7304,7.7304,7.7304,7.7011,7.6093,7.6717,7.7011,7.6056,7.6754,7.7304,7.7304,7.7304,7.7304,7.7304,7.7304,7.7304,7.7304,7.7304,7.7304,7.7304,7.7304,7.7304,7.7304,7.7304,7.7304,7.7304,7.7304,7.7304,7.7341,7.8993,7.98,7.9837,8.1452,8.2186,8.2186,8.2186,8.2186,8.2186,8.2186,8.2186,8.2186,8.2186,8.2186,8.2186,8.2186,8.2186,8.2186,7.6746,7.7284,7.7669,7.7669,7.813,7.8592,7.8861,7.89,7.9208,8.0092,8.0208,8.0439,8.1016,8.1093,8.1093,8.1093,8.1093,8.1093,8.1093,8.1093,8.1093,8.1093,8.1093,8.1093,8.1093,8.1093,8.1093,8.1093,8.1093,8.1093,8.1093,8.0389,7.9806,7.9198,7.8588,7.7903,7.7304,7.7304,7.7304,7.7304,7.7304,7.7304,7.7304,7.7304,7.7304,7.7304,7.7304,7.7304,7.7304,7.7304,7.7304,7.7304,7.7304,7.7304,7.7304,7.7304,7.7304,7.7304,7.7304,7.7304,7.7304,7.7304,7.7304,7.7304,7.7304,7.7304,7.7304,7.7304,7.7304,7.7304,7.7304,7.7304,7.7304,7.7304,7.7304,7.7304,7.7304,7.7304,7.7304,7.7304,7.7304,7.7304,7.7304,7.7304,7.7304,7.7304,7.7304,7.7304,7.7304,7.7304,7.7304,7.7304,7.7304,7.7304,7.7304,7.7304,7.7304,7.7341,7.8993,7.98,7.9837,8.1452,8.2186,8.2186,8.2186,8.2186,8.2186,8.2186,8.2186,8.2186,8.2186,8.2186,8.2186,8.2186,8.2186,8.2186,7.8323,7.8515,7.8515,7.8515,7.8515,7.8823,7.9669,7.9823,8.0131,8.0977,8.1093,8.1093,8.1093,8.1093,8.1093,8.1093,8.1093,8.1093,8.1093,8.1093,8.1093,8.1093,8.1093,8.1093,8.1093,8.1093,8.1093,8.1093,8.1093,8.1093,8.1093,8.0427,7.9768,7.9198,7.8551,7.7903,7.7304,7.7304,7.7304,7.7304,7.7304,7.7304,7.7304,7.7304,7.7304,7.7304,7.7304,7.7304,7.7304,7.7304,7.7304,7.7304,7.7304,7.7304,7.7304,7.7304,7.7304,7.7304,7.7304,7.7304,7.7304,7.7304,7.7304,7.7304,7.7304,7.7304,7.7304,7.7304,7.7304,7.7304,7.7304,7.7304,7.7304,7.7304,7.7304,7.7304,7.7304,7.7304,7.7304,7.7304,7.7304,7.7304,7.7304,7.7304,7.7304,7.7304,7.7304,7.7304,7.7304,7.7304,7.7304,7.7304,7.7304,7.7304,7.7304,7.7304,7.7304,7.7341,7.8993,7.98,7.9837,8.1452,8.2186,8.2186,8.2186,8.2186,8.2186,8.2186,8.2186,8.2186,8.2186,8.2186,8.2186,8.2186,8.2186,8.2186,7.8438,7.8977,7.94,7.94,7.9939,8.04,8.0669,8.0708,8.0823,8.1054,8.1093,8.1093,8.1093,8.1093,8.1093,8.1093,8.1093,8.1093,8.1093,8.1093,8.1093,8.1093,8.1093,8.1093,8.1093,8.1093,8.1093,8.1093,8.1093,8.1093,8.1093,8.0888,8.024,7.9198,7.901,7.8288,7.7304,7.7304,7.7304,7.7304,7.7304,7.7304,7.7304,7.7304,7.7304,7.7304,7.7304,7.7304,7.7304,7.7304,7.7304,7.7304,7.7304,7.7304,7.7304,7.7304,7.7304,7.7304,7.7304,7.7304,7.7304,7.7304,7.7304,7.7304,7.7304,7.7304,7.7304,7.7304,7.7304,7.7304,7.7304,7.7304,7.7304,7.7304,7.7304,7.7304,7.7304,7.7304,7.7304,7.7304,7.7304,7.7304,7.7304,7.7304,7.7304,7.7304,7.7304,7.7304,7.7304,7.7304,7.7304,7.7304,7.7304,7.7304,7.7304,7.7304,7.7304,7.7341,7.8993,7.98,7.9837,8.1452,8.2186,8.2186,8.2186,8.2186,8.2186,8.2186,8.2186,8.2186,8.2186,8.2186,8.2186,8.2186,8.2186,8.2186,7.9438,7.9939,8.0323,8.0323,8.0746,8.1093,8.1093,8.1093,8.1093,8.1093,8.1093,8.1093,8.1093,8.1093,8.1093,8.1093,8.1093,8.1093,8.1093,8.1093,8.1093,8.1093,8.1093,8.1093,8.1093,8.1093,8.1093,8.1093,8.1093,8.1093,8.1093,8.1093,8.0573,7.9556,7.9556,7.901,7.8053,7.8053,7.8053,7.8035,7.7789,7.771,7.7651,7.7426,7.7304,7.7304,7.7304,7.7304,7.7304,7.7304,7.7304,7.7304,7.7304,7.7304,7.7304,7.7304,7.7304,7.7304,7.7304,7.7304,7.7304,7.7304,7.7304,7.7304,7.7304,7.7304,7.7304,7.7304,7.7304,7.7304,7.7304,7.7304,7.7304,7.7304,7.7304,7.7304,7.7304,7.7304,7.7304,7.7304,7.7304,7.7304,7.7304,7.7304,7.7304,7.7304,7.7304,7.7304,7.7304,7.7304,7.7304,7.7304,7.7304,7.7304,7.7304,7.7304,7.7304,7.7341,7.8993,7.98,7.9837,8.1452,8.2186,8.2186,8.2186,8.2186,8.2186,8.2186,8.2186,8.2186,8.2186,8.2186,8.2186,8.2186,8.2186,8.2186,8.0939,8.1093,8.1093,8.1093,8.1093,8.1093,8.1093,8.1093,8.1093,8.1093,8.1093,8.1093,8.1093,8.1093,8.1093,8.1093,8.1093,8.1093,8.1093,8.1093,8.1093,8.1093,8.1093,8.1093,8.1093,8.1093,8.1093,8.1093,8.1093,8.1093,8.1093,8.1093,8.075,8.0125,8.0125,7.9727,7.9198,7.9198,7.9198,7.9152,7.8602,7.8363,7.8255,7.7592,7.7365,7.7304,7.7304,7.7304,7.7304,7.7304,7.7304,7.7304,7.7304,7.7304,7.7304,7.7304,7.7304,7.7304,7.7304,7.7304,7.7304,7.7304,7.7304,7.7304,7.7304,7.7304,7.7304,7.7304,7.7304,7.7304,7.7304,7.7304,7.7304,7.7304,7.7304,7.7304,7.7304,7.7304,7.7304,7.7304,7.7304,7.7304,7.7304,7.7304,7.7304,7.7304,7.7304,7.7304,7.7304,7.7304,7.7304,7.7304,7.7304,7.7304,7.7304,7.7304,7.7304,7.7341,7.8919,7.9727,7.9837,8.1379,8.2113,8.2186,8.2186,8.2186,8.2186,8.2186,8.2186,8.2186,8.2186,8.2186,8.2186,8.2186,8.2186,8.2186,8.1054,8.1093,8.1093,8.1093,8.1093,8.1093,8.1093,8.1093,8.1093,8.1093,8.1093,8.1093,8.1093,8.1093,8.1093,8.1093,8.1093,8.1093,8.1093,8.1093,8.1093,8.1093,8.1093,8.1093,8.1093,8.1093,8.1093,8.1093,8.1093,8.1093,8.1093,8.1093,8.075,8.0125,8.0125,7.9727,7.9198,7.9198,7.9198,7.9198,7.9058,7.8704,7.8309,7.8146,7.7768,7.7304,7.7304,7.7304,7.7304,7.7304,7.7304,7.7304,7.7304,7.7304,7.7304,7.7304,7.7304,7.7304,7.7304,7.7304,7.7304,7.7304,7.7304,7.7304,7.7304,7.7304,7.7304,7.7304,7.7304,7.7304,7.7304,7.7304,7.7304,7.7304,7.7304,7.7304,7.7304,7.7304,7.7304,7.7304,7.7304,7.7304,7.7304,7.7304,7.7304,7.7304,7.7304,7.7304,7.7304,7.7304,7.7304,7.7304,7.7304,7.7304,7.7304,7.7304,7.7304,7.7341,7.8369,7.9176,7.98,8.0791,8.1599,8.2186,8.2186,8.2186,8.2186,8.2186,8.2186,8.2186,8.2186,8.2186,8.2186,8.2186,8.2186,8.2186,8.1093,8.1093,8.1093,8.1093,8.1093,8.1093,8.1093,8.1093,8.1093,8.1093,8.1093,8.1093,8.1093,8.1093,8.1093,8.1093,8.1093,8.1093,8.1093,8.1093,8.1093,8.1093,8.1093,8.1093,8.1093,8.1093,8.1093,8.1093,8.1093,8.1093,8.1093,8.1093,8.0888,8.0573,8.0573,8.0427,8.0086,8.0086,8.0086,8.0086,7.9765,7.9425,7.9105,7.8536,7.809,7.771,7.7426,7.7304,7.7304,7.7304,7.7304,7.7304,7.7304,7.7304,7.7304,7.7304,7.7304,7.7304,7.7304,7.7304,7.7304,7.7304,7.7304,7.7304,7.7304,7.7304,7.7304,7.7304,7.7304,7.7304,7.7304,7.7304,7.7304,7.7304,7.7304,7.7304,7.7304,7.7304,7.7304,7.7304,7.7304,7.7304,7.7304,7.7304,7.7304,7.7304,7.7304,7.7304,7.7304,7.7304,7.7304,7.7304,7.7304,7.7304,7.7304,7.7304,7.7304,7.7341,7.8589,7.9396,7.9837,8.1012,8.1782,8.2186,8.2186,8.2186,8.2186,8.2186,8.2186,8.2186,8.2186,8.2186,8.2186,8.2186,8.2186,8.2186,8.1093,8.1093,8.1093,8.1093,8.1093,8.1093,8.1093,8.1093,8.1093,8.1093,8.1093,8.1093,8.1093,8.1093,8.1093,8.1093,8.1093,8.1093,8.1093,8.1093,8.1093,8.1093,8.1093,8.1093,8.1093,8.1093,8.1093,8.1093,8.1093,8.1093,8.1093,8.1093,8.1093,8.1093,8.1093,8.1093,8.1093,8.1093,8.1093,8.1061,8.0499,8.0201,7.9969,7.9,7.8484,7.82,7.7651,7.7426,7.7304,7.7304,7.7304,7.7304,7.7304,7.7304,7.7304,7.7304,7.7304,7.7304,7.7304,7.7304,7.7304,7.7304,7.7304,7.7304,7.7304,7.7304,7.7304,7.7304,7.7304,7.7304,7.7304,7.7304,7.7304,7.7304,7.7304,7.7304,7.7304,7.7304,7.7304,7.7304,7.7304,7.7304,7.7304,7.7304,7.7304,7.7304,7.7304,7.7304,7.7304,7.7304,7.7304,7.7304,7.7304,7.7304,7.7304,7.7304,7.7304,7.7341,7.8993,7.98,7.9837,8.1305,8.2076,8.2186,8.2186,8.2186,8.2186,8.2186,8.2186,8.2186,8.2186,8.2186,8.2186,8.2186,8.2186,8.2186,8.1093,8.1093,8.1093,8.1093,8.1093,8.1093,8.1093,8.1093,8.1093,8.1093,8.1093,8.1093,8.1093,8.1093,8.1093,8.1093,8.1093,8.1093,8.1093,8.1093,8.1093,8.1093,8.1093,8.1093,8.1093,8.1093,8.1093,8.1093,8.1093,8.1093,8.1093,8.1093,8.1093,8.1093,8.1093,8.1093,8.1093,8.1093,8.1093,8.1093,8.0991,8.0608,8.0048,7.9929,7.9198,7.8309,7.82,7.7826,7.7304,7.7304,7.7304,7.7304,7.7304,7.7304,7.7304,7.7304,7.7304,7.7304,7.7304,7.7304,7.7304,7.7304,7.7304,7.7304,7.7304,7.7304,7.7304,7.7304,7.7304,7.7304,7.7304,7.7304,7.7304,7.7304,7.7304,7.7304,7.7304,7.7304,7.7304,7.7304,7.7304,7.7304,7.7304,7.7304,7.7304,7.7304,7.7304,7.7304,7.7304,7.7304,7.7304,7.7304,7.7304,7.7304,7.7304,7.7304,7.7304,7.7341,7.8993,7.98,7.98,8.0755,8.1525,8.2186,8.2186,8.2186,8.2186,8.2186,8.2186,8.2186,8.2186,8.2186,8.2186,8.2186,8.2186,8.2186,8.1093,8.1093,8.1093,8.1093,8.1093,8.1093,8.1093,8.1093,8.1093,8.1093,8.1093,8.1093,8.1093,8.1093,8.1093,8.1093,8.1093,8.1093,8.1093,8.1093,8.1093,8.1093,8.1093,8.1093,8.1093,8.1093,8.1093,8.1093,8.1093,8.1093,8.1093,8.1093,8.1093,8.1093,8.1093,8.1093,8.1093,8.1093,8.1093,8.1093,8.1093,8.0888,8.0608,8.0239,7.9556,7.8704,7.7979,7.757,7.7304,7.7304,7.7304,7.7304,7.7304,7.7304,7.7304,7.7304,7.7304,7.7304,7.7304,7.7304,7.7304,7.7304,7.7304,7.7304,7.7304,7.7304,7.7304,7.7304,7.7304,7.7304,7.7304,7.7304,7.7304,7.7304,7.7304,7.7304,7.7304,7.7304,7.7304,7.7304,7.7304,7.7304,7.7304,7.7304,7.7304,7.7304,7.7304,7.7304,7.7304,7.7304,7.7304,7.7304,7.7304,7.7304,7.7304,7.7304,7.7304,7.7341,7.8993,7.98,7.9837,8.1085,8.1856,8.2186,8.2186,8.2186,8.2186,8.2186,8.2186,8.2186,8.2186,8.2186,8.2186,8.2186,8.2186,8.2186]},{"header":{"parameterUnit":"m.s-1","parameterCategory":1,"la1":30.6,"la2":28.766,"lo1":-90.7593,"lo2":-88.6598,"dx":0.0162,"dy":0.0183,"nx":116,"ny":114,"refTime":"2022-12-12T18:00:00:Z","depth":0,"parameterNumber":3,"parameterNumberName":"V-component_of_WINDS"},"data":[0.0,0.0,0.0,0.0,0.0,0.0,0.0,0.0,0.0,0.0,0.0,0.0,0.0,0.0,0.0,0.0,0.0,0.0,0.0,0.0,0.0,0.0,0.0,0.0,0.0,0.0,0.0,0.0,0.0,0.0,0.0,0.0,0.0,0.0,0.0,0.0,0.0,0.0,0.0,0.0,0.0,0.0,0.0,0.0,0.0,0.0,0.0,0.0,0.0,0.0,0.0,0.0,0.0,0.0,0.0,0.0,0.0,0.0,0.0,0.0,0.0,0.0,0.0,0.0,0.0,0.0,0.0,0.0,0.0,0.0,0.0,0.0,0.0,0.0,0.0,0.0,0.0,0.0,0.0,0.0,0.0,0.0,0.0,0.0,0.0,0.0,0.0,0.0,0.0,0.0,0.0,0.0,0.0,0.0,0.0,0.0,0.0,0.0,0.0,0.0,0.0,0.0,0.0,0.0,0.0,0.0,0.0,0.0,0.0,0.0,0.0,0.0,0.0,0.0,0.0,0.0,0.0,0.0,0.0,0.0,0.0,0.0,0.0,0.0,0.0,0.0,0.0,0.0,0.0,0.0,0.0,0.0,0.0,0.0,0.0,0.0,0.0,0.0,0.0,0.0,0.0,0.0,0.0,0.0,0.0,0.0,0.0,0.0,0.0,0.0,0.0,0.0,0.0,0.0,0.0,0.0,0.0,0.0,0.0,0.0,0.0,0.0,0.0,0.0,0.0,0.0,0.0,0.0,0.0,0.0,0.0,0.0,0.0,0.0,0.0,0.0,0.0,0.0,0.0,0.0,0.0,0.0,0.0,0.0,0.0,0.0,0.0,0.0,0.0,0.0,0.0,0.0,0.0,0.0,0.0,0.0,0.0,0.0,0.0,0.0,0.0,0.0,0.0,0.0,0.0,0.0,0.0,0.0,0.0,0.0,0.0,0.0,0.0,0.0,0.0,0.0,0.0,0.0,0.0,0.0,0.0,0.0,0.0,0.0,0.0,0.0,0.0,0.0,0.0,0.0,0.0,0.0,0.0,0.0,0.0,0.0,0.0,0.0,0.0,0.0,0.0,0.0,0.0,0.0,0.0,0.0,0.0,0.0,0.0,0.0,0.0,0.0,0.0,0.0,0.0,0.0,0.0,0.0,0.0,0.0,0.0,0.0,0.0,0.0,0.0,0.0,0.0,0.0,0.0,0.0,0.0,0.0,0.0,0.0,0.0,0.0,0.0,0.0,0.0,0.0,0.0,0.0,0.0,0.0,0.0,0.0,0.0,0.0,0.0,0.0,0.0,0.0,0.0,0.0,0.0,0.0,0.0,0.0,0.0,0.0,0.0,0.0,0.0,0.0,0.0,0.0,0.0,0.0,0.0,0.0,0.0,0.0,0.0,0.0,0.0,0.0,0.0,0.0,0.0,0.0,0.0,0.0,0.0,0.0,0.0,0.0,0.0,0.0,0.0,0.0,0.0,0.0,0.0,0.0,0.0,0.0,0.0,0.0,0.0,0.0,0.0,0.0,0.0,0.0,0.0,0.0,0.0,0.0,0.0,0.0,0.0,0.0,0.0,0.0,0.0,0.0,0.0,0.0,0.0,0.0,0.0,0.0,0.0,0.0,0.0,0.0,0.0,0.0,0.0,0.0,0.0,0.0,0.0,0.0,0.0,0.0,0.0,0.0,0.0,0.0,0.0,0.0,0.0,0.0,0.0,0.0,0.0,0.0,0.0,0.0,0.0,0.0,0.0,0.0,0.0,0.0,0.0,0.0,0.0,0.0,0.0,0.0,0.0,0.0,0.0,0.0,0.0,0.0,0.0,0.0,0.0,0.0,0.0,0.0,0.0,0.0,0.0,0.0,0.0,0.0,0.0,0.0,0.0,0.0,0.0,0.0,0.0,0.0,0.0,0.0,0.0,0.0,0.0,0.0,0.0,0.0,0.0,0.0,0.0,0.0,0.0,0.0,0.0,0.0,0.0,0.0,0.0,0.0,0.0,0.0,0.0,0.0,0.0,0.0,0.0,0.0,0.0,0.0,0.0,0.0,0.0,0.0,0.0,0.0,0.0,0.0,0.0,0.0,0.0,0.0,0.0,0.0,0.0,0.0,0.0,0.0,0.0,0.0,0.0,0.0,0.0,0.0,0.0,0.0,0.0,0.0,0.0,0.0,0.0,0.0,0.0,0.0,0.0,0.0,0.0,0.0,0.0,0.0,0.0,0.0,0.0,0.0,0.0,0.0,0.0,0.0,0.0,0.0,0.0,0.0,0.0,0.0,0.0,0.0,0.0,0.0,0.0,0.0,0.0,0.0,0.0,0.0,0.0,0.0,0.0,0.0,0.0,0.0,0.0,0.0,0.0,0.0,0.0,0.0,0.0,0.0,0.0,0.0,0.0,0.0,0.0,0.0,0.0,0.0,0.0,0.0,0.0,0.0,0.0,0.0,0.0,0.0,0.0,0.0,0.0,0.0,0.0,0.0,0.0,0.0,0.0,0.0,0.0,0.0,0.0,0.0,0.0,0.0,0.0,0.0,0.0,0.0,0.0,0.0,0.0,0.0,0.0,0.0,0.0,0.0,0.0,0.0,0.0,0.0,0.0,0.0,0.0,0.0,0.0,0.0,0.0,0.0,0.0,0.0,0.0,0.0,0.0,0.0,0.0,0.0,0.0,0.0,0.0,0.0,0.0,0.0,0.0,0.0,0.0,0.0,0.0,0.0,0.0,0.0,0.0,0.0,0.0,0.0,0.0,0.0,0.0,0.0,0.0,0.0,0.0,0.0,0.0,0.0,0.0,0.0,0.0,0.0,0.0,0.0,0.0,0.0,0.0,0.0,0.0,0.0,0.0,0.0,0.0,0.0,0.0,0.0,0.0,0.0,0.0,0.0,0.0,0.0,0.0,0.0,0.0,0.0,0.0,0.0,0.0,0.0,0.0,0.0,0.0,0.0,0.0,0.0,0.0,0.0,0.0,0.0,0.0,0.0,0.0,0.0,0.0,0.0,0.0,0.0,0.0,0.0,0.0,0.0,0.0,0.0,0.0,0.0,0.0,0.0,0.0,0.0,0.0,0.0,0.0,0.0,0.0,0.0,0.0,0.0,0.0,0.0,0.0,0.0,0.0,0.0,0.0,0.0,0.0,0.0,0.0,0.0,0.0,0.0,0.0,0.0,0.0,0.0,0.0,0.0,0.0,0.0,0.0,0.0,0.0,0.0,0.0,0.0,0.0,0.0,0.0,0.0,0.0,0.0,0.0,0.0,0.0,0.0,0.0,0.0,0.0,0.0,0.0,0.0,0.0,0.0,0.0,0.0,0.0,0.0,0.0,0.0,0.0,0.0,0.0,0.0,0.0,0.0,0.0,0.0,0.0,0.0,0.0,0.0,0.0,0.0,0.0,0.0,0.0,0.0,0.0,0.0,0.0,0.0,0.0,0.0,0.0,0.0,0.0,0.0,0.0,0.0,0.0,0.0,0.0,0.0,0.0,0.0,0.0,0.0,0.0,0.0,0.0,0.0,0.0,0.0,0.0,0.0,0.0,0.0,0.0,0.0,0.0,0.0,0.0,0.0,0.0,0.0,0.0,0.0,0.0,0.0,0.0,0.0,0.0,0.0,0.0,0.0,0.0,0.0,0.0,0.0,0.0,0.0,0.0,0.0,0.0,0.0,0.0,0.0,0.0,0.0,0.0,0.0,0.0,0.0,0.0,0.0,0.0,0.0,0.0,0.0,0.0,0.0,0.0,0.0,0.0,0.0,0.0,0.0,0.0,0.0,0.0,0.0,0.0,0.0,0.0,0.0,0.0,0.0,0.0,0.0,0.0,0.0,0.0,0.0,0.0,0.0,0.0,0.0,0.0,0.0,0.0,0.0,0.0,0.0,0.0,0.0,0.0,0.0,0.0,0.0,0.0,0.0,0.0,0.0,0.0,0.0,0.0,0.0,0.0,0.0,0.0,0.0,0.0,0.0,0.0,0.0,0.0,0.0,0.0,0.0,0.0,0.0,0.0,0.0,0.0,0.0,0.0,0.0,0.0,0.0,0.0,0.0,0.0,0.0,0.0,0.0,0.0,0.0,0.0,0.0,0.0,0.0,0.0,0.0,0.0,0.0,0.0,0.0,0.0,0.0,0.0,0.0,0.0,0.0,0.0,0.0,0.0,0.0,0.0,0.0,0.0,0.0,0.0,0.0,0.0,0.0,0.0,0.0,0.0,0.0,0.0,0.0,0.0,0.0,0.0,0.0,0.0,0.0,0.0,0.0,0.0,0.0,0.0,0.0,0.0,0.0,0.0,0.0,0.0,0.0,0.0,0.0,0.0,0.0,0.0,0.0,0.0,0.0,0.0,0.0,0.0,0.0,0.0,0.0,0.0,0.0,0.0,0.0,0.0,0.0,0.0,0.0,0.0,0.0,0.0,0.0,0.0,0.0,0.0,0.0,0.0,0.0,0.0,0.0,0.0,0.0,0.0,0.0,0.0,0.0,0.0,0.0,0.0,0.0,0.0,0.0,0.0,0.0,0.0,0.0,0.0,0.0,0.0,0.0,0.0,0.0,0.0,0.0,0.0,0.0,0.0,0.0,0.0,0.0,0.0,0.0,0.0,0.0,0.0,0.0,0.0,0.0,0.0,0.0,0.0,0.0,0.0,0.0,0.0,0.0,0.0,0.0,0.0,0.0,0.0,0.0,0.0,0.0,0.0,0.0,0.0,0.0,0.0,0.0,0.0,0.0,0.0,0.0,0.0,0.0,0.0,0.0,0.0,0.0,0.0,0.0,0.0,0.0,0.0,0.0,0.0,0.0,0.0,0.0,0.0,0.0,0.0,0.0,0.0,0.0,0.0,0.0,0.0,0.0,0.0,0.0,0.0,0.0,0.0,0.0,0.0,0.0,0.0,0.0,0.0,0.0,0.0,0.0,0.0,0.0,0.0,0.0,0.0,0.0,0.0,0.0,0.0,0.0,0.0,0.0,0.0,0.0,0.0,0.0,0.0,0.0,0.0,0.0,0.0,0.0,0.0,0.0,0.0,0.0,0.0,0.0,0.0,0.0,0.0,0.0,0.0,0.0,0.0,0.0,0.0,0.0,0.0,0.0,0.0,0.0,0.0,0.0,0.0,0.0,0.0,0.0,0.0,0.0,0.0,0.0,0.0,0.0,0.0,0.0,0.0,0.0,0.0,0.0,0.0,0.0,0.0,0.0,0.0,0.0,0.0,0.0,0.0,0.0,0.0,0.0,0.0,0.0,0.0,0.0,0.0,0.0,0.0,0.0,0.0,0.0,0.0,0.0,0.0,0.0,0.0,0.0,0.0,0.0,0.0,0.0,0.0,0.0,0.0,0.0,0.0,0.0,0.0,0.0,0.0,0.0,0.0,0.0,0.0,0.0,0.0,0.0,0.0,0.0,0.0,0.0,0.0,0.0,0.0,0.0,0.0,0.0,0.0,0.0,0.0,0.0,0.0,0.0,0.0,0.0,0.0,0.0,0.0,0.0,0.0,0.0,0.0,0.0,0.0,0.0,0.0,0.0,0.0,0.0,0.0,0.0,0.0,0.0,0.0,0.0,0.0,0.0,0.0,0.0,0.0,0.0,0.0,0.0,0.0,0.0,0.0,0.0,0.0,0.0,0.0,0.0,0.0,0.0,0.0,0.0,0.0,0.0,0.0,0.0,0.0,0.0,0.0,0.0,0.0,0.0,0.0,0.0,0.0,0.0,0.0,0.0,0.0,0.0,0.0,0.0,0.0,0.0,0.0,0.0,0.0,0.0,0.0,0.0,0.0,0.0,0.0,0.0,0.0,0.0,0.0,0.0,0.0,0.0,0.0,0.0,0.0,0.0,0.0,0.0,0.0,0.0,0.0,0.0,0.0,0.0,0.0,0.0,0.0,0.0,0.0,0.0,0.0,0.0,0.0,0.0,0.0,0.0,0.0,0.0,0.0,0.0,0.0,0.0,0.0,0.0,0.0,0.0,0.0,0.0,0.0,0.0,0.0,0.0,0.0,0.0,0.0,0.0,0.0,0.0,0.0,0.0,0.0,0.0,0.0,0.0,0.0,0.0,0.0,0.0,0.0,0.0,0.0,0.0,0.0,0.0,0.0,0.0,0.0,0.0,0.0,0.0,-2.1152,0.0,0.0,0.0,0.0,0.0,0.0,0.0,0.0,0.0,0.0,0.0,0.0,0.0,0.0,0.0,0.0,0.0,0.0,0.0,0.0,0.0,0.0,0.0,0.0,-1.2926,-1.2891,-1.2891,-1.2891,0.0,0.0,0.0,0.0,0.0,0.0,0.0,0.0,0.0,-1.2617,-1.3457,-1.3457,-1.4336,-1.6016,-1.5566,-1.4902,-1.4082,0.0,0.0,0.0,0.0,0.0,0.0,0.0,0.0,0.0,0.0,0.0,0.0,0.0,0.0,0.0,0.0,0.0,0.0,0.0,0.0,0.0,0.0,0.0,0.0,0.0,0.0,0.0,0.0,0.0,0.0,0.0,0.0,0.0,0.0,0.0,0.0,0.0,0.0,0.0,0.0,0.0,0.0,0.0,0.0,0.0,0.0,0.0,0.0,0.0,0.0,0.0,0.0,0.0,0.0,0.0,0.0,0.0,0.0,0.0,0.0,0.0,0.0,0.0,0.0,0.0,0.0,0.0,0.0,0.0,0.0,0.0,-2.139,0.0,0.0,0.0,0.0,0.0,0.0,0.0,0.0,0.0,0.0,0.0,0.0,0.0,0.0,0.0,0.0,0.0,0.0,0.0,0.0,0.0,-1.2368,-1.2867,-1.2929,-1.291,-1.2988,-1.293,-1.291,-1.2988,-1.293,0.0,0.0,0.0,0.0,-1.2891,-1.3027,-1.3691,-1.4883,-1.541,-1.6426,-1.7832,-1.8262,-1.7695,-1.6269,-1.5254,0.0,0.0,0.0,0.0,0.0,0.0,0.0,0.0,0.0,0.0,0.0,0.0,0.0,0.0,0.0,0.0,0.0,0.0,0.0,0.0,0.0,0.0,0.0,0.0,0.0,0.0,0.0,0.0,0.0,0.0,0.0,0.0,0.0,0.0,0.0,0.0,0.0,0.0,0.0,0.0,0.0,0.0,0.0,0.0,0.0,0.0,0.0,0.0,0.0,0.0,0.0,0.0,0.0,0.0,0.0,0.0,0.0,0.0,0.0,0.0,0.0,0.0,0.0,-2.2676,-2.2773,-2.2793,-2.3144,-2.3867,-2.4805,-2.375,-2.2967,-2.2446,-2.2553,0.0,0.0,0.0,0.0,0.0,0.0,0.0,0.0,0.0,0.0,0.0,0.0,0.0,0.0,0.0,0.0,0.0,0.0,0.0,-1.2003,-1.2913,-1.2922,-1.3027,-1.3398,-1.3086,-1.3027,-1.3398,-1.3086,0.0,0.0,0.0,0.0,-1.2891,-1.3594,-1.4414,-1.5332,-1.7949,-1.9355,-1.959,-2.0019,-2.0098,-1.9824,-1.8223,-1.6864,-1.5882,0.0,0.0,0.0,0.0,0.0,0.0,0.0,0.0,0.0,0.0,0.0,0.0,0.0,0.0,0.0,0.0,0.0,0.0,0.0,0.0,0.0,0.0,0.0,0.0,0.0,0.0,0.0,0.0,0.0,0.0,0.0,0.0,0.0,0.0,0.0,0.0,0.0,0.0,0.0,0.0,0.0,-1.9922,-2.043,0.0,0.0,0.0,0.0,0.0,0.0,0.0,0.0,0.0,0.0,0.0,0.0,0.0,-2.2344,-2.2519,-2.3926,-2.4648,-2.4668,-2.5801,-2.6348,-2.6348,-2.6406,-2.6504,-2.666,-2.6504,0.0,-2.516,-2.5197,0.0,0.0,0.0,0.0,0.0,0.0,0.0,0.0,0.0,0.0,0.0,0.0,0.0,0.0,0.0,0.0,0.0,0.0,0.0,0.0,0.0,-1.3827,-1.4219,-1.4883,-1.5,-1.4805,-1.4258,-1.4043,0.0,0.0,0.0,-1.3242,-1.3242,-1.4531,-1.6113,-1.7949,-2.0254,-2.1367,-2.1387,-2.1816,-2.2012,-2.1973,-2.123,-1.9774,-1.7924,-1.7649,0.0,0.0,0.0,0.0,0.0,0.0,0.0,0.0,0.0,0.0,0.0,0.0,0.0,0.0,0.0,0.0,0.0,0.0,0.0,0.0,0.0,0.0,0.0,0.0,0.0,0.0,0.0,0.0,0.0,0.0,0.0,0.0,0.0,0.0,0.0,0.0,0.0,0.0,0.0,-1.9922,-2.0527,-2.123,-2.0918,-2.0566,0.0,0.0,0.0,0.0,0.0,0.0,0.0,0.0,0.0,-2.3652,-2.4102,-2.4551,-2.5039,-2.5781,-2.6172,-2.6172,-2.6738,-2.7012,-2.7012,-2.7012,-2.7148,-2.7402,-2.7637,-2.7656,-2.7422,-2.623,-2.4794,-2.3486,0.0,0.0,0.0,0.0,-2.3828,-2.3867,0.0,0.0,0.0,0.0,0.0,0.0,0.0,0.0,0.0,0.0,0.0,0.0,-1.416,-1.4785,-1.5449,-1.639,-1.6602,-1.6367,-1.5508,-1.5039,-1.4355,-1.3418,-1.3457,-1.3555,-1.3672,-1.5781,-1.8047,-2.041,-2.1934,-2.2676,-2.2676,-2.2988,-2.3144,-2.3144,-2.3144,-2.1903,-1.9755,-1.9106,-1.8014,-1.6689,0.0,0.0,0.0,0.0,0.0,0.0,0.0,0.0,0.0,0.0,0.0,0.0,0.0,0.0,0.0,0.0,0.0,0.0,0.0,0.0,0.0,0.0,0.0,0.0,0.0,0.0,0.0,0.0,0.0,0.0,0.0,0.0,0.0,0.0,0.0,0.0,0.0,-2.1016,-2.1426,-2.1973,-2.1953,-2.168,0.0,0.0,0.0,0.0,0.0,0.0,-2.3789,-2.4219,-2.4805,-2.5547,-2.5898,-2.6367,-2.7012,-2.7226,-2.7344,-2.7344,-2.7559,-2.7676,-2.7676,-2.7676,-2.7851,-2.8164,-2.8476,-2.8789,-2.8965,-2.7383,-2.5958,-2.4868,-2.5256,-2.5273,-2.5137,-2.5684,-2.5898,-2.6113,0.0,0.0,0.0,0.0,0.0,0.0,0.0,0.0,0.0,0.0,0.0,-1.3821,-1.4648,-1.5488,-1.6409,-1.7246,-1.6953,-1.6875,-1.7227,-1.5703,-1.4766,-1.4687,-1.3926,-1.3691,-1.4048,-1.7402,-2.0,-2.1797,-2.2676,-2.3105,-2.3105,-2.3125,-2.3144,-2.3144,-2.3144,-2.2416,-2.1137,-1.9895,-1.8429,-1.6795,-1.5498,0.0,0.0,0.0,0.0,0.0,0.0,0.0,0.0,0.0,0.0,0.0,0.0,0.0,0.0,0.0,0.0,0.0,0.0,0.0,0.0,0.0,0.0,0.0,0.0,0.0,0.0,0.0,0.0,0.0,0.0,0.0,0.0,0.0,0.0,0.0,0.0,0.0,0.0,-2.2519,-2.3184,0.0,0.0,0.0,0.0,-2.3672,-2.4102,-2.4727,-2.5566,-2.6016,-2.6465,-2.6894,-2.6934,-2.6973,-2.7012,-2.7812,-2.8223,-2.8242,-2.9043,-2.9434,-2.9434,-2.9434,-2.9453,-2.9473,-2.9492,-2.9512,-2.9531,-2.9414,-2.8906,-2.8038,-2.8105,-2.7598,-2.6992,-2.7832,-2.8125,-2.8262,0.0,0.0,0.0,-1.1992,-1.1504,-1.1236,-1.1606,-1.1693,-1.192,-1.2397,-1.3539,-1.4648,-1.5508,-1.6875,-1.8066,-1.8926,-1.9121,-1.8906,-1.8242,-1.6836,-1.6172,-1.6445,-1.5625,-1.6269,-1.8652,-1.9902,-2.125,-2.2695,-2.2988,-2.3144,-2.3144,-2.3144,-2.3144,-2.3144,-2.3144,-2.2862,-2.2454,-2.193,-2.0941,-1.9567,-1.7975,-1.6899,0.0,0.0,0.0,0.0,0.0,0.0,0.0,0.0,0.0,0.0,0.0,0.0,0.0,0.0,0.0,0.0,0.0,0.0,0.0,0.0,0.0,0.0,0.0,0.0,0.0,0.0,0.0,0.0,0.0,0.0,0.0,0.0,0.0,0.0,0.0,0.0,0.0,-2.3359,-2.3613,0.0,-2.3359,-2.3965,-2.457,-2.5019,-2.5703,-2.623,-2.6543,-2.6973,-2.7402,-2.7812,-2.8105,-2.8379,-2.8652,-2.8965,-2.9121,-2.9121,-2.9434,-2.957,-2.957,-2.957,-2.957,-2.959,-2.9863,-2.9393,-2.8477,-2.8719,-2.8937,-2.9121,-2.9121,-2.8926,-2.8691,-2.9004,-2.9297,-2.957,0.0,0.0,0.0,-1.218,-1.1855,-1.1665,-1.1758,-1.2031,-1.2394,-1.3008,-1.4336,-1.5644,-1.6797,-1.8203,-1.9355,-2.0078,-2.0547,-2.0371,-1.9355,-1.8086,-1.7441,-1.7578,-1.7031,-1.8144,-2.1172,-2.1387,-2.2012,-2.3144,-2.3144,-2.3144,-2.3144,-2.3144,-2.3144,-2.3144,-2.3144,-2.3144,-2.3144,-2.3144,-2.2122,-2.0429,-1.8508,-1.7337,-1.6704,0.0,0.0,0.0,0.0,0.0,0.0,0.0,0.0,0.0,0.0,0.0,0.0,0.0,0.0,0.0,0.0,0.0,0.0,0.0,0.0,0.0,0.0,0.0,0.0,0.0,0.0,0.0,0.0,0.0,0.0,0.0,0.0,0.0,0.0,-2.3379,-2.3945,-2.3809,-2.4316,-2.4551,-2.4258,-2.5137,-2.5918,-2.6348,-2.7051,-2.75,-2.7656,-2.8066,-2.8437,-2.8711,-2.9004,-2.9277,-2.957,-2.9707,-2.9785,-2.9785,-2.9941,-3.0019,-3.0019,-3.0019,-3.0019,-3.0019,-3.0312,-2.9834,-2.8904,-2.9164,-2.9194,-2.9165,-2.8574,-2.8344,-2.8459,-2.8936,-2.9336,-2.9699,0.0,0.0,-1.22,-1.22,-1.1895,-1.1783,-1.2141,-1.2219,-1.2871,-1.457,-1.5547,-1.6758,-1.8457,-1.9414,-2.0098,-2.0527,-2.0977,-2.1055,-2.0586,-1.9355,-1.8457,-1.8066,-1.8125,-1.9141,-2.125,-2.1699,-2.2324,-2.3144,-2.3144,-2.3144,-2.3144,-2.3144,-2.3144,-2.3144,-2.3144,-2.3144,-2.3144,-2.3057,-2.1676,-1.9307,-1.6783,-1.5791,-1.5856,0.0,0.0,0.0,0.0,0.0,0.0,0.0,0.0,0.0,0.0,0.0,0.0,0.0,0.0,0.0,0.0,0.0,0.0,0.0,0.0,0.0,0.0,0.0,0.0,0.0,0.0,0.0,0.0,0.0,0.0,0.0,0.0,0.0,-2.3809,-2.4199,-2.4336,-2.3926,-2.5371,-2.6074,-2.5234,-2.6309,-2.7226,-2.7676,-2.8086,-2.8516,-2.8926,-2.9336,-2.957,-2.959,-2.959,-2.959,-2.9609,-3.0019,-3.0215,-3.0234,-3.0684,-3.0898,-3.0898,-3.0898,-3.0898,-3.0898,-3.0898,-3.0879,-3.0762,-3.0782,-2.9922,-2.8188,-2.6712,-2.6106,-2.6227,-2.7811,-2.8426,-2.8664,0.0,-1.2793,-1.2695,-1.2695,-1.2598,-1.2559,-1.2676,-1.2969,-1.3555,-1.4648,-1.6094,-1.7441,-1.8516,-1.9687,-2.043,-2.0547,-2.0977,-2.1055,-2.0586,-1.9355,-1.873,-1.8926,-2.0723,-2.2012,-2.2598,-2.2734,-2.291,-2.3144,-2.3144,-2.3144,-2.3144,-2.3144,-2.3144,-2.3144,-2.3144,-2.3144,-2.295,-2.123,-2.0133,-1.9464,-1.8717,-1.8633,-1.8684,0.0,0.0,0.0,0.0,0.0,0.0,0.0,0.0,0.0,0.0,0.0,0.0,0.0,0.0,0.0,0.0,0.0,0.0,0.0,0.0,0.0,0.0,0.0,0.0,0.0,0.0,0.0,0.0,0.0,0.0,0.0,-2.3809,-2.4609,-2.4277,-2.5176,-2.5801,-2.5684,-2.6367,-2.6875,-2.6953,-2.7559,-2.8125,-2.8535,-2.8984,-2.9277,-2.9394,-2.9512,-2.9707,-3.0019,-3.0019,-3.0195,-3.0527,-3.0644,-3.0703,-3.0703,-3.082,-3.0898,-3.0898,-3.0898,-3.0898,-3.0898,-3.0898,-3.0274,-2.9057,-2.9471,-2.8617,-2.7102,-2.7556,-2.7073,-2.6106,-2.647,-2.7434,-2.8664,0.0,-1.2891,-1.2891,-1.2891,-1.2891,-1.2891,-1.2891,-1.3242,-1.4004,-1.541,-1.6641,-1.791,-1.9297,-2.0117,-2.0644,-2.082,-2.125,-2.125,-2.0605,-1.9687,-1.9531,-2.0332,-2.1816,-2.2773,-2.3125,-2.3144,-2.3144,-2.3144,-2.3144,-2.3144,-2.3144,-2.332,-2.332,-2.3164,-2.3516,-2.3477,-2.3057,-2.177,-2.1194,-2.0944,-1.9951,-1.8962,-1.829,-1.8715,-1.8229,-1.7549,-1.8644,-1.8602,-1.7986,-1.8355,0.0,0.0,0.0,0.0,0.0,0.0,0.0,0.0,0.0,0.0,0.0,0.0,0.0,0.0,0.0,0.0,0.0,0.0,0.0,0.0,0.0,0.0,0.0,0.0,-2.5039,-2.5801,-2.5547,-2.6172,-2.6641,-2.6641,-2.7031,-2.7461,-2.7891,-2.832,-2.873,-2.916,-2.959,-2.9824,-2.9824,-3.0019,-3.0234,-3.0488,-3.0488,-3.0625,-3.0898,-3.0898,-3.0898,-3.0898,-3.1074,-3.1152,-3.1152,-3.1348,-3.1426,-3.1426,-3.1426,-3.0911,-3.0054,-3.0298,-2.9397,0.0,0.0,0.0,0.0,0.0,-2.6323,-2.8062,-1.2891,-1.2891,-1.2891,-1.2891,-1.2891,-1.2891,-1.2891,-1.3281,-1.4336,-1.6465,-1.7148,-1.8242,-2.0332,-2.0566,-2.0742,-2.1191,-2.1641,-2.1543,-2.0762,-2.0391,-2.0703,-2.1836,-2.1973,-2.2383,-2.3125,-2.3184,-2.3203,-2.3203,-2.3262,-2.3281,-2.3301,-2.3672,-2.3652,-2.332,-2.4082,-2.3984,-2.3213,-2.3512,-2.3454,-2.2821,-2.0706,-1.8365,-1.6532,-1.9312,-1.9638,-1.8758,-2.0272,-2.0693,-2.0498,-2.006,0.0,0.0,0.0,0.0,0.0,0.0,0.0,0.0,0.0,0.0,0.0,0.0,0.0,0.0,0.0,0.0,0.0,0.0,0.0,0.0,0.0,0.0,0.0,0.0,-2.6269,-2.7109,-2.7148,-2.7207,-2.7207,-2.7168,-2.7539,-2.7969,-2.8398,-2.8828,-2.9219,-2.9609,-3.0039,-3.0273,-3.0273,-3.0664,0.0,0.0,0.0,-3.0898,-3.0898,-3.0937,-3.0957,-3.0957,-3.1387,-3.1582,-3.1601,-3.1992,-3.2168,-3.2168,-3.2168,-3.2168,-3.2168,-3.2085,-3.0982,-2.9351,-2.7882,-2.6328,-2.4918,-2.4918,-2.5945,-2.747,-1.2891,-1.2891,-1.2891,-1.2891,-1.2891,-1.2891,-1.2891,-1.3535,-1.4668,-1.6441,-1.7402,-1.8574,-2.0371,-2.0566,-2.0742,-2.1191,-2.1641,-2.1816,-2.1641,-2.1875,-2.1973,-2.1894,-2.2539,-2.2969,-2.3125,-2.3477,-2.3672,-2.3672,-2.4004,-2.416,-2.418,-2.4258,-2.4258,-2.418,-2.4336,-2.4316,-2.4088,-2.3224,-2.2833,-2.2667,-2.2182,-2.0678,-1.8764,-1.8425,-1.7487,-1.6556,-1.7888,-1.7751,-1.7095,-1.8929,-1.9109,-1.8852,-2.0818,-2.0898,0.0,0.0,0.0,0.0,0.0,0.0,0.0,0.0,0.0,0.0,0.0,0.0,0.0,0.0,0.0,0.0,0.0,0.0,0.0,-2.6055,-2.6934,-2.7656,-2.7988,-2.834,-2.8418,-2.8086,-2.8418,-2.8848,-2.9277,-2.9707,-2.998,-3.0078,-3.0508,-3.0762,-3.0762,-3.084,-3.0898,-3.0898,-3.0898,-3.0898,-3.0898,-3.123,-3.1406,-3.1406,0.0,0.0,-3.2051,-3.2129,-3.2168,-3.2168,-3.2168,-3.2168,-3.2066,-3.0978,-2.9758,-2.842,-2.7577,-2.709,-2.6964,-2.8209,-2.8834,-2.9226,-1.2891,-1.2891,-1.2891,-1.2891,-1.2891,-1.2891,-1.2891,-1.3594,-1.4632,-1.6191,-1.7148,-1.8262,-1.9766,-1.9727,-1.9785,-2.0215,-2.0644,-2.1172,-2.1855,-2.209,-2.2285,-2.25,-2.291,-2.3144,-2.3144,-2.3574,-2.3789,-2.3789,-2.4219,-2.4414,-2.4414,-2.4648,-2.4629,-2.4434,-2.4883,-2.4824,-2.4341,-2.3975,-2.3749,-2.3374,-2.2114,-2.1019,-2.0118,-2.0788,-2.0322,-1.9383,-2.0602,-2.0466,-2.0071,-2.1458,-2.1374,-2.0934,-2.2409,-2.2383,-2.1777,0.0,0.0,0.0,0.0,0.0,0.0,0.0,0.0,0.0,0.0,0.0,0.0,0.0,0.0,-2.4629,-2.5273,0.0,-2.6582,-2.7226,-2.7871,-2.8437,-2.8867,-2.9121,-2.916,-2.8945,-2.9121,-2.9414,-2.9844,-3.0078,-3.0293,-3.0527,-3.0762,-3.0898,-3.0898,-3.0898,-3.0996,-3.1191,-3.1211,-3.1309,-3.1523,-3.1738,-3.1836,-3.1855,-3.2285,-3.248,-3.248,-3.2695,-3.2793,-3.2793,-3.2793,-3.291,-3.3144,-3.2644,-3.2004,-3.148,-3.1081,-2.9223,-2.6719,-2.7622,-2.7473,-2.7105,-1.2891,-1.2891,-1.2891,-1.2891,-1.2891,-1.2891,-1.2891,-1.3535,-1.4473,-1.5762,-1.6621,-1.7617,-1.8906,-1.8652,-1.8594,-1.9121,-1.9785,-2.0664,-2.1816,-2.2031,-2.2441,-2.3105,-2.3144,-2.3144,-2.3144,-2.3574,-2.3828,-2.3906,-2.4336,-2.459,-2.4687,-2.5039,-2.5019,-2.4707,-2.543,-2.5332,-2.4707,-2.5059,-2.5,-2.4481,-2.244,-2.1559,-2.1848,-2.39,-2.3316,-2.164,-2.3168,-2.3334,-2.2924,-2.3725,-2.3582,-2.3082,-2.3699,-2.3672,-2.3301,-2.2891,-2.2949,0.0,0.0,0.0,0.0,0.0,0.0,0.0,0.0,-2.3516,-2.3887,-2.4746,-2.5273,-2.582,-2.6621,-2.7109,-2.7637,-2.8418,-2.8828,-2.9199,-2.9629,-2.9687,-2.9726,-2.9824,-2.9746,-2.9863,-3.0293,-3.0332,-3.0488,-3.0859,-3.0898,-3.0918,-3.1016,-3.1016,-3.1211,-3.1621,-3.1641,-3.1816,-3.2168,-3.2246,-3.2285,-3.2285,-3.2715,-3.2969,-3.3047,-3.3398,-3.3594,-3.3672,-3.3672,-3.3739,-3.3681,-3.4027,-3.4011,-3.3596,-3.3331,-3.0324,-2.6328,-2.7469,-2.7092,-2.6519,-1.2891,-1.2891,-1.2891,-1.2891,-1.2891,-1.2891,-1.2891,-1.3281,-1.4043,-1.5312,-1.5898,-1.6699,-1.8008,-1.7773,-1.7852,-1.8633,-2.0176,-2.1309,-2.1855,-2.2578,-2.3047,-2.3125,-2.3144,-2.3144,-2.3144,-2.3574,-2.3965,-2.4355,-2.4785,-2.5195,-2.5586,-2.5644,-2.5625,-2.5586,-2.5684,-2.5684,-2.5586,-2.5644,-2.5625,-2.5489,-2.5276,-2.5082,-2.5179,-2.5489,-2.2132,-1.7669,-2.028,-2.0361,-1.9652,-2.2002,-2.2738,-2.2852,-2.3948,-2.4316,-2.4199,-2.3769,-2.3398,-2.3027,-2.2559,-2.2519,-2.2852,-2.3926,-2.3926,-2.416,0.0,-2.5957,-2.5684,-2.6543,-2.707,-2.7519,-2.7988,-2.8418,-2.8867,-2.9355,-2.9473,-2.9648,-3.0059,-3.0137,-3.0273,-3.0703,-3.0371,-3.0312,-3.0762,-3.082,-3.084,-3.0879,-3.0898,-3.1055,-3.1426,-3.1445,-3.1641,-3.209,-3.209,-3.2129,-3.2168,-3.2539,-3.2734,-3.2734,-3.3144,-3.3555,-3.3926,-3.3984,-3.4199,-3.4551,-3.4551,-3.3764,-3.2344,-3.2381,-3.1425,-2.9783,-2.8138,-2.7198,-2.7382,-3.2016,-3.369,-3.3331,-1.2891,-1.2891,-1.2891,-1.2891,-1.2891,-1.2891,-1.2891,-1.3242,-1.3789,-1.457,-1.5039,-1.5625,-1.6406,-1.6348,-1.6582,-1.7395,-1.9102,-2.0391,-2.1074,-2.2383,-2.3144,-2.3144,-2.3144,-2.3144,-2.3144,-2.3574,-2.4004,-2.4414,-2.4863,-2.5293,-2.5742,-2.5742,-2.5742,-2.5742,-2.5742,-2.5742,-2.5742,-2.5742,-2.5742,-2.5645,-2.4824,-2.451,-2.451,-2.451,-2.2477,-2.0,-2.2691,-2.2985,0.0,-2.3839,-2.39,-2.348,-2.4442,-2.4629,-2.4375,-2.4199,-2.4199,-2.4336,-2.4668,-2.4394,-2.4258,-2.5293,-2.543,-2.5547,-2.6445,-2.6562,-2.666,-2.7266,-2.793,-2.8437,-2.8633,-2.9004,-2.9434,-2.9863,-2.9941,-3.0098,-3.0547,-3.0605,-3.0664,-3.0859,-3.0723,-3.0684,-3.0879,-3.0898,-3.0996,-3.123,-3.125,-3.1445,-3.1875,-3.1894,-3.209,-3.2519,-3.2539,-3.2773,-3.3262,-3.3457,-3.3672,-3.3906,-3.4082,-3.4258,-3.4434,-3.4434,-3.4531,-3.4726,-3.498,-3.3993,-3.234,-3.2575,-3.1685,-2.9864,-2.9023,-2.9525,-3.0607,-3.0358,-2.9666,-2.9163,-1.2891,-1.2891,-1.2891,-1.2891,-1.2891,-1.2891,-1.2891,-1.3145,-1.3477,-1.3906,-1.4238,-1.459,-1.5019,-1.5273,-1.5723,-1.6484,-1.8125,-1.9531,-2.0508,-2.207,-2.3027,-2.3125,-2.3144,-2.3144,-2.3144,-2.3437,-2.3867,-2.4414,-2.4727,-2.5176,-2.5742,-2.5742,-2.5742,-2.5742,-2.5742,-2.5742,-2.5742,-2.5742,-2.5742,-2.5645,-2.4609,-2.4196,-2.4196,-2.4196,-2.361,-2.2909,-2.483,-2.4851,-2.4181,-2.5005,-2.4746,-2.4082,-2.4687,-2.4668,-2.4434,-2.4551,-2.4727,-2.5019,-2.5664,-2.5469,-2.5312,-2.6309,-2.666,-2.6777,-2.6894,-2.7246,-2.7637,-2.7949,-2.8594,-2.9141,-2.9258,-2.9531,-2.9883,-3.0312,-3.0391,-3.0508,-3.084,-3.0898,-3.0898,-3.0898,-3.0996,-3.1055,-3.1055,-3.1055,-3.1191,-3.1504,-3.1621,-3.1894,-3.2324,-3.2344,-3.2578,-3.3125,-3.3144,-3.3496,-3.4238,-3.4238,-3.4394,-3.4707,-3.4707,-3.4766,-3.4902,-3.5019,-3.5059,-3.5078,-3.543,-3.4776,-3.3624,-3.4075,-3.3387,-3.219,-3.1036,-3.1463,-3.2156,-2.8038,-2.7201,-2.848,0.0,-1.2891,-1.2891,-1.2891,-1.2891,-1.2891,-1.2891,-1.2891,-1.3047,-1.3477,-1.3535,-1.3711,-1.4068,-1.4902,-1.5586,-1.6096,-1.7656,-1.9199,-2.0488,-2.1797,-2.2715,-2.3125,-2.3144,-2.3144,-2.3144,-2.3144,-2.3574,-2.4414,-2.4434,-2.4883,-2.5742,-2.5742,-2.5742,-2.5742,-2.5742,-2.5742,-2.5742,-2.5742,-2.5742,-2.5742,-2.5645,-2.5645,-2.5645,-2.5645,-2.5372,-2.4983,-2.5078,-2.4183,-2.3208,-2.4105,-2.4434,-2.4394,-2.4434,-2.4434,-2.4492,-2.4922,-2.4766,-2.4434,-2.4473,-2.4766,-2.5371,-2.668,-2.7305,-2.7734,-2.8144,-2.8555,-2.8867,-2.8887,-2.9238,-2.9668,-3.0078,-3.0176,-3.0332,-3.0801,-3.0859,-3.0879,-3.0898,-3.0898,-3.0898,-3.0898,-3.125,-3.1504,-3.1504,-3.1504,-3.1504,-3.1523,-3.1914,-3.2344,-3.2754,-3.2773,-3.3164,-3.4004,-3.4023,-3.4238,-3.4668,-3.4687,-3.4687,-3.4707,-3.4707,-3.4941,-3.5391,-3.5801,-3.5976,-3.5976,-3.5996,-3.625,-3.6621,-3.6641,-3.6735,-3.6662,-3.2826,-3.135,-3.0909,-2.6942,-3.0128,-3.6066,0.0,-1.3301,-1.3379,-1.3652,-1.3711,-1.3613,-1.334,-1.3066,-1.3027,-1.3457,-1.375,0.0,0.0,0.0,0.0,0.0,-1.7383,-1.8652,-1.9648,-2.1211,-2.2285,-2.2695,-2.2988,-2.3144,-2.3144,-2.3144,-2.3418,-2.4004,-2.4277,-2.4727,-2.5293,-2.5605,-2.5742,-2.5742,-2.5742,-2.5742,-2.5742,-2.5742,-2.5742,-2.5742,-2.5742,-2.5742,-2.5762,-2.6055,-2.5703,-2.5039,0.0,-2.4175,-2.3668,-2.4171,-2.4238,-2.4043,-2.4336,-2.4219,-2.4082,-2.4512,-2.4727,-2.5039,-2.5898,-2.625,-2.666,-2.7949,-2.8398,-2.8613,-2.9043,-2.9258,-2.9355,-2.9355,-2.9687,-3.0039,-3.0176,-3.0449,-3.0703,-3.0859,-3.0898,-3.0898,-3.0898,-3.0898,-3.0996,-3.1269,-3.1426,-3.1621,-3.1914,-3.1953,-3.207,-3.2344,-3.25,-3.2773,-3.3184,-3.3476,-3.3769,-3.4062,-3.4336,-3.4707,-3.5156,-3.5156,-3.5293,-3.5586,-3.5586,-3.5801,-3.625,-3.6387,-3.5869,-3.4815,-3.4815,-3.3446,-3.1234,-3.1234,-3.0566,-2.9344,-2.8012,-2.8312,-2.9061,-2.6392,-2.8837,-3.3179,0.0,-1.373,-1.3809,-1.4029,-1.4087,0.0,0.0,0.0,0.0,0.0,0.0,0.0,0.0,0.0,0.0,0.0,0.0,-1.7988,-1.8984,-2.0391,-2.1504,-2.2246,-2.2539,-2.2754,-2.291,-2.2773,-2.3047,-2.3789,-2.4062,-2.457,-2.5312,-2.5605,-2.5742,-2.5742,-2.5742,-2.5742,-2.5742,-2.5742,-2.5918,-2.6152,-2.5684,-2.5684,-2.5957,-2.5762,-2.5234,0.0,-2.4297,-2.3926,-2.3574,-2.3691,-2.3555,-2.3398,-2.3828,-2.3984,-2.4062,-2.4336,-2.4941,-2.5781,-2.6934,-2.7363,-2.7734,-2.8867,-2.9141,-2.9219,-2.9512,-2.9687,-2.9785,-2.9785,-3.0,-3.0195,-3.0195,-3.0449,-3.0644,-3.0644,-3.0781,-3.0937,-3.1094,-3.1113,-3.1269,-3.1699,-3.1894,-3.209,-3.2363,-3.2519,-3.2656,-3.2793,-3.3086,-3.3359,-3.3633,-3.4062,-3.4375,-3.4531,-3.4805,-3.5156,-3.5605,-3.5605,-3.584,-3.625,-3.5678,-3.5908,-3.6894,-3.6157,-3.5567,-3.5364,-3.5364,-3.3981,-3.1745,-3.1745,-3.1086,-3.0,-2.8517,-2.8821,-2.9578,-2.6878,-2.7606,-2.9686,0.0,0.0,-1.4126,0.0,0.0,0.0,0.0,0.0,0.0,0.0,0.0,0.0,0.0,0.0,0.0,0.0,0.0,0.0,-1.8387,-1.9355,-2.043,-2.1738,-2.1836,-2.2051,-2.248,-2.209,-2.25,-2.373,-2.375,-2.4394,-2.5644,-2.5664,-2.5664,-2.5664,-2.5664,-2.5664,-2.5664,-2.5664,-2.6133,-2.6777,-2.5527,-2.5547,-2.6152,-2.4922,-2.418,-2.3789,-2.3789,-2.3496,-2.3047,-2.2676,-2.2578,-2.2695,-2.3038,-2.3738,-2.4492,-2.4531,-2.5449,-2.6641,-2.75,-2.8047,-2.8555,-2.9394,-2.9609,-2.9609,-2.9629,-2.9941,-3.0234,-3.0195,-3.0195,-3.0195,-3.0176,-3.0176,-3.0195,-3.0234,-3.0625,-3.1074,-3.1484,-3.1562,-3.1719,-3.2148,-3.2559,-3.2812,-3.2851,-3.3223,-3.3301,-3.293,-3.3633,-3.4082,-3.4101,-3.4512,-3.4941,-3.5391,-3.541,-3.5605,-3.6016,-3.6035,-3.6269,-3.656,-3.5055,-3.524,-3.7183,-3.5097,-3.5259,-3.7061,-3.7061,-3.7132,-3.7355,-3.7355,-3.7586,-3.7658,-3.3717,-3.2201,-3.1743,-2.7762,-2.6386,-2.6662,0.0,0.0,0.0,0.0,0.0,0.0,0.0,0.0,0.0,0.0,0.0,0.0,0.0,0.0,0.0,0.0,0.0,0.0,-1.7103,-1.832,-1.9394,-2.0371,-2.1055,-2.1602,-2.2031,-2.1934,-2.2207,-2.2832,-2.3144,-2.3633,-2.4297,-2.4609,-2.4746,-2.4746,-2.4746,-2.4746,-2.4746,-2.4746,-2.4883,-2.5059,-2.4707,-2.4727,-2.4922,-2.4902,-2.4434,-2.3789,-2.3789,-2.3301,-2.2695,-2.291,-2.3398,-2.388,-2.3558,-2.4315,-2.5527,-2.6172,-2.6816,-2.7519,-2.8379,-2.8906,-2.9375,-2.9902,-3.0039,-3.0137,-3.0469,-3.0644,-3.0605,-3.0273,-3.0195,-3.0098,-2.9785,-2.998,-3.0312,-3.0664,-3.1074,-3.1504,-3.1953,-3.2012,-3.2168,-3.2578,-3.2734,-3.3047,-3.3691,-3.3848,-3.3984,-3.4199,-3.4121,-3.4219,-3.4531,-3.498,-3.5273,-3.5391,-3.5703,-3.5918,-3.6016,-3.6348,-3.5984,-3.477,-3.4432,-3.4631,-3.552,-3.4921,-3.4351,-3.3724,-3.3724,-3.2123,-2.9314,-2.9314,-2.9359,-2.9449,-2.8374,-2.7919,-2.7762,-2.6847,-2.6386,-2.6558,0.0,0.0,0.0,0.0,0.0,0.0,0.0,0.0,0.0,0.0,0.0,0.0,0.0,0.0,0.0,0.0,0.0,0.0,0.0,-1.7578,-1.8555,-1.959,-2.0117,-2.0586,-2.1016,-2.084,-2.123,-2.2246,-2.2285,-2.2812,-2.3789,-2.3828,-2.3848,-2.3848,-2.3867,-2.3867,-2.3867,-2.4062,-2.4355,0.0,0.0,-2.4375,-2.4668,-2.4336,-2.3926,-2.3496,-2.3496,-2.2974,-2.2348,-2.2353,-2.3523,-2.4793,-2.3852,-2.4753,-2.6426,-2.7109,-2.7871,-2.8652,-2.9297,-2.9805,-3.0215,-3.0449,-3.0508,-3.0469,-3.0332,-3.0449,-3.041,-2.9766,-2.9629,-2.957,-2.9316,-2.9785,-3.0293,-3.0547,-3.1269,-3.1953,-3.2383,-3.2441,-3.2598,-3.3027,-3.3242,-3.3535,-3.4023,-3.4238,-3.4531,-3.4961,-3.4785,-3.4746,-3.5,-3.543,-3.5664,-3.5664,-3.6074,-3.6387,-3.6582,-3.6131,-3.5867,-3.5768,-3.4173,-3.4515,-3.6402,-3.4747,-3.3811,-3.3717,-3.2959,-3.1273,-2.9168,-2.9292,-2.9336,-2.9218,-2.8431,-2.8171,-2.8011,-2.7081,-2.6774,-2.68,0.0,0.0,0.0,0.0,0.0,0.0,0.0,0.0,0.0,-1.5742,-1.5547,-1.541,-1.541,-1.541,0.0,0.0,0.0,0.0,0.0,0.0,-1.791,-1.9062,-1.918,-1.9394,-1.9824,-1.9473,-2.0059,-2.1621,-2.1309,-2.1934,-2.3437,-2.3125,-2.2969,-2.2969,-2.2988,-2.2988,-2.3008,-2.3379,-2.4004,-2.4668,-2.3926,-2.4102,-2.4687,0.0,-2.3144,-2.3144,-2.3144,-2.2862,-2.2334,-2.1612,-2.3256,-2.5309,-2.3971,-2.5247,-2.7344,-2.7793,-2.875,-2.9746,-3.0176,-3.0586,-3.0898,-3.0898,-3.0898,-3.0684,-2.9844,-2.9902,-2.9883,-2.9082,-2.8867,-2.8828,-2.8828,-2.9531,-3.0156,-3.0273,-3.1348,-3.2344,-3.2812,-3.293,-3.3105,-3.3457,-3.3887,-3.418,-3.4238,-3.457,-3.498,-3.5449,-3.5488,-3.5488,-3.5488,-3.5879,-3.6133,-3.6191,-3.6266,-3.6514,-3.6939,-3.5647,-3.5705,-3.7124,-3.4012,-3.4319,-3.7658,-3.3868,-3.3129,-3.4689,-3.3192,-3.2268,-3.1766,-3.2392,-3.2456,-3.2044,-3.0475,-2.9954,-2.9632,-2.7893,-2.7268,-2.7268,0.0,0.0,0.0,0.0,0.0,0.0,0.0,0.0,0.0,0.0,-1.6309,-1.541,0.0,0.0,0.0,0.0,0.0,0.0,0.0,0.0,0.0,-1.8203,-1.8574,-1.8965,-1.9375,-1.9336,-1.9609,-2.0254,-2.0547,-2.1016,-2.168,-2.1973,-2.2109,-2.2109,-2.2109,-2.2109,-2.2109,-2.2187,-2.25,-2.2949,-2.2793,-2.3027,-2.3457,-2.3223,0.0,0.0,-2.3144,-2.3512,-2.3767,-2.1911,-2.2877,-2.4783,-2.4019,-2.5955,-2.8672,-2.9101,-2.9648,-3.0195,-3.0644,-3.082,-3.0898,-3.0898,-3.0898,-3.0762,-3.0215,-2.9883,-2.9531,-2.9023,-2.8652,-2.8398,-2.8398,-2.9101,-2.9922,-3.0644,-3.1562,-3.2441,-3.3203,-3.3613,-3.3887,-3.3945,-3.4336,-3.4746,-3.5137,-3.5234,-3.5449,-3.5879,-3.5918,-3.5918,-3.5918,-3.6328,-3.6719,-3.707,-3.5519,-3.4865,-3.5267,-3.503,-3.4345,-3.3464,-3.2776,-3.2809,-3.3415,-3.0961,-3.0205,-3.0778,-3.0526,0.0,-2.8228,-2.8325,-2.8339,-2.8298,-2.788,-2.7744,-2.7744,-2.7431,-2.7268,-2.7308,0.0,0.0,0.0,0.0,0.0,0.0,0.0,-1.6758,-1.7207,-1.8496,-1.7949,-1.7266,-1.6816,-1.6367,-1.6191,0.0,0.0,0.0,0.0,0.0,0.0,-1.7988,-1.8203,-1.8398,-1.8613,-1.8828,-1.9258,-1.9922,0.0,-2.0566,-2.123,-2.1211,-2.1191,-2.1191,-2.1191,-2.1191,-2.1211,-2.1445,-2.1797,-2.2207,-2.2422,-2.2754,-2.3144,-2.3144,0.0,0.0,-2.3144,-2.3267,-2.3426,-2.2125,-2.3283,-2.4952,-2.4098,-2.5681,-2.8145,-2.9269,-2.9431,-2.925,-2.9592,-3.0274,-3.0645,-2.9785,-3.0274,-3.0586,-2.9473,-2.9219,-2.8984,-2.8105,-2.7949,-2.8027,-2.8262,-2.8984,-2.9785,-3.043,-3.1445,-3.2461,-3.3301,-3.3789,-3.416,-3.4375,-3.4785,-3.5156,-3.5371,-3.5586,-3.5898,-3.6328,-3.6348,-3.6348,-3.6348,-3.5743,-3.5556,-3.5968,-3.4049,-3.3639,-3.5226,-3.3126,-3.276,-3.4001,-3.1879,-3.1437,-3.2505,-3.0546,-2.9792,-2.9799,-2.9034,-2.8219,-2.7281,-2.7589,-2.7629,-2.7509,-2.7669,-2.7722,-2.7722,-2.7722,-2.7722,-2.7736,0.0,0.0,0.0,0.0,0.0,0.0,0.0,-1.7598,-1.8184,-1.9648,-1.9687,-1.9297,-1.8633,-1.7617,-1.6973,0.0,0.0,0.0,0.0,0.0,0.0,0.0,0.0,0.0,-1.8144,0.0,0.0,-1.9785,-1.9863,0.0,0.0,0.0,0.0,0.0,-2.0566,-2.0566,-2.0586,-2.0937,-2.1406,0.0,0.0,-2.2676,-2.3144,0.0,0.0,0.0,0.0,-2.3047,-2.2804,-2.2464,-2.3665,-2.514,-2.4299,-2.544,-2.7464,-2.9103,-2.8991,-2.8426,-2.8426,-2.9412,-3.002,-2.8783,-2.9394,-2.9969,-2.868,-2.8613,-2.8476,-2.7383,-2.7344,-2.7676,-2.8203,-2.8926,-2.959,-3.0117,-3.1152,-3.2246,-3.3281,-3.3789,-3.4258,-3.4785,-3.5254,-3.5527,-3.5527,-3.5918,-3.6309,-3.6641,-3.6398,-3.6355,-3.6355,-3.4594,-3.4049,-3.5028,-3.2957,-3.296,-3.49,-3.1727,-3.1421,-3.4134,-3.104,-3.0314,-3.1872,-3.0212,-2.9297,-2.9399,-2.814,-2.7602,-2.7495,-2.7949,-2.8003,-2.7816,-2.8056,-2.8136,-2.8136,-2.8136,-2.8136,-2.8136,0.0,0.0,0.0,0.0,0.0,0.0,0.0,-1.8281,-1.9277,-2.1367,-2.0957,-2.041,-2.0332,-1.8867,-1.7734,0.0,0.0,0.0,0.0,0.0,0.0,0.0,0.0,0.0,0.0,0.0,0.0,-1.9355,-1.9727,0.0,0.0,0.0,0.0,0.0,0.0,-2.0566,-2.0566,-2.0605,0.0,0.0,0.0,0.0,0.0,0.0,0.0,0.0,0.0,-2.3115,-2.3032,-2.2786,-2.3855,-2.5102,-2.4827,-2.5791,-2.7464,-2.9103,-2.8991,-2.8426,-2.8426,-2.8545,-2.8545,-2.8426,-2.8545,-2.8707,-2.8829,-2.8594,-2.8203,-2.7715,-2.7324,-2.7324,-2.8144,-2.8672,-2.9238,-3.0059,-3.0644,-3.1562,-3.3184,-3.3789,-3.4375,-3.5234,-3.5703,-3.5957,-3.5957,-3.6348,-3.6621,-3.666,-3.5743,-3.5121,-3.5121,-3.3066,-3.3106,-3.5425,-3.3498,-3.2624,-3.2792,-3.2353,-3.1437,-2.9898,-2.9904,-2.9897,-3.0054,-2.8347,-2.7689,-2.7946,-2.7835,-2.7843,0.0,-2.8123,-2.8123,-2.811,-2.8136,-2.8136,-2.8136,-2.8136,-2.8136,-2.8136,0.0,0.0,0.0,0.0,0.0,0.0,-1.8144,-1.875,-1.9805,-2.1973,-2.1953,-2.1641,-2.1387,-2.0273,-1.9062,-1.7871,0.0,0.0,0.0,0.0,0.0,0.0,0.0,0.0,0.0,0.0,-1.9492,-1.9668,-2.0098,0.0,0.0,0.0,0.0,0.0,0.0,-2.0566,-2.0586,-2.0859,0.0,0.0,0.0,0.0,0.0,0.0,0.0,0.0,0.0,0.0,-2.3485,-2.3066,-2.4124,-2.5411,-2.5039,-2.5577,-2.6569,-2.7512,-2.7204,-2.6423,-2.5692,-2.6227,-2.6953,-2.6953,-2.7516,-2.8107,-2.8501,-2.8223,-2.7793,-2.7363,-2.7129,-2.7285,-2.8144,-2.8437,-2.8828,-2.9687,-3.0195,-3.0996,-3.2461,-3.3027,-3.3711,-3.4844,-3.5117,-3.5527,-3.6328,-3.6562,-3.6437,-3.5619,-3.3169,-3.1669,-3.1669,-3.1972,-3.2037,-3.1863,-3.1115,-3.0669,-3.0669,-2.9643,-2.9277,-2.9748,-2.8833,-2.8347,-2.8361,-2.7716,-2.7589,-2.7709,-2.7883,-2.803,0.0,-2.8136,-2.8136,-2.8136,-2.8136,-2.8136,-2.8136,-2.8136,-2.8136,-2.8136,0.0,0.0,0.0,0.0,0.0,-1.6992,-1.8594,-1.9199,-2.0156,-2.207,-2.2207,-2.2031,-2.1719,-2.0781,-1.9746,-1.8672,-1.8223,0.0,0.0,0.0,0.0,0.0,0.0,0.0,0.0,0.0,-2.0039,-2.0312,-2.0605,-2.084,0.0,0.0,-2.0762,-2.0762,0.0,0.0,0.0,0.0,0.0,0.0,0.0,0.0,0.0,0.0,0.0,0.0,0.0,0.0,0.0,0.0,0.0,-2.5312,-2.5137,-2.5553,-2.6221,-2.6995,-2.6266,-2.5163,-2.4439,-2.4778,-2.5253,-2.5253,-2.6201,-2.716,-2.7559,-2.7728,-2.7695,-2.7129,-2.7109,-2.7422,-2.8164,-2.8301,-2.8574,-2.9434,-2.9824,-3.0508,-3.1973,-3.2422,-3.3027,-3.418,-3.4434,-3.498,-3.6172,-3.6162,-3.542,-3.3403,-3.0819,-2.9138,-2.853,-3.0515,-3.0977,-2.9449,-2.9538,-2.9583,-2.9583,-2.8358,-2.8207,-2.9152,-2.8042,-2.7388,-2.7402,-2.7696,-2.7829,-2.7843,-2.8056,-2.8136,0.0,-2.8136,-2.8136,-2.8136,-2.8136,-2.8136,-2.8136,-2.8136,-2.8136,-2.8136,0.0,0.0,0.0,0.0,0.0,0.0,-1.9082,-1.9629,-2.0391,-2.1719,-2.1523,-2.125,-2.125,-2.0078,-1.9453,-1.9863,-1.873,0.0,0.0,0.0,0.0,0.0,0.0,0.0,0.0,0.0,-2.0352,-2.123,-2.123,-2.1445,-2.1855,-2.1426,-2.123,-2.1211,0.0,0.0,0.0,0.0,0.0,0.0,0.0,0.0,0.0,0.0,0.0,0.0,0.0,0.0,0.0,0.0,0.0,0.0,0.0,-2.5684,-2.6738,-2.8418,-2.72,-2.5386,-2.5885,-2.4778,-2.3574,-2.3574,-2.4511,-2.5377,-2.5856,-2.7168,-2.8047,-2.7187,-2.7363,-2.7793,-2.8203,-2.8301,-2.8574,-2.9434,-2.957,-3.0176,-3.1934,-3.2168,-3.248,-3.334,-3.3809,-3.4434,-3.5312,-3.5172,-3.342,-2.9713,-2.9434,-2.853,-2.6544,-2.8374,-2.9449,-2.9449,-2.9763,-2.9942,-2.9942,-3.0096,-2.931,-2.7268,-2.7562,-2.7696,-2.7709,-2.8003,-2.8136,-2.8136,-2.8136,-2.8136,0.0,-2.8136,-2.8136,-2.8136,-2.8136,-2.8136,-2.8136,-2.8136,-2.8136,-2.8136,0.0,0.0,0.0,0.0,0.0,0.0,0.0,-1.8769,-1.9394,-2.041,-2.041,-2.0449,-2.0742,-2.0137,-1.9766,-1.9902,-1.9004,0.0,0.0,0.0,0.0,0.0,0.0,0.0,0.0,-2.0664,-2.0957,-2.123,-2.1523,-2.1758,-2.1875,-2.1445,-2.123,-2.1211,-2.0762,-2.0566,0.0,0.0,0.0,0.0,0.0,0.0,0.0,0.0,0.0,0.0,0.0,0.0,0.0,0.0,0.0,0.0,0.0,0.0,0.0,-2.7383,-2.608,-2.4563,-2.5025,-2.4123,-2.3536,-2.5561,-2.6041,-2.6388,-2.7319,-2.7728,-2.7793,-2.7519,-2.7578,-2.7793,-2.8223,-2.8301,-2.8574,-2.9434,-2.957,-2.998,-3.1133,-3.1797,-3.1969,-3.1596,-3.1915,-3.3021,-3.4876,-3.2639,-3.0698,-2.9434,-2.8061,-2.7004,-2.6386,-2.7196,-2.761,-2.761,-2.9108,-2.9268,-2.8066,-2.8371,-2.8208,-2.7562,-2.7856,-2.8003,-2.8003,-2.8096,-2.8136,-2.8136,-2.8136,-2.8136,-2.8136,-2.8136,-2.8136,-2.8136,-2.8136,-2.8136,-2.8136,-2.8136,-2.8136,-2.8136,0.0,0.0,0.0,0.0,0.0,0.0,0.0,-1.8457,-1.8887,-1.959,-1.9531,-1.9668,-2.0254,-1.9785,-1.9629,-2.0117,-1.9531,0.0,0.0,0.0,0.0,0.0,0.0,0.0,-2.0547,-2.084,-2.1152,-2.1484,-2.1758,-2.2051,-2.2344,-2.1914,-2.1719,-2.1699,-2.1269,-2.1074,0.0,0.0,0.0,0.0,0.0,0.0,-2.3144,0.0,0.0,0.0,0.0,0.0,0.0,0.0,0.0,0.0,0.0,0.0,0.0,0.0,-2.5182,-2.3792,-2.499,-2.4509,-2.4023,-2.5775,-2.6363,-2.668,-2.7262,-2.7641,-2.7851,-2.7695,-2.7793,-2.7988,-2.8242,-2.8301,-2.8574,-2.9434,-2.957,-2.9754,-3.0206,-3.0812,-3.0784,-3.0031,-3.0674,-3.148,-3.2305,-3.0541,-2.9138,-2.8374,-2.7162,-2.644,-2.6547,-2.672,-2.6921,-2.7148,-2.8417,-2.8501,-2.7428,-2.7722,-2.7869,-2.7869,-2.8056,-2.8136,-2.8136,-2.8136,-2.8136,-2.8136,-2.8136,-2.8136,0.0,-2.8136,-2.8136,-2.8136,-2.8136,-2.8136,-2.8136,-2.8136,-2.8136,-2.8136,0.0,0.0,0.0,0.0,0.0,0.0,0.0,-1.8594,-1.873,-1.9141,-1.8848,-1.8887,-1.9687,-1.9102,-1.9141,-2.0371,0.0,0.0,0.0,0.0,0.0,0.0,0.0,0.0,-2.0508,-2.0605,-2.1074,-2.1894,-2.1953,-2.2383,-2.3125,-2.2715,-2.2519,-2.25,-2.207,-2.1894,-2.1953,0.0,0.0,0.0,-2.3144,-2.3144,0.0,0.0,0.0,0.0,0.0,0.0,0.0,0.0,0.0,0.0,0.0,0.0,0.0,0.0,0.0,0.0,0.0,-2.5525,-2.4663,-2.4746,-2.5673,-2.6478,-2.5936,-2.7112,0.0,-2.7695,-2.7949,-2.8262,-2.8281,-2.8301,-2.8574,-2.9361,-2.9478,-2.9336,-2.9136,-2.9083,-2.9077,-2.8914,-2.9725,-2.9771,-2.8342,-2.8783,-2.8374,-2.6544,-2.6413,-2.6533,-2.6814,-2.6867,-2.7134,-2.7682,-2.7722,-2.7736,-2.7736,-2.8003,-2.8136,-2.8136,-2.8136,-2.8136,-2.8136,-2.8136,-2.8136,0.0,-2.8136,-2.8136,-2.8136,-2.8136,-2.8136,-2.8136,-2.8136,-2.8136,-2.8136,-2.8136,-2.8136,-2.8136,0.0,0.0,0.0,0.0,0.0,0.0,0.0,0.0,0.0,0.0,-1.8223,-1.8242,-1.8437,-1.8574,-1.8887,0.0,0.0,0.0,0.0,0.0,0.0,0.0,0.0,0.0,-2.0059,-2.1055,-2.168,-2.1894,-2.2539,-2.2949,-2.3125,-2.2715,-2.2519,-2.25,-2.207,-2.207,-2.2363,-2.248,0.0,0.0,-2.3144,-2.3144,0.0,0.0,0.0,0.0,-2.2031,-2.2523,0.0,0.0,0.0,0.0,0.0,0.0,0.0,0.0,-2.4678,-2.4271,-2.5937,0.0,-2.3828,-2.4736,-2.6148,-2.7074,0.0,-2.6578,-2.7695,-2.7266,-2.7519,-2.791,-2.8242,-2.8301,-2.8237,-2.8233,-2.7911,-2.7678,-2.752,-2.7334,-2.8082,-3.0217,-2.8417,-2.7573,-2.8684,-2.7848,-2.6847,-2.6386,-2.66,-2.6747,-2.6814,-2.7255,-2.7562,-2.7696,-2.7923,-2.8043,-2.8043,-2.811,-2.8136,-2.8136,-2.8136,-2.8136,-2.8136,-2.8136,-2.8136,-2.8136,-2.8136,-2.8136,-2.8136,-2.8136,-2.8136,-2.8136,-2.8136,-2.8136,-2.8136,-2.8136,-2.8136,-2.8136,0.0,0.0,0.0,0.0,0.0,0.0,0.0,0.0,0.0,0.0,0.0,-1.8008,-1.8008,-1.8379,0.0,0.0,0.0,0.0,0.0,0.0,0.0,0.0,0.0,-1.9492,-1.9902,-2.082,-2.1484,-2.1894,-2.2344,-2.2754,-2.3125,-2.291,-2.2793,-2.2793,-2.2559,-2.248,-2.2519,-2.2715,-2.293,-2.3144,-2.3144,0.0,0.0,0.0,0.0,0.0,-2.1569,-2.2269,0.0,-2.0036,-2.1148,-2.3465,0.0,0.0,0.0,0.0,-2.3082,-2.3155,-2.469,-2.4209,-2.357,-2.4863,-2.5959,-2.6281,-2.4651,-2.539,-2.6418,-2.6088,-2.5848,-2.5968,-2.6849,-2.694,-2.6775,-2.6545,-2.6815,-2.6985,-2.6588,-2.6055,-2.6314,-2.8266,-2.7016,-2.6466,-2.7664,-2.6908,-2.6386,-2.6386,-2.6653,-2.6881,-2.7014,-2.7455,-2.7762,-2.7896,-2.8056,-2.8136,-2.8136,-2.8136,-2.8136,-2.8136,-2.8136,-2.8136,-2.8136,-2.8136,-2.8136,-2.8136,-2.8136,-2.8136,-2.8136,-2.8136,-2.8136,-2.8136,-2.8136,-2.8136,-2.8136,-2.8136,-2.8136,-2.8136,0.0,0.0,0.0,0.0,0.0,0.0,0.0,0.0,0.0,0.0,0.0,0.0,0.0,0.0,0.0,0.0,0.0,0.0,0.0,0.0,0.0,0.0,-1.9512,-1.9492,-1.9902,-2.0332,-2.1035,-2.1973,-2.2051,-2.248,-2.3242,-2.3242,-2.3203,-2.3144,-2.3144,-2.2949,-2.2637,-2.2988,-2.3144,-2.3144,-2.3144,0.0,0.0,0.0,0.0,0.0,0.0,0.0,0.0,-1.9176,-2.0039,-2.2143,-1.9756,0.0,0.0,0.0,0.0,0.0,-2.2863,-2.308,-2.3026,-2.4473,-2.4934,-2.4578,-2.317,-2.3699,-2.4557,-2.4557,-2.3909,-2.3729,-2.5089,-2.5201,-2.4935,-2.4952,-2.5833,-2.6306,-2.5886,-2.5216,-2.4957,-2.5451,-2.5812,-2.6106,-2.6306,-2.636,-2.6413,-2.6453,-2.672,-2.7014,-2.7321,-2.7615,-2.7883,-2.8136,-2.8136,-2.8136,-2.8136,-2.8136,-2.8136,-2.8136,-2.8136,-2.8136,-2.8136,-2.8136,-2.8136,-2.8136,-2.8136,0.0,-2.8136,-2.8136,-2.8136,-2.8136,-2.8136,-2.8136,-2.8136,-2.8136,-2.8136,-2.8136,0.0,0.0,0.0,0.0,0.0,0.0,0.0,0.0,0.0,0.0,0.0,0.0,0.0,0.0,0.0,0.0,0.0,0.0,0.0,0.0,0.0,-1.9922,-1.9512,-1.9492,-1.9902,-2.0332,-2.1172,-2.2422,-2.2793,-2.3223,-2.3691,-2.3691,-2.3496,-2.3144,-2.3144,-2.3105,-2.3047,-2.3105,-2.3144,-2.3144,-2.3144,0.0,0.0,0.0,0.0,0.0,0.0,0.0,0.0,-1.7596,-1.9319,-2.2451,-1.9004,0.0,0.0,0.0,0.0,0.0,-2.156,-2.0773,-2.0043,-2.181,-2.2682,-2.256,-2.0601,-2.1482,-2.2719,-2.2616,-2.2689,-2.3293,-2.4829,-2.4796,-2.4537,-2.4894,-2.4295,-2.4093,-2.4467,-2.4999,-2.5411,-2.5504,-2.5985,-2.6239,-2.6039,-2.6239,-2.6493,-2.6734,-2.7028,-2.7321,-2.7615,-2.7909,-2.8096,-2.8136,-2.8136,-2.8136,-2.8136,-2.8136,-2.8136,-2.8136,-2.8136,-2.8136,-2.8136,-2.8136,-2.8136,-2.8136,0.0,-2.8136,-2.8136,-2.8136,-2.8136,-2.8136,-2.8136,-2.8136,-2.8136,-2.8136,-2.8136,-2.8136,0.0,0.0,0.0,0.0,0.0,0.0,0.0,0.0,0.0,0.0,0.0,0.0,0.0,0.0,0.0,0.0,0.0,0.0,0.0,0.0,-2.0019,-2.0254,-2.0078,-2.0078,-2.0254,-2.0703,-2.1562,-2.2871,-2.3066,-2.3496,-2.4121,-2.3906,-2.3437,-2.2812,-2.3027,-2.3008,-2.2812,-2.3047,-2.3144,-2.3057,0.0,0.0,0.0,0.0,0.0,0.0,0.0,0.0,0.0,0.0,-1.8414,-2.0914,-1.7897,0.0,0.0,0.0,0.0,0.0,-2.0078,-1.9444,-1.881,-2.0651,-2.1775,-2.204,-2.0302,-2.1121,-2.2289,-2.1992,-2.1662,-2.1844,-2.3488,-2.3518,-2.3636,-2.4581,-2.3868,-2.3647,-2.4556,-2.489,-2.5211,-2.5692,0.0,-2.6159,-2.6186,-2.6306,-2.6507,-2.68,-2.7094,-2.7388,-2.7682,-2.7976,-2.8136,-2.8136,-2.8136,-2.8136,-2.8136,-2.8136,-2.8136,-2.8136,-2.8136,-2.8136,-2.8136,-2.8136,-2.8136,-2.8136,0.0,-2.8136,-2.8136,-2.8136,-2.8136,-2.8136,-2.8136,-2.8136,-2.8136,-2.8136,-2.8136,-2.8136,0.0,0.0,0.0,0.0,0.0,0.0,0.0,0.0,0.0,0.0,0.0,0.0,0.0,0.0,0.0,0.0,0.0,0.0,0.0,-1.9863,-2.0156,-2.0703,-2.0723,-2.0762,-2.0879,-2.1211,-2.2012,-2.332,-2.3398,-2.3789,-2.4414,-2.3984,-2.3202,-2.2227,-2.2814,-2.2776,-2.2227,-2.2553,-2.2687,-2.258,0.0,0.0,0.0,0.0,0.0,0.0,0.0,0.0,0.0,0.0,0.0,0.0,0.0,0.0,0.0,-1.7037,-1.7204,-1.8151,-1.8658,-1.8464,-1.8347,-1.9771,-2.0699,-2.1042,-2.0294,-2.0837,-2.1553,-2.1478,-2.0925,-2.0903,-2.2253,-2.2525,-2.2979,-2.4048,-2.3888,-2.3995,-2.5037,-2.505,-2.5224,-2.5972,-2.6052,-2.6146,-2.6373,-2.6453,-2.6613,-2.6907,-2.7201,-2.7495,-2.7789,-2.8016,-2.8136,-2.8136,-2.8136,-2.8136,-2.8136,-2.8136,-2.8136,-2.8136,-2.8136,-2.8136,-2.8136,-2.8136,-2.8136,-2.8136,-2.8136,-2.8136,-2.8136,-2.8136,-2.8136,-2.8136,-2.8136,-2.8136,-2.8136,-2.8136,-2.8136,-2.8136,0.0,0.0,0.0,0.0,0.0,0.0,0.0,0.0,0.0,0.0,0.0,0.0,0.0,0.0,0.0,0.0,0.0,0.0,0.0,-1.9687,-2.0293,-2.1152,-2.1191,-2.1367,-2.1777,-2.1816,-2.2461,-2.375,-2.4141,-2.4355,-2.4414,-2.3984,-2.298,-2.1444,-2.258,-2.2473,-2.1355,-2.1462,-2.1391,-2.1302,-2.0116,0.0,0.0,0.0,0.0,0.0,0.0,0.0,0.0,0.0,0.0,0.0,0.0,0.0,-1.8513,-1.7059,-1.6787,-1.6921,-1.7603,-1.7902,-1.8183,-1.8857,-1.8655,-1.8601,-1.9586,-1.9515,-1.9435,-2.051,-2.0967,-2.1216,-2.1907,-2.2645,-2.3207,-2.302,-2.3861,-2.4756,-2.5398,0.0,-2.5985,-2.6319,-2.636,-2.6373,-2.6386,-2.664,-2.6921,-2.7215,-2.7509,-2.7802,-2.8096,-2.8136,-2.8136,-2.8136,-2.8136,-2.8136,-2.8136,-2.8136,-2.8136,-2.8136,-2.8136,-2.8136,-2.8136,-2.8136,-2.8136,-2.8136,-2.8136,-2.8136,-2.8136,-2.8136,-2.8136,-2.8136,-2.8136,-2.8136,-2.8136,-2.8136,-2.8136,-2.8136,0.0,0.0,0.0,0.0,0.0,0.0,0.0,0.0,0.0,0.0,0.0,0.0,0.0,0.0,0.0,0.0,0.0,0.0,0.0,-1.9139,-2.0039,-2.1191,-2.0712,-2.0569,-2.082,-2.1237,-2.1961,-2.3038,-2.4236,-2.4294,-2.3261,-2.287,-2.217,-2.1302,-2.1765,-2.1747,-2.1302,-2.1302,-2.0836,-2.0116,-1.8872,-1.8149,0.0,0.0,0.0,0.0,0.0,0.0,0.0,0.0,-1.6739,-1.7675,-1.6375,-1.7049,-1.8066,-1.6826,-1.6567,-1.6794,-1.7208,-1.7809,-1.8424,-1.8824,-1.9025,-1.9399,-2.0388,-2.0722,-2.0949,-2.1403,-2.1871,-2.2271,-2.2485,-2.342,-2.3981,-2.35,-2.4262,-2.505,-2.5451,-2.5772,-2.6066,-2.636,-2.6386,-2.6386,-2.6386,-2.6653,-2.6947,-2.7241,-2.7535,-2.7829,-2.8123,-2.8136,-2.8136,-2.8136,-2.8136,-2.8136,-2.8136,-2.8136,-2.8136,-2.8136,-2.8136,-2.8136,-2.8136,-2.8136,-2.8136,-2.8136,-2.8136,-2.8136,-2.8136,-2.8136,-2.8136,-2.8136,-2.8136,-2.8136,-2.8136,-2.8136,-2.8136,-2.8136,0.0,0.0,0.0,0.0,0.0,0.0,0.0,0.0,0.0,0.0,0.0,0.0,0.0,0.0,0.0,0.0,0.0,0.0,-1.7624,-1.8396,-1.9335,-2.048,-2.0063,-1.9702,-1.9247,-2.0147,-2.1172,-2.2517,-2.3692,-2.3674,-2.2405,-2.1547,-2.0915,-2.0286,-2.0619,-2.0546,-2.0286,-2.0167,-1.9679,-1.8856,-1.7591,-1.7124,0.0,0.0,0.0,0.0,0.0,0.0,0.0,0.0,-1.6386,-1.6965,-1.6225,-1.6677,-1.7437,-1.6674,-1.6687,-1.7048,-1.7355,-1.7876,-1.8477,-1.9052,-1.9426,-1.9947,-2.1002,-2.1483,-2.1844,-2.2311,-2.2579,-2.2806,-2.31,-2.3661,-2.4008,-2.3808,-2.4583,-2.5291,-2.5478,-2.5852,-2.6159,-2.636,-2.6386,-2.6426,-2.652,-2.6787,-2.7081,-2.7375,-2.7669,-2.7923,-2.8136,-2.8136,-2.8136,-2.8136,-2.8136,-2.8136,-2.8136,-2.8136,-2.8136,-2.8136,-2.8136,-2.8136,-2.8136,-2.8136,-2.8136,-2.8136,-2.8136,-2.8136,-2.8136,-2.8136,-2.8136,-2.8136,-2.8136,-2.8136,-2.8136,-2.8136,-2.8136,-2.8136,0.0,0.0,0.0,0.0,0.0,0.0,0.0,0.0,0.0,0.0,0.0,0.0,0.0,0.0,0.0,0.0,0.0,0.0,-1.7081,-1.7624,-1.8203,-1.9,-1.9336,-1.8786,-1.7221,-1.8755,-2.0412,-2.2208,-2.2423,-2.2405,-2.1915,-2.0229,-1.8955,-1.8148,-1.9108,-1.8955,-1.8052,-1.7819,-1.7684,-1.7591,-1.6292,-1.5832,-1.5832,0.0,0.0,0.0,0.0,0.0,0.0,0.0,-1.5832,-1.5885,-1.6179,-1.6273,-1.6339,-1.662,-1.7114,-1.7649,-1.7956,-1.8036,-1.8317,-1.9506,-1.9599,-1.9773,-2.1229,-2.1336,-2.1537,-2.302,-2.2846,-2.2712,-2.3607,-2.3287,-2.3073,-2.3674,-2.4756,-2.5518,-2.5518,-2.6026,-2.6386,-2.6386,-2.6386,-2.6507,-2.6787,-2.7094,-2.7388,-2.7682,-2.7976,-2.8136,-2.8136,-2.8136,-2.8136,-2.8136,-2.8136,-2.8136,-2.8136,-2.8136,-2.8136,-2.8136,-2.8136,-2.8136,-2.8136,-2.8136,-2.8136,-2.8136,-2.8136,-2.8136,-2.8136,-2.8136,-2.8136,-2.8136,-2.8136,-2.8136,-2.8136,-2.8136,-2.8136,-2.8136,0.0,0.0,0.0,0.0,0.0,0.0,0.0,0.0,0.0,0.0,0.0,0.0,0.0,0.0,0.0,0.0,0.0,0.0,-1.7171,-1.737,-1.7712,-1.8506,-1.7446,-1.7004,-1.7227,-1.8584,-1.982,-2.1087,-2.2061,-2.1543,-1.9383,-1.8567,-1.8102,-1.7834,-1.8087,-1.8102,-1.7819,-1.7729,-1.7232,-1.6292,-1.5927,-1.5832,-1.5832,0.0,0.0,0.0,0.0,0.0,0.0,0.0,0.0,0.0,-1.5939,-1.6246,-1.6553,-1.6433,-1.6673,-1.7034,-1.7328,-1.817,-1.9052,-1.9412,-2.0508,-2.1577,-2.1804,-2.179,-2.2084,-2.338,-2.35,-2.3447,-2.3714,-2.3955,-2.4102,-2.4075,-2.489,-2.5585,-2.5798,-2.6146,-2.6386,-2.6386,-2.6386,-2.6507,-2.6787,-2.7094,-2.7388,-2.7682,-2.7976,-2.8136,-2.8136,-2.8136,-2.8136,-2.8136,-2.8136,-2.8136,-2.8136,-2.8136,-2.8136,-2.8136,-2.8136,-2.8136,-2.8136,-2.8136,-2.8136,-2.8136,-2.8136,-2.8136,-2.8136,-2.8136,-2.8136,-2.8136,-2.8136,-2.8136,-2.8136,-2.8136,-2.8136,-2.8136,0.0,0.0,0.0,0.0,0.0,0.0,0.0,0.0,-1.4673,-1.5591,-1.5124,-1.5273,0.0,0.0,0.0,-1.5019,-1.5241,-1.5479,-1.601,-1.6144,-1.648,-1.7008,-1.6293,-1.6286,-1.7096,-1.8073,-1.8803,-1.9063,-2.0195,-1.9772,-1.7852,-1.7246,-1.7079,-1.7323,-1.7323,-1.7323,-1.7309,-1.718,-1.6592,-1.5832,-1.5832,-1.5832,-1.5832,0.0,0.0,0.0,0.0,0.0,0.0,0.0,0.0,0.0,-1.5832,-1.6072,-1.6393,-1.6567,-1.6994,-1.7555,-1.8196,-1.9118,-2.0,-2.0468,-2.1336,-2.2151,-2.2445,-2.2605,-2.2926,-2.3768,-2.3848,-2.3848,-2.4075,-2.4302,-2.4489,-2.4543,-2.5197,-2.5758,-2.5932,-2.6199,-2.6386,-2.6386,-2.6493,-2.668,-2.6974,-2.7268,-2.7562,-2.7856,-2.8043,-2.8136,-2.8136,-2.8136,-2.8136,-2.8136,-2.8136,-2.8136,-2.8136,-2.8136,-2.8136,-2.8136,-2.8136,-2.8136,-2.8136,-2.8136,-2.8136,-2.8136,-2.8136,-2.8136,-2.8136,-2.8136,-2.8136,-2.8136,-2.8136,-2.8136,-2.8136,-2.8136,-2.8136,-2.8136,0.0,0.0,0.0,0.0,0.0,0.0,0.0,-1.2946,-1.3127,-1.4096,-1.3075,-1.2783,0.0,0.0,0.0,-1.3331,-1.3074,-1.3355,-1.4276,-1.4606,-1.4844,-1.5087,-1.5807,-1.6282,-1.6668,-1.7371,-1.7371,-1.6638,-1.7402,-1.7567,-1.6995,-1.6234,-1.6126,-1.666,-1.666,-1.666,-1.6647,-1.6353,-1.6072,-1.5832,-1.5832,-1.5832,-1.5832,-1.5832,0.0,0.0,0.0,0.0,0.0,0.0,0.0,0.0,-1.5832,-1.5845,-1.6019,-1.6807,-1.7702,-1.8677,-1.9746,-2.0361,-2.0975,-2.2071,-2.2031,-2.2004,-2.3113,-2.3594,-2.3888,-2.4155,-2.4022,-2.4022,-2.4569,-2.4462,-2.4476,-2.5064,-2.5611,-2.5972,-2.5999,-2.6226,-2.64,-2.6426,-2.6653,-2.6947,-2.7268,-2.7549,-2.7816,-2.8123,-2.8136,-2.8136,-2.8136,-2.8136,-2.8136,-2.8136,-2.8136,-2.8136,-2.8136,-2.8136,-2.8136,-2.8136,-2.8136,-2.8136,-2.8136,-2.8136,-2.8136,-2.8136,-2.8136,-2.8136,-2.8136,-2.8136,-2.8136,-2.8136,-2.8136,-2.8136,-2.8136,-2.8136,-2.8136,-2.8136,0.0,0.0,0.0,0.0,0.0,0.0,-1.3213,-1.2946,-1.3127,-1.4096,-1.3075,-1.2783,-1.4051,-1.3341,0.0,-1.4243,-1.4045,-1.4411,-1.5567,-1.482,-1.4647,-1.5397,-1.6134,-1.6184,-1.5397,-1.6388,-1.6271,-1.4952,-1.6713,-1.6901,-1.5759,-1.5779,-1.6019,-1.6366,-1.6366,-1.6366,-1.6353,-1.6046,-1.5885,-1.5832,-1.5832,-1.5832,-1.5832,-1.5832,-1.5832,0.0,0.0,0.0,0.0,0.0,0.0,0.0,-1.5832,-1.5992,-1.6166,-1.6126,-1.7061,-1.817,-1.845,-1.9733,-2.1136,-2.1617,-2.2352,-2.3073,-2.3567,-2.3901,-2.4128,-2.4195,-2.4329,-2.4556,-2.4917,-2.493,-2.5077,-2.5678,-2.5879,-2.6039,-2.6266,-2.6346,-2.6466,-2.6707,-2.6787,-2.7028,-2.7549,-2.7669,-2.7816,-2.8123,-2.8136,-2.8136,-2.8136,-2.8136,-2.8136,-2.8136,-2.8136,-2.8136,-2.8136,-2.8136,-2.8136,-2.8136,-2.8136,-2.8136,-2.8136,-2.8136,-2.8136,-2.8136,-2.8136,-2.8136,-2.8136,-2.8136,-2.8136,-2.8136,-2.8136,-2.8136,-2.8136,-2.8136,-2.8136,-2.8136,0.0,0.0,0.0,0.0,0.0,0.0,0.0,0.0,-1.3097,-1.3234,-1.2818,-1.2798,-1.3478,-1.3113,0.0,0.0,-1.3676,-1.3849,-1.4617,-1.4036,-1.4214,-1.5205,-1.5786,-1.5715,-1.5053,-1.5562,-1.5339,-1.4309,-1.5301,-1.5609,-1.519,-1.5484,-1.5858,-1.6286,-1.642,-1.6326,-1.6059,-1.6046,-1.5885,-1.5631,-1.5765,-1.5832,-1.5832,-1.5832,-1.5832,-1.5832,-1.5832,0.0,0.0,0.0,0.0,0.0,0.0,0.0,-1.6112,-1.638,-1.7101,-1.8023,-1.9038,-2.0187,-2.1323,-2.2191,-2.2979,-2.3621,-2.3915,-2.4209,-2.4409,-2.4409,-2.4529,-2.473,-2.5024,-2.5197,-2.5438,-2.5879,-2.6079,-2.6213,-2.6373,-2.6386,-2.6493,-2.6787,-2.6947,-2.7215,-2.7655,-2.7829,-2.7976,-2.8136,-2.8136,-2.8136,-2.8136,-2.8136,-2.8136,-2.8136,-2.8136,-2.8136,-2.8136,-2.8136,-2.8136,-2.8136,-2.8136,-2.8136,-2.8136,-2.8136,-2.8136,-2.8136,-2.8136,-2.8136,-2.8136,-2.8136,-2.8136,-2.8136,-2.8136,-2.8136,-2.8136,-2.8136,-2.8136,-2.8136,0.0,0.0,0.0,0.0,0.0,0.0,0.0,0.0,0.0,-1.2438,-1.2599,-1.2822,-1.2822,-1.2782,-1.2799,0.0,0.0,0.0,-1.3186,-1.3307,-1.3814,-1.4843,-1.5164,-1.5204,-1.4963,-1.491,-1.4643,-1.4162,-1.4108,-1.4389,-1.4977,-1.5257,-1.5712,-1.6286,-1.6526,-1.6339,-1.5845,-1.6032,-1.5818,-1.5351,-1.5631,-1.5752,-1.5765,-1.5805,-1.5832,-1.5832,-1.5832,-1.5832,-1.5832,-1.5832,0.0,0.0,0.0,0.0,-1.5965,-1.67,-1.7275,-1.8036,-1.9746,-2.0695,-2.1537,-2.2966,-2.3554,-2.3848,-2.4142,-2.4422,-2.4636,-2.4636,-2.4676,-2.4796,-2.5104,-2.5398,-2.5692,-2.5985,-2.6239,-2.6386,-2.6386,-2.6426,-2.6573,-2.6867,-2.7161,-2.7455,-2.7749,-2.8003,-2.8136,-2.8136,-2.8136,-2.8136,-2.8136,-2.8136,-2.8136,-2.8136,-2.8136,-2.8136,-2.8136,-2.8136,-2.8136,-2.8136,-2.8136,-2.8136,-2.8136,-2.8136,-2.8136,-2.8136,-2.8136,-2.8136,-2.8136,-2.8136,-2.8136,-2.8136,-2.8136,-2.8136,-2.8136,-2.8136,-2.8136,-2.815,0.0,0.0,0.0,0.0,0.0,0.0,0.0,0.0,0.0,0.0,-1.2795,-1.2822,-1.2822,-1.2518,-1.2478,-1.2862,-1.2532,-1.2599,-1.3173,0.0,0.0,-1.4563,-1.4856,-1.5003,-1.4963,-1.471,-1.4536,-1.4469,-1.4215,-1.4389,-1.4977,-1.5257,-1.5712,-1.6273,-1.6313,-1.6139,-1.5818,-1.5605,-1.5324,-1.5044,-1.5337,-1.5458,-1.5484,-1.5725,-1.5832,-1.5832,-1.5832,-1.5832,-1.5832,-1.5832,-1.5832,0.0,0.0,0.0,-1.5845,-1.5965,-1.6927,-1.8023,-1.829,-1.9893,-2.179,-2.302,-2.3554,-2.3848,-2.4142,-2.4422,-2.4636,-2.4636,-2.4836,-2.5117,-2.5398,-2.5692,-2.5985,-2.6279,-2.636,-2.6386,-2.6386,-2.66,-2.6881,-2.7175,-2.7468,-2.7762,-2.8056,-2.8123,-2.8136,-2.8136,-2.8136,-2.8136,-2.8136,-2.8136,-2.8136,-2.8136,-2.8136,-2.8136,-2.8136,-2.8136,-2.8136,-2.8136,-2.8136,-2.8136,-2.8136,-2.8136,-2.8136,-2.8136,-2.8136,-2.8136,-2.8136,-2.8136,-2.8136,-2.8136,-2.8136,-2.8136,-2.8136,-2.8136,-2.8136,-2.8177,0.0,0.0,0.0,0.0,0.0,0.0,0.0,0.0,0.0,0.0,0.0,-1.2946,-1.2835,-1.2701,-1.2532,-1.2505,-1.2371,-1.2478,-1.2919,-1.3507,-1.3975,-1.4269,-1.4563,-1.471,-1.471,-1.4429,-1.4282,-1.4282,-1.3988,-1.4229,-1.4963,-1.5097,-1.5471,-1.6019,-1.5858,-1.5618,-1.5337,-1.5204,-1.4977,-1.4736,-1.503,-1.5551,-1.6086,-1.5725,-1.5992,-1.65,-1.6005,-1.5832,-1.5832,-1.5832,-1.5832,-1.5832,-1.5832,0.0,0.0,0.0,-1.6406,-1.7328,-1.8651,-2.0254,-2.1884,-2.3233,-2.3674,-2.3888,-2.4342,-2.4543,-2.4636,-2.4636,-2.4997,-2.5358,-2.5491,-2.5758,-2.6052,-2.6346,-2.6386,-2.6386,-2.6386,-2.664,-2.6934,-2.7228,-2.7522,-2.7816,-2.811,-2.8136,-2.8136,-2.8136,-2.8136,-2.8136,-2.8136,-2.8136,-2.8136,-2.8136,-2.8136,-2.8136,-2.8136,-2.8136,-2.8136,-2.8136,-2.8136,-2.8136,-2.8136,-2.8136,-2.8136,-2.8136,-2.8136,-2.8136,-2.8136,-2.8136,-2.8136,-2.8136,-2.8136,-2.8136,-2.8136,-2.8136,-2.8257,-2.8417,0.0,0.0,0.0,0.0,0.0,0.0,0.0,0.0,0.0,0.0,0.0,-1.312,-1.2893,0.0,0.0,0.0,-1.2305,-1.2425,-1.2808,-1.316,-1.3587,-1.3961,-1.4175,-1.4335,-1.4402,-1.4122,-1.4015,-1.4082,-1.3868,-1.4175,-1.4963,-1.5044,-1.5337,-1.5818,-1.5605,-1.5351,-1.507,-1.499,-1.479,-1.4563,-1.5084,-1.5818,-1.6567,-1.6286,-1.6727,-1.7368,-1.6486,-1.6166,-1.6126,-1.5912,-1.5832,-1.5832,-1.5832,-1.5832,0.0,0.0,0.0,-1.674,-1.8891,-2.016,-2.1296,-2.3006,-2.3487,-2.3728,-2.4476,-2.4636,-2.4663,0.0,-2.5157,-2.5531,-2.5611,-2.5865,-2.6132,-2.636,-2.6386,-2.6413,-2.6493,-2.6747,-2.7041,-2.7335,-2.7629,-2.7896,-2.8123,-2.8136,-2.8136,-2.8136,-2.8136,-2.8136,-2.8136,-2.8136,-2.8136,-2.8136,-2.8136,-2.8136,-2.8136,-2.8136,-2.8136,-2.8136,-2.8136,-2.8136,-2.8136,-2.8136,-2.8136,-2.8136,-2.8136,-2.8136,-2.8136,-2.8136,-2.8136,-2.8136,-2.8136,-2.819,-2.8257,-2.8257,-2.8457,-2.8724,0.0,0.0,0.0,0.0,0.0,0.0,0.0,0.0,0.0,0.0,0.0,-1.32,-1.3186,-1.2919,-1.2701,-1.2331,-1.2305,-1.2425,-1.2808,-1.2849,-1.3053,-1.3641,-1.3681,0.0,-1.4108,-1.3814,-1.3801,-1.4082,-1.4068,-1.4376,-1.4977,-1.5244,-1.5538,-1.5832,-1.5818,-1.5645,-1.5351,-1.5084,-1.479,-1.4616,-1.5752,-1.6246,-1.6446,-1.7809,-1.837,-1.8303,-1.7408,-1.7074,-1.6954,-1.6112,-1.5832,-1.5832,-1.5832,-1.5832,-1.5832,0.0,0.0,0.0,-1.8143,-1.8811,-1.9613,-2.1911,-2.2699,-2.322,-2.4369,-2.4636,-2.4716,-2.4997,-2.5304,-2.5598,-2.5879,-2.6172,-2.6373,-2.6386,-2.6386,-2.6493,-2.676,-2.7054,-2.7348,-2.7642,-2.7936,-2.8123,-2.8136,-2.8136,-2.8136,-2.8136,-2.8136,-2.8136,-2.8136,-2.8136,-2.8136,-2.8136,-2.8136,-2.8136,-2.8136,-2.8136,-2.8136,-2.8136,-2.8136,-2.8136,-2.8136,-2.8136,-2.8136,-2.8136,-2.8136,-2.8136,-2.8136,-2.8136,-2.8136,-2.8136,-2.8136,-2.8323,-2.8577,-2.8577,-2.8764,-2.9058,0.0,0.0,0.0,0.0,0.0,0.0,0.0,0.0,0.0,0.0,0.0,0.0,0.0,-1.3106,-1.2839,-1.2345,-1.2305,-1.2345,-1.2452,-1.2714,-1.2933,-1.3347,-1.3547,-1.3788,-1.4082,-1.3614,-1.3507,-1.3801,-1.3614,-1.3921,-1.4683,-1.4977,-1.5378,-1.5805,-1.5444,-1.5324,-1.5351,-1.4683,-1.4563,-1.487,-1.5671,-1.6553,-1.7448,-1.7996,-1.8677,-1.9212,-1.833,-1.7635,-1.7101,-1.678,-1.6299,-1.5832,-1.5832,-1.5832,-1.5832,-1.5832,-1.6046,-1.6553,-1.7849,-1.8424,-1.9118,-2.1082,-2.2084,-2.2792,-2.3607,-2.4235,-2.4716,-2.5024,-2.5304,-2.5598,-2.5905,-2.6199,-2.6386,-2.6386,-2.6386,-2.6493,-2.6787,-2.7081,-2.7375,-2.7669,-2.7963,-2.8136,-2.8136,-2.8136,-2.8136,-2.8136,-2.8136,-2.8136,-2.8136,-2.8136,-2.8136,-2.8136,-2.8136,-2.8136,-2.8136,-2.8136,-2.8136,-2.8136,-2.8136,-2.8136,-2.8136,-2.8136,-2.8136,-2.8136,-2.8136,-2.8136,-2.8136,-2.8136,-2.8257,-2.8444,-2.8444,-2.8617,-2.8885,-2.8885,-2.9072,-2.9339,0.0,0.0,0.0,0.0,0.0,0.0,0.0,0.0,-1.2639,-1.3146,0.0,0.0,0.0,0.0,-1.3106,-1.2505,-1.2452,-1.2412,-1.2305,-1.2492,-1.2786,-1.3186,-1.34,-1.3681,-1.4082,-1.3614,-1.3507,-1.3788,-1.3601,-1.3854,-1.4522,-1.483,-1.5217,-1.5658,-1.507,-1.5084,-1.5498,-1.4816,-1.475,-1.519,-1.6179,-1.6981,-1.7662,-1.8477,-1.9078,-1.9426,-1.8851,-1.825,-1.7729,-1.7635,-1.7275,-1.6794,-1.6393,-1.6072,-1.5832,-1.5832,-1.5965,-1.6339,-1.7328,-1.7809,-1.849,-2.0347,-2.1256,-2.2004,-2.3207,-2.3848,-2.4396,-2.5077,-2.5384,-2.5638,-2.6026,-2.6266,-2.6386,-2.6386,-2.6466,-2.664,-2.6934,-2.7228,-2.7522,-2.7816,-2.8016,-2.8136,-2.8136,-2.8136,-2.8136,-2.8136,-2.8136,0.0,-2.8136,-2.8136,-2.8136,-2.8136,-2.8136,-2.8136,-2.8136,-2.8136,-2.8136,-2.8136,-2.8136,-2.8136,-2.8136,-2.8136,-2.8136,-2.8136,-2.8136,-2.8136,-2.815,-2.8257,-2.8417,-2.8617,-2.8711,-2.8925,-2.9192,-2.9192,-2.9379,-2.9633,0.0,0.0,0.0,0.0,0.0,0.0,-1.3227,-1.2959,-1.2866,-1.3186,0.0,0.0,0.0,0.0,0.0,-1.2903,-1.2849,-1.2714,-1.2331,-1.2318,-1.2585,-1.3186,-1.3213,-1.348,-1.4068,-1.3801,-1.3788,-1.4068,-1.4068,-1.4229,-1.4509,-1.4816,-1.511,-1.5364,-1.479,-1.5003,-1.5778,-1.5484,-1.5378,-1.5565,-1.7301,-1.7502,-1.7007,-1.9332,-1.9706,-1.8985,-1.8985,-1.8971,-1.8918,-1.8637,-1.8691,-1.8677,-1.7488,-1.6526,-1.5832,-1.5832,-1.5832,-1.5952,0.0,0.0,0.0,-1.9653,-2.0187,-2.0815,-2.314,-2.346,-2.3688,-2.517,-2.5478,-2.5665,-2.6279,-2.6386,-2.6386,-2.6386,-2.664,-2.6921,-2.7228,-2.7509,-2.7802,-2.811,-2.8136,-2.8136,-2.8136,-2.8136,-2.8136,-2.8136,-2.8136,-2.8136,-2.8136,-2.8136,-2.8136,-2.8136,-2.8136,-2.8136,-2.8136,-2.8136,-2.8136,-2.8136,-2.8136,-2.8136,-2.8136,-2.8136,-2.8136,-2.8136,-2.8136,-2.815,-2.8177,-2.8484,-2.8604,-2.8644,-2.8938,-2.9232,-2.9499,-2.9499,-2.9673,-2.9913,0.0,0.0,0.0,0.0,0.0,-1.352,-1.352,-1.3267,-1.3186,0.0,0.0,0.0,-1.3667,-1.3559,-1.3574,-1.3414,-1.34,-1.3173,-1.2652,-1.2625,-1.2799,-1.3186,-1.3213,-1.348,-1.4068,-1.3801,-1.3681,-1.3761,-1.3761,-1.3921,-1.4215,-1.4509,-1.4803,-1.507,-1.491,-1.4977,-1.5164,-1.4669,-1.4937,-1.5765,-1.6486,-1.7261,-1.8143,-1.9426,-2.016,-2.0508,-2.0508,-2.0227,-1.9853,-1.9773,-1.8945,-1.7742,-1.6567,-1.6032,-1.5832,-1.5832,-1.5832,-1.5912,-1.6286,0.0,0.0,0.0,0.0,0.0,-2.0962,-2.1643,-2.2525,-2.4222,-2.4569,-2.4943,-2.6159,-2.6386,-2.6386,-2.6386,-2.664,-2.6921,-2.7228,-2.7509,-2.7802,-2.811,-2.8136,-2.8136,-2.8136,0.0,0.0,0.0,-2.8136,-2.8136,-2.8136,-2.8136,-2.8136,-2.8136,-2.8136,-2.8136,-2.8136,-2.8136,-2.8136,-2.8136,-2.8136,-2.8136,-2.8136,-2.8136,-2.8136,-2.8136,-2.8136,-2.827,-2.8484,-2.8577,-2.8724,-2.8951,-2.9245,-2.9539,-2.9793,-2.9793,-2.9847,-2.9913,0.0,0.0,-1.4269,-1.4269,-1.4122,-1.4015,-1.4015,-1.3868,-1.3814,0.0,0.0,0.0,-1.4215,-1.4188,-1.4095,-1.3854,-1.3828,-1.3574,-1.2973,-1.2946,-1.308,-1.3373,-1.3387,-1.3667,-1.4255,-1.3975,-1.3895,-1.4015,-1.3895,-1.3921,-1.4095,-1.4255,-1.4496,-1.4776,-1.4656,-1.4803,-1.511,-1.4509,-1.4803,-1.5738,-1.678,-1.7488,-1.8076,-1.9452,-2.0147,-2.0428,-2.0802,-2.0628,-2.0307,-2.0802,-1.9706,-1.8036,-1.7475,-1.6714,-1.5992,-1.5872,-1.6005,-1.6233,-1.6406,-1.6673,-1.7061,-1.7782,0.0,0.0,-2.0641,-2.1269,-2.2164,0.0,-2.4743,-2.509,-2.6186,-2.6386,-2.6386,-2.6386,-2.664,-2.6921,-2.7228,-2.7509,-2.7802,-2.811,-2.8136,0.0,0.0,-2.8136,-2.8136,-2.8136,-2.8136,-2.8136,-2.8136,-2.8136,-2.8136,-2.8136,-2.8136,-2.8136,-2.8136,-2.8136,-2.8136,-2.8136,-2.8136,-2.8136,-2.8136,-2.8136,-2.8136,-2.815,-2.8283,-2.8444,-2.8631,-2.8871,-2.9072,-2.9259,-2.9553,-2.9766,-2.9913,-2.9913,-2.9913,-2.9913,0.0,-1.4389,-1.4563,-1.4563,-1.4563,-1.4563,-1.4563,-1.4563,-1.4563,0.0,-1.4803,-1.499,-1.5057,-1.503,-1.4803,-1.4282,-1.4202,-1.3935,-1.3347,-1.328,-1.3373,-1.3546,-1.3681,-1.3935,-1.4456,-1.4282,-1.4282,-1.4469,-1.4242,-1.4135,-1.4135,-1.4095,-1.4242,-1.4509,-1.4215,-1.4536,-1.5271,-1.4776,-1.4963,-1.5752,-1.7569,-1.7916,-1.7555,-1.9492,-1.9987,-1.976,-2.0548,-2.0668,-2.0615,-2.1563,-2.0681,-1.9172,-1.9199,-1.8023,-1.6526,-1.6059,-1.6366,-1.6834,-1.6727,-1.6941,-1.7382,-1.8156,-1.825,0.0,-2.1029,-2.143,-2.2004,0.0,-2.4997,-2.5224,-2.5879,-2.6026,-2.6052,-2.6052,-2.6373,-2.6774,-2.7201,-2.7509,-2.7802,0.0,0.0,0.0,-2.8136,-2.8136,-2.8136,-2.8136,-2.8136,-2.8136,-2.8136,-2.8136,-2.8136,-2.8136,-2.8136,-2.8136,-2.8136,-2.8136,-2.8136,-2.8136,-2.8136,-2.8136,-2.8136,-2.8136,-2.8136,-2.8163,-2.847,-2.8631,-2.8698,-2.9259,-2.9486,-2.9513,-2.9806,-2.9913,-2.9913,-2.9913,-2.9913,-2.9913,-1.4736,-1.4843,-1.4883,-1.4883,-1.4883,-1.4883,-1.4883,-1.4883,-1.4883,-1.4883,-1.4923,-1.5137,-1.5605,-1.5444,-1.5271,-1.515,-1.4923,-1.4549,-1.3961,-1.3694,-1.3587,-1.3641,-1.3868,-1.4055,-1.4175,-1.4576,-1.4589,-1.4175,-1.4349,-1.4442,-1.4429,-1.4202,-1.4242,-1.4509,-1.4215,-1.4309,-1.4696,-1.483,-1.5631,-1.682,-1.6994,-1.7662,-1.8704,-1.9813,-2.0748,-2.1496,-2.167,-2.1844,-2.1924,-2.1443,-2.1015,-2.0401,-1.8784,-1.8504,-1.8477,-1.6967,-1.7114,-1.7609,-1.6901,-1.7088,-1.7488,-1.7422,-1.809,0.0,-1.8811,-1.9319,-2.0147,0.0,-2.1804,-2.2298,-2.3354,-2.3754,-2.3928,-2.3928,-2.477,-2.5852,-2.7094,-2.7509,0.0,0.0,0.0,0.0,-2.8136,-2.8136,-2.8136,-2.8136,-2.8136,-2.8136,-2.8136,-2.8136,-2.8136,-2.8136,-2.8136,-2.8136,-2.8136,-2.8136,-2.8136,-2.8136,-2.8136,-2.8136,-2.8136,-2.8136,-2.8136,-2.8163,-2.847,-2.8738,-2.8978,-2.9339,-2.9486,-2.9513,-2.9806,-2.9913,-2.9913,-2.9913,-2.9913,-2.9913,-1.491,-1.5084,-1.5177,-1.5177,-1.5297,-1.5444,-1.5591,-1.5618,-1.5671,-1.5818,-1.5712,-1.5725,-1.6019,-1.5792,-1.5551,-1.5404,-1.5257,-1.4937,-1.4335,-1.4162,-1.4015,-1.3868,-1.4001,-1.4229,-1.4522,-1.4522,-1.4522,-1.4522,-1.4376,-1.4309,-1.4295,-1.4162,-1.4469,-1.515,-1.4563,-1.479,-1.5591,-1.5297,-1.5685,-1.6567,-1.7462,-1.8611,-1.9893,-2.0775,-2.1563,-2.2205,-2.2205,-2.2392,-2.2525,-2.179,-2.1162,-2.0535,-1.98,-1.9372,-1.8918,-1.7729,-1.7889,-1.825,-1.7208,-1.7248,-1.7622,-1.7782,-1.8036,0.0,0.0,-1.9479,-2.0,-2.147,-2.1764,-2.2031,-2.2926,-2.322,-2.3327,-2.3327,-2.4315,-2.5237,-2.5678,-2.6747,-2.7642,0.0,0.0,0.0,-2.8136,-2.8136,-2.8136,-2.8136,-2.8136,-2.8136,-2.8136,-2.8136,-2.8136,-2.8136,-2.8136,-2.8136,-2.8136,-2.8136,-2.8136,-2.8136,-2.8136,-2.8136,-2.8136,-2.8136,-2.8136,-2.8163,-2.8631,-2.8911,-2.9072,-2.9513,-2.97,-2.9713,-2.986,-2.9913,-2.9913,-2.9913,-2.9913,-2.9913,-1.4977,-1.5284,-1.5484,-1.5484,-1.5671,-1.5912,-1.6152,-1.6192,-1.6286,-1.658,-1.6473,-1.6393,-1.6513,-1.6366,-1.6192,-1.6005,-1.5939,-1.5631,-1.4977,-1.4883,-1.475,-1.4522,-1.4349,-1.4536,-1.5124,-1.4563,-1.4429,-1.479,-1.4376,-1.4175,-1.4175,-1.4108,-1.4656,-1.5631,-1.5097,-1.5458,-1.642,-1.5939,-1.6032,-1.666,-1.833,-1.9439,-2.0201,-2.1309,-2.1911,-2.2205,-2.2485,-2.2752,-2.2859,-2.2271,-2.1443,-2.0681,-2.0815,-2.0281,-1.9399,-1.8424,-1.8744,-1.9145,-1.7849,-1.7742,-1.809,-1.841,-1.825,-1.8384,0.0,0.0,0.0,-2.1777,-2.1964,-2.1977,-2.2472,0.0,0.0,0.0,0.0,0.0,0.0,-2.5491,0.0,-2.7402,0.0,0.0,0.0,-2.7802,-2.7896,-2.8123,-2.7936,-2.7909,-2.8136,-2.8136,-2.8136,-2.8136,-2.8136,-2.8136,-2.8136,-2.8136,-2.8136,-2.8136,-2.8136,-2.8136,-2.815,-2.8203,-2.823,-2.827,-2.8871,-2.9125,-2.9165,-2.97,-2.9913,-2.9913,-2.9913,-2.9913,-2.9913,-2.9913,-2.9913,-2.9913,-1.5244,-1.5578,-1.5778,-1.5778,-1.5805,-1.5845,-1.5872,-1.5885,-1.5992,-1.6286,-1.6513,-1.686,-1.7382,-1.7649,-1.7889,-1.8116,-1.7876,-1.7355,-1.6513,-1.6219,-1.6059,-1.6019,-1.5284,-1.5137,-1.5712,-1.5164,-1.4643,-1.4188,-1.4376,-1.4469,-1.4469,-1.4202,-1.4442,-1.5097,-1.5765,-1.5872,-1.5605,-1.6553,-1.7729,-1.8985,-1.9225,-1.8758,0.0,-2.008,-2.1002,-2.143,-2.2752,-2.3247,-2.318,0.0,-2.2285,-2.1911,-2.0414,-2.0895,-2.155,-1.9145,-1.9773,-2.0882,-1.9185,-1.9132,-1.9372,-1.8664,-1.9025,-1.9332,-1.8531,0.0,-1.9412,-1.9372,0.0,-1.9733,-1.98,0.0,0.0,0.0,0.0,0.0,-2.2592,-2.3728,-2.4676,-2.4997,0.0,0.0,0.0,-2.6587,-2.7028,-2.807,-2.7175,-2.7041,-2.8083,-2.8136,-2.8136,-2.8136,-2.8136,-2.8136,-2.8136,-2.8136,-2.8136,-2.8136,-2.8136,-2.8136,-2.815,-2.843,-2.8551,-2.8591,-2.9179,-2.9432,-2.9459,-2.978,-2.9913,-2.9913,-2.9913,-2.9913,-2.9913,-2.9913,-2.9913,-2.9913,-1.5311,-1.5498,-1.5631,-1.5805,-1.5832,-1.5885,-1.6059,-1.6526,-1.6834,-1.678,-1.7034,-1.7315,-1.7555,-1.7542,-1.7716,-1.817,-1.8103,-1.7662,0.0,-1.6593,-1.6219,-1.5538,-1.5164,-1.5084,-1.5324,-1.4923,-1.4589,-1.4335,-1.4295,-1.4269,-1.4269,-1.4322,-1.483,-1.5752,-1.646,-1.7034,-1.7448,-1.7609,-1.7929,-1.8357,-1.8718,-1.845,0.0,-2.0895,-2.2138,-2.2498,-2.33,-2.3581,-2.3541,0.0,-2.2632,-2.1937,-2.2071,-2.167,-2.1029,-2.0441,-2.0521,-2.0548,-1.9479,-1.9613,-1.988,-1.9172,-1.9279,-1.9426,-1.8931,-1.8838,-1.8971,-1.9345,0.0,0.0,0.0,0.0,0.0,0.0,-2.1029,-2.179,0.0,0.0,-2.4128,0.0,0.0,0.0,0.0,0.0,0.0,0.0,-2.7054,-2.6907,-2.8083,-2.8136,-2.8136,-2.8136,-2.8136,-2.8136,-2.8136,-2.8136,-2.8136,-2.8136,-2.8136,-2.8136,-2.815,-2.847,-2.8604,-2.8644,-2.9232,-2.9486,-2.9499,-2.9793,-2.9913,-2.9913,-2.9913,-2.9913,-2.9913,-2.9913,-2.9913,-2.9913,-1.5324,-1.5458,-1.5578,-1.5792,-1.5832,-1.5925,-1.6233,-1.674,-1.7114,-1.7141,-1.7328,-1.7622,-1.8023,-1.7956,-1.8143,-1.8811,-1.8878,-1.8504,0.0,0.0,-1.6927,-1.6313,-1.5511,-1.5311,-1.5792,-1.5044,-1.4643,-1.4643,-1.4349,-1.4242,-1.4335,-1.4456,-1.5057,-1.6072,-1.6901,-1.7742,-1.8557,-1.8531,-1.8584,-1.8704,-1.9145,-1.9439,-1.984,-2.1857,-2.2966,-2.3487,-2.3781,-2.3888,-2.3861,-2.3701,-2.2926,0.0,-2.302,-2.2271,-2.1162,-2.155,-2.1456,-2.1015,-2.0187,-2.0334,-2.0494,-1.9586,-1.9426,-1.9426,-1.9185,-1.8918,-1.8931,-1.9653,-1.9693,0.0,0.0,0.0,-1.9893,-1.9813,0.0,-2.1176,-2.0241,-2.167,0.0,0.0,0.0,0.0,0.0,0.0,0.0,0.0,0.0,-2.656,-2.8056,-2.8136,-2.8136,-2.8136,-2.8136,-2.8136,-2.8136,-2.8136,-2.8136,-2.8136,-2.8136,-2.8136,-2.8163,-2.8551,-2.8724,-2.8764,-2.9352,-2.9606,-2.9619,-2.9833,-2.9913,-2.9913,-2.9913,-2.9913,-2.9913,-2.9913,-2.9913,-2.9913,-1.5284,-1.5618,-1.5818,-1.5832,-1.5832,-1.5925,-1.6233,-1.6046,-1.6192,-1.7034,-1.7257,-1.7716,-1.9158,-1.9546,-2.0067,-2.0935,0.0,-2.0641,-1.976,0.0,-1.8798,-1.9613,-1.6901,-1.6192,-1.7916,-1.5979,-1.495,-1.495,-1.4656,-1.4656,-1.4937,-1.4656,-1.4843,-1.5484,-1.6927,-1.7595,-1.7716,-1.9145,-2.0401,-2.143,-2.1443,-2.2311,-2.3474,0.0,-2.2739,-2.3794,-2.4088,0.0,0.0,-2.3527,-2.3313,0.0,0.0,0.0,-2.306,-2.2218,-2.2766,-2.334,-2.1884,-2.1697,-2.151,-1.98,-1.9586,-1.9559,-1.8718,-1.8945,-1.9426,-1.9733,-2.0013,-2.0214,-2.0214,-2.0214,-2.0134,-1.984,-2.008,0.0,0.0,-2.012,-2.0454,0.0,0.0,0.0,0.0,0.0,0.0,0.0,0.0,0.0,-2.8016,-2.8136,-2.8136,-2.8136,-2.8136,-2.8136,-2.8136,-2.8136,-2.8136,-2.8136,-2.8136,-2.8136,-2.8163,-2.8751,-2.9032,-2.9058,-2.9646,-2.99,-2.99,-2.9913,-2.9913,-2.9913,-2.9913,-2.9913,-2.9913,-2.9913,-2.9913,-2.9913,-1.3833,-1.437,-1.4854,-1.5629,-1.5832,-1.5925,-1.6233,-1.6513,-1.6954,0.0,0.0,0.0,0.0,-1.9746,-2.008,0.0,0.0,-2.0535,-1.984,-1.9158,0.0,0.0,0.0,-1.654,0.0,-1.6099,-1.5351,-1.4963,-1.487,-1.487,-1.4963,-1.5057,-1.5204,-1.5471,-1.7141,-1.821,-1.8838,-1.992,-2.0828,-2.159,-2.1977,-2.2792,-2.3754,0.0,-2.3701,-2.4102,-2.4382,-2.4489,0.0,-2.4262,-2.3808,-2.338,-2.3647,-2.3273,-2.2819,-2.3313,-2.346,-2.3407,0.0,0.0,-2.3273,-2.1309,-2.1029,-2.0869,-1.9399,-1.9225,-1.9452,-1.9733,-2.0027,-2.0227,-2.0227,-2.0227,-2.0201,-2.0107,-2.0174,-2.0134,0.0,-1.988,0.0,0.0,0.0,0.0,0.0,0.0,0.0,0.0,0.0,0.0,0.0,-2.8136,-2.8136,-2.8136,-2.8136,-2.8136,-2.8136,-2.8136,-2.8136,-2.8136,-2.8136,-2.8136,-2.8163,-2.8764,-2.9045,-2.9072,-2.9659,-2.9913,-2.9913,-2.9913,-2.9913,-2.9913,-2.9913,-2.9913,-2.9913,-2.9913,-2.9913,-2.9913,-1.3437,-1.4147,-1.4854,-1.5642,-1.5912,-1.6086,-1.638,-1.6406,0.0,0.0,-1.8052,0.0,-1.9761,0.0,-2.0187,0.0,-2.0828,-2.0575,-1.9987,-1.9599,0.0,-1.9265,-1.8223,0.0,0.0,-1.7128,-1.638,-1.5899,-1.5471,-1.5271,-1.5271,-1.5351,-1.5444,-1.5605,-1.6967,-1.829,-1.9573,-2.0347,-2.1376,-2.2539,-2.302,-2.3621,0.0,0.0,-2.4382,-2.4249,0.0,-2.4863,-2.4943,-2.4943,-2.4569,-2.4209,-2.477,-2.4289,-2.3674,-2.4449,-2.4409,-2.4102,-2.4088,-2.4356,0.0,-2.2458,-2.2245,0.0,-2.0241,-2.0,-2.0201,-2.0388,-2.0401,-2.0615,-2.1349,-2.0975,-2.0575,-2.0681,-2.0441,-2.0094,0.0,-1.9826,0.0,0.0,0.0,0.0,0.0,0.0,0.0,0.0,0.0,0.0,0.0,0.0,-2.8136,-2.8136,-2.8136,-2.8136,-2.8136,-2.8136,-2.8136,-2.8136,-2.8136,-2.8136,-2.8163,-2.8764,-2.9045,-2.9072,-2.9659,-2.9913,-2.9913,-2.9913,-2.9913,-2.9913,-2.9913,-2.9913,-2.9913,-2.9913,-2.9913,-2.9913,-1.3776,-1.4867,-1.5858,-1.5777,-1.6086,-1.6366,0.0,0.0,-1.5947,0.0,-1.7415,-1.7418,-1.9958,-2.0294,-2.0535,-2.1096,-2.1149,-2.0922,-2.0361,-2.0294,0.0,0.0,-1.9893,-1.9813,-2.0655,0.0,-1.7916,-1.7609,-1.6433,-1.5845,-1.5845,-1.5551,-1.5565,-1.5858,-1.6446,-1.7862,-1.984,-2.0441,-2.2058,-2.4249,-2.4543,-2.481,-2.5037,-2.5077,-2.4743,-2.4315,-2.4903,-2.5277,-2.5518,-2.5518,-2.5518,-2.5518,-2.5518,-2.5518,-2.5531,-2.5531,-2.5545,-2.5438,-2.4877,-2.473,-2.4436,-2.326,-2.318,0.0,0.0,-2.1243,-2.1643,-2.1643,-2.1203,-2.1416,-2.3327,-2.2298,-2.1229,-2.1456,-2.0762,-2.0013,-1.9466,-1.9867,-2.0227,0.0,0.0,0.0,0.0,0.0,0.0,0.0,0.0,0.0,0.0,0.0,-2.8083,-2.8136,-2.8136,-2.8136,-2.8136,-2.8136,-2.8136,-2.8136,-2.8136,-2.8136,-2.8163,-2.8764,-2.9045,-2.9072,-2.9659,-2.9913,-2.9913,-2.9913,-2.9913,-2.9913,-2.9913,-2.9913,-2.9913,-2.9913,-2.9913,-2.9913,-1.2262,-1.4437,-1.5927,-1.5221,-1.5583,-1.6259,0.0,0.0,0.0,0.0,-1.9351,-1.9728,-2.1122,-2.1216,-2.1363,-2.1737,-2.1764,0.0,0.0,0.0,0.0,-2.163,-2.0601,-2.0214,-2.0668,-1.9172,-1.8223,-1.7903,-1.6727,-1.6152,-1.6152,-1.5858,-1.5752,-1.5858,-1.6446,-1.7862,-1.9853,-2.0655,-2.2365,-2.4556,-2.485,-2.4756,-2.4502,0.0,-2.517,-2.4903,-2.5264,-2.5451,-2.5518,-2.5518,-2.5518,-2.5518,-2.5518,-2.5665,-2.5838,-2.5838,-2.5999,-2.6132,-2.5985,-2.5945,-2.5705,-2.4743,-2.4409,-2.4008,0.0,0.0,0.0,-2.2873,-2.2926,-2.2873,-2.2512,-2.2071,-2.1496,-2.0695,-2.0201,-1.9853,-1.9706,-1.9813,0.0,-2.0508,0.0,0.0,0.0,0.0,0.0,0.0,0.0,0.0,0.0,0.0,0.0,-2.811,-2.8136,-2.8136,-2.8136,-2.8136,-2.8136,-2.8136,-2.8136,-2.8136,-2.8163,-2.8764,-2.9045,-2.9072,-2.9659,-2.9913,-2.9913,-2.9913,-2.9913,-2.9913,-2.9913,-2.9913,-2.9913,-2.9913,-2.9913,-2.9913,-1.1024,-1.3735,-1.5577,-1.4361,-1.5106,0.0,-1.6788,-1.6515,0.0,-1.8458,-1.7784,0.0,-1.9989,-2.0396,-2.0598,-2.0762,-2.1582,0.0,-2.1617,0.0,0.0,-2.179,-2.1537,-2.1456,-2.163,-2.0441,0.0,-1.8798,-1.7622,-1.678,-1.6259,-1.5965,-1.5832,-1.5858,-1.6446,-1.7716,-1.9546,-2.1456,-2.3033,-2.4315,-2.4997,-2.5144,0.0,-2.5518,-2.5678,-2.5678,-2.5838,-2.5892,-2.5892,-2.5892,-2.5892,-2.5892,-2.5892,-2.6012,-2.6146,-2.6146,-2.6266,-2.6386,-2.6386,-2.6386,-2.6266,-2.5772,-2.5531,-2.5144,-2.4128,-2.3901,-2.3901,0.0,-2.3728,-2.3647,0.0,-2.2859,-2.1563,-2.0254,-1.98,-1.9613,-1.9613,-1.9826,0.0,0.0,-2.1296,0.0,0.0,0.0,0.0,0.0,0.0,0.0,0.0,0.0,0.0,-2.811,-2.7896,-2.7883,-2.8136,-2.7883,-2.7883,-2.8136,-2.8136,-2.8136,-2.8163,-2.8764,-2.9045,-2.9072,-2.9659,-2.9913,-2.9913,-2.9913,-2.9913,-2.9913,-2.9913,-2.9913,-2.9913,-2.9913,-2.9913,-2.9913,-1.0238,-1.289,-1.4711,-1.3337,-1.4696,0.0,0.0,-1.4949,0.0,-1.6785,0.0,-1.4838,-1.7748,-1.88,-1.9212,-1.9247,0.0,-2.1897,-2.143,-2.2111,-2.2325,-2.1871,-2.2579,-2.2979,-2.2979,-2.2111,-2.1096,0.0,-1.8704,-1.7502,-1.6326,-1.5992,-1.5845,-1.5912,-1.646,-1.7662,-1.9466,-2.2485,-2.3861,-2.4088,-2.5144,-2.5732,-2.5959,-2.5999,-2.6172,-2.6386,-2.6386,-2.6386,-2.6386,-2.6386,-2.6386,-2.6386,-2.6386,-2.6386,-2.6386,-2.6386,-2.6386,-2.6386,-2.6386,-2.6386,-2.6386,-2.6386,-2.6386,-2.6119,-2.5104,-2.4863,-2.4863,-2.4863,-2.4262,-2.4222,0.0,-2.3968,-2.1697,-2.0267,-1.9813,-1.972,0.0,0.0,0.0,0.0,0.0,0.0,0.0,0.0,0.0,0.0,0.0,0.0,0.0,0.0,0.0,-2.8096,-2.7642,-2.7615,-2.8083,0.0,-2.7615,-2.8083,-2.8123,-2.8136,-2.8163,-2.8764,-2.9045,-2.9072,-2.9659,-2.9913,-2.9913,-2.9913,-2.9913,-2.9913,-2.9913,-2.9913,-2.9913,-2.9913,-2.9913,-2.9913,-1.0657,-1.2374,-1.3433,-1.2069,-1.346,-1.4558,-1.351,-1.4238,-1.5169,-1.5954,-1.6012,-1.6126,-1.6984,-1.8586,-1.9687,-1.9898,-2.1594,0.0,0.0,0.0,0.0,-2.338,-2.3527,-2.3607,-2.3607,-2.2726,-2.1697,0.0,-1.9105,-1.7796,-1.662,-1.6086,-1.5965,-1.6206,-1.6553,-1.8343,-2.1203,-2.3006,-2.4329,-2.5251,-2.5705,-2.5905,-2.5985,-2.6226,-2.6346,-2.6386,-2.6386,-2.6386,-2.6386,-2.6386,-2.6386,-2.6386,-2.6386,-2.6386,-2.6386,-2.6386,-2.6386,-2.6386,-2.6386,-2.6386,-2.6386,-2.6386,-2.6386,-2.6333,-2.6132,-2.6079,-2.6079,-2.6079,-2.5959,-2.5665,-2.505,0.0,0.0,-2.1443,-2.1203,0.0,0.0,0.0,0.0,0.0,0.0,-2.3046,0.0,0.0,0.0,0.0,0.0,0.0,0.0,0.0,-2.5919,0.0,-2.8043,0.0,0.0,0.0,-2.7923,-2.7776,-2.803,-2.8136,-2.8163,-2.8764,-2.9045,-2.9072,-2.9659,-2.9913,-2.9913,-2.9913,-2.9913,-2.9913,-2.9913,-2.9913,-2.9913,-2.9913,-2.9913,-2.9913,-1.0189,0.0,-1.2478,0.0,0.0,0.0,0.0,-1.2712,-1.3595,-1.4406,-1.4026,-1.4079,-1.5099,-1.7256,-1.8336,-1.7418,-2.0025,-2.1371,-2.0495,-2.0352,-2.0995,-2.2144,-2.2156,-2.2742,-2.3768,-2.334,-2.2311,-2.0681,0.0,-1.8464,-1.67,-1.6259,-1.6139,-1.6326,-1.7702,-1.9345,-2.1229,-2.3327,0.0,-2.5117,-2.5879,-2.6186,-2.6199,-2.6333,-2.648,-2.6613,-2.6613,-2.6707,-2.6814,-2.6667,-2.6613,-2.664,-2.68,-2.6841,-2.6841,-2.6841,-2.6734,-2.664,-2.68,-2.6734,-2.6613,-2.6613,-2.6734,-2.68,-2.6653,-2.6734,-2.6841,-2.6841,-2.6841,-2.648,-2.5304,-2.4249,0.0,0.0,0.0,0.0,0.0,0.0,-2.314,0.0,0.0,0.0,0.0,0.0,0.0,0.0,0.0,0.0,0.0,0.0,-2.5718,0.0,0.0,0.0,0.0,0.0,0.0,-2.7936,-2.807,-2.8136,-2.8163,-2.8764,-2.9045,-2.9072,-2.9659,-2.9913,-2.9913,-2.9913,-2.9913,-2.9913,-2.9913,-2.9913,-2.9913,-2.9913,-2.9913,-2.9913,-0.9897,-1.1057,0.0,0.0,-1.1841,0.0,-1.1441,-1.147,-1.1952,-1.2803,-1.2051,-1.1916,-1.3342,-1.5596,-1.6566,-1.4973,-1.8051,-1.9391,-1.7829,-1.8132,-1.9176,-2.0845,-2.1293,-2.2319,-2.3955,-2.3955,-2.3033,0.0,0.0,-1.9305,-1.7168,-1.6687,-1.6633,-1.7021,-1.9078,-2.0521,0.0,0.0,-2.4783,-2.509,-2.6012,-2.6426,-2.648,-2.648,-2.6667,-2.6921,-2.6921,-2.7068,-2.7241,-2.7068,-2.6974,-2.6961,-2.7188,-2.7268,-2.7268,-2.7268,-2.7094,-2.6961,-2.7201,-2.7094,-2.6921,-2.6921,-2.7094,-2.7201,-2.6974,-2.7094,-2.7268,-2.7268,-2.7268,-2.6907,-2.5732,-2.501,0.0,0.0,0.0,0.0,0.0,0.0,-2.4302,0.0,0.0,0.0,-2.322,0.0,0.0,0.0,0.0,0.0,-2.5905,0.0,0.0,0.0,0.0,-2.7362,-2.7762,0.0,-2.7655,-2.8043,-2.811,-2.8136,-2.8163,-2.8764,-2.9045,-2.9072,-2.9659,-2.9913,-2.9913,-2.9913,-2.9913,-2.9913,-2.9913,-2.9913,-2.9913,-2.9913,-2.9913,-2.9913,0.0,0.0,0.0,0.0,0.0,0.0,-1.1341,-1.1619,-1.1796,-1.1894,-1.1755,-1.1823,-1.2275,-1.4064,-1.5112,-1.4982,-1.6736,-1.7996,-1.805,-1.9845,-2.099,-2.1519,-2.3189,-2.4409,-2.4556,-2.4556,-2.3928,0.0,0.0,-2.0241,-1.8691,-1.7582,-1.7782,-1.9118,-2.0147,0.0,0.0,-2.4422,-2.5251,-2.6239,-2.6346,-2.6547,-2.6787,-2.6787,-2.6961,-2.7228,-2.7228,-2.7241,-2.7308,-2.7535,-2.7442,-2.7228,-2.7255,-2.7268,-2.7268,-2.7268,-2.7241,-2.7228,-2.7255,-2.7241,-2.7228,-2.7228,-2.7241,-2.7255,-2.7228,-2.7241,-2.7268,-2.7268,-2.7268,-2.6907,-2.5732,-2.6507,-2.664,0.0,0.0,0.0,0.0,0.0,-2.4596,-2.5665,0.0,0.0,0.0,0.0,0.0,0.0,-2.346,0.0,0.0,0.0,0.0,-2.6907,0.0,-2.676,-2.656,-2.7549,-2.7949,-2.7749,-2.8016,-2.8136,-2.8163,-2.8764,-2.9045,-2.9072,-2.9659,-2.9913,-2.9913,-2.9913,-2.9913,-2.9913,-2.9913,-2.9913,-2.9913,-2.9913,-2.9913,-2.9913,0.0,0.0,0.0,0.0,0.0,0.0,0.0,-1.1891,-1.2006,-1.2094,-1.2026,-1.2026,-1.2182,-1.3971,-1.4744,-1.3513,-1.532,-1.5949,-1.4822,-1.6633,-1.8331,-1.9779,-2.1893,-2.3667,-2.4903,-2.5077,-2.4583,0.0,0.0,0.0,-1.9439,-1.8958,-1.9533,-2.0989,-2.2245,-2.342,-2.4516,-2.5344,-2.6066,-2.6653,-2.6653,-2.6827,-2.7094,-2.7094,-2.7268,-2.7522,-2.7522,-2.7642,-2.7816,-2.7923,-2.7776,-2.7562,-2.7736,-2.7789,-2.7789,-2.7789,-2.7669,-2.7562,-2.7749,-2.7655,-2.7522,-2.7522,-2.7655,-2.7749,-2.7562,-2.7669,-2.7789,-2.7789,-2.7789,-2.7655,-2.7175,-2.6987,-2.6841,-2.6613,0.0,0.0,0.0,0.0,-2.6747,-2.7215,-2.6426,-2.5772,0.0,0.0,0.0,0.0,0.0,0.0,0.0,0.0,0.0,-2.5758,0.0,-2.7308,-2.6653,-2.7642,-2.8083,-2.7963,-2.8083,-2.8136,-2.8163,-2.8764,-2.9232,-2.9579,-2.982,-2.9913,-2.9913,-2.9913,-2.9913,-2.9913,-2.9913,-2.9913,-2.9913,-2.9913,-2.9913,-2.9913,-1.1348,0.0,-1.1192,0.0,-1.1572,-1.1586,-1.2054,-1.2128,-1.2182,-1.2332,-1.2257,-1.223,-1.2338,-1.3695,-1.3893,-1.2642,-1.3759,-1.44,-1.3641,-1.5521,-1.7539,-1.9679,-2.1837,0.0,-2.5211,-2.5411,-2.5104,-2.4289,-2.318,0.0,-2.0962,-2.0695,-2.1309,0.0,-2.3821,-2.4636,-2.5211,-2.6039,-2.656,-2.6827,-2.6827,-2.7054,-2.7388,-2.7388,-2.7575,-2.7829,-2.7829,-2.7963,-2.8136,-2.8136,-2.8003,-2.7869,-2.8083,-2.8136,-2.8136,-2.8136,-2.7989,-2.7883,-2.8083,-2.7989,-2.7829,-2.7829,-2.7989,-2.8083,-2.7883,-2.7989,-2.8136,-2.8136,-2.8136,-2.8136,-2.8136,-2.7468,-2.7068,-2.7549,0.0,0.0,0.0,-2.7629,-2.7629,-2.7629,-2.6934,-2.644,-2.64,-2.485,0.0,0.0,0.0,0.0,0.0,0.0,0.0,0.0,0.0,0.0,-2.6827,-2.7696,-2.8136,-2.8136,-2.8136,-2.8136,-2.8163,-2.8764,-2.9366,-2.9913,-2.9913,-2.9913,-2.9913,-2.9913,-2.9913,-2.9913,-2.9913,-2.9913,-2.9913,-2.9913,-2.9913,-2.9913,-1.1796,-1.1823,-1.187,-1.2026,-1.2054,-1.2101,-1.2264,-1.2284,-1.2338,-1.2481,-1.2501,-1.2494,-1.2501,-1.2501,-1.2501,-1.2501,-1.2637,-1.3654,-1.581,-1.8017,-2.0167,0.0,0.0,-2.5504,-2.5504,-2.5518,-2.5504,-2.5491,0.0,0.0,-2.3701,-2.2806,-2.3033,-2.4195,-2.4489,-2.5277,-2.6373,-2.6386,-2.656,-2.6827,-2.6827,-2.7175,-2.7696,-2.7696,-2.7883,-2.8136,-2.8136,-2.8136,-2.8136,-2.8136,-2.8136,-2.8136,-2.8136,-2.8136,-2.8136,-2.8136,-2.8136,-2.8136,-2.8136,-2.8136,-2.8136,-2.8136,-2.8136,-2.8136,-2.8136,-2.8136,-2.8136,-2.8136,-2.8136,-2.8136,-2.8136,-2.8136,-2.7749,-2.66,0.0,0.0,-2.6573,-2.6413,-2.6413,-2.6413,-2.4088,-2.3514,-2.6132,-2.3741,0.0,0.0,0.0,0.0,0.0,0.0,0.0,-2.676,-2.6827,0.0,-2.6827,-2.7696,-2.8136,-2.8136,-2.8136,-2.8136,-2.8163,-2.8764,-2.9366,-2.9913,-2.9913,-2.9913,-2.9913,-2.9913,-2.9913,-2.9913,-2.9913,-2.9913,-2.9913,-2.9913,-2.9913,-2.9913,-1.1979,-1.1986,-1.2033,-1.2189,-1.2216,-1.2264,-1.2413,-1.2522,-1.261,-1.2651,-1.2745,-1.2813,-1.2813,-1.2718,-1.2698,0.0,-1.2861,-1.32,0.0,-1.5906,-1.7344,-1.7974,-2.0158,-2.1357,-2.1357,-2.2957,-2.3854,-2.3854,0.0,0.0,0.0,-2.4062,-2.4556,-2.5705,-2.5999,-2.6333,-2.6694,-2.6894,-2.7148,-2.7415,-2.7415,-2.7655,-2.8003,-2.8003,-2.8056,-2.8136,-2.8136,-2.8136,-2.8136,-2.8136,-2.8136,-2.8136,-2.8136,-2.8136,-2.8136,-2.8136,-2.8136,-2.8136,-2.8136,-2.8136,-2.8136,-2.8136,-2.8136,-2.8136,-2.8136,-2.8136,-2.8136,-2.8136,-2.8136,-2.8136,-2.8136,-2.8136,-2.8016,-2.7642,-2.7896,0.0,-2.7642,-2.7589,-2.7589,-2.7589,-2.6841,-2.6653,0.0,-2.6012,0.0,0.0,0.0,0.0,0.0,0.0,0.0,0.0,-2.6987,0.0,-2.6827,-2.7696,-2.8136,-2.8136,-2.8136,-2.8364,-2.8764,-2.9165,-2.9553,-2.9913,-2.9913,-2.9913,-2.9913,-2.9913,-2.9913,-2.9913,-2.9913,-2.9913,-2.9913,-2.9913,-2.9913,-2.9913,-1.223,-1.223,-1.2277,-1.2427,-1.2454,-1.2508,-1.2651,-1.2752,-1.282,-1.282,-1.2901,-1.2983,-1.3037,-1.2956,0.0,-1.2956,-1.301,-1.336,-1.4157,-1.5473,-1.6621,-1.7422,-1.8814,-1.9684,-1.9684,-2.1927,0.0,-2.314,-2.4547,-2.5358,-2.5451,-2.5451,-2.5905,-2.672,-2.6907,-2.6987,-2.7001,-2.7188,-2.7428,-2.7696,-2.7696,-2.7883,-2.8136,-2.8136,-2.8136,-2.8136,-2.8136,-2.8136,-2.8136,-2.8136,-2.8136,-2.8136,-2.8136,-2.8136,-2.8136,-2.8136,-2.8136,-2.8136,-2.8136,-2.8136,-2.8136,-2.8136,-2.8136,-2.8136,-2.8136,-2.8136,-2.8136,-2.8136,-2.8136,-2.8136,-2.8136,-2.8136,-2.8136,-2.8136,-2.8136,-2.8136,-2.8136,-2.8136,-2.7976,-2.7535,-2.7482,0.0,0.0,-2.6814,-2.6266,0.0,0.0,0.0,0.0,0.0,0.0,-2.6226,-2.7468,0.0,-2.7321,-2.7869,-2.8136,-2.8136,-2.8257,-2.8564,-2.9045,-2.9352,-2.9646,-2.9913,-2.9913,-2.9913,-2.9913,-2.9913,-2.9913,-2.9913,-2.9913,-2.9913,-2.9913,-2.9913,-2.9913,-2.9913,-1.2515,-1.2515,-1.2569,0.0,-1.2745,0.0,-1.2942,-1.2969,-1.2976,-1.2976,-1.2983,-1.3044,-1.3173,-1.3186,-1.3132,-1.3003,0.0,0.0,0.0,-1.6237,-1.7302,-1.942,-1.942,-1.943,-1.944,-2.1706,-2.3015,-2.3359,-2.5474,-2.6587,-2.6854,-2.6854,-2.7001,-2.7268,-2.7281,-2.7295,-2.7295,-2.7321,-2.7482,-2.7722,-2.7722,-2.7896,-2.8136,-2.8136,-2.8136,-2.8136,-2.8136,-2.8136,-2.8136,-2.8136,-2.8136,-2.8136,-2.8136,-2.8136,-2.8136,-2.8136,-2.8136,-2.8136,-2.8136,-2.8136,-2.8136,-2.8136,-2.8136,-2.8136,-2.8136,-2.8136,-2.8136,-2.8136,-2.8136,-2.8136,-2.8136,-2.8136,-2.8136,-2.8136,-2.8136,-2.8136,-2.8136,-2.8136,-2.7736,-2.664,0.0,0.0,0.0,-2.6507,-2.6934,0.0,0.0,0.0,0.0,0.0,-2.5798,-2.807,-2.8136,-2.8136,-2.8136,-2.8136,-2.8136,-2.815,-2.8484,-2.8778,-2.9045,-2.9366,-2.9659,-2.9913,-2.9913,-2.9913,-2.9913,-2.9913,-2.9913,-2.9913,-2.9913,-2.9913,-2.9913,-2.9913,-2.9913,-2.9913,0.0,0.0,-1.2725,-1.2881,-1.2908,-1.2922,-1.2956,-1.3051,-1.3125,-1.3125,-1.3227,-1.3308,-1.3342,-1.3349,-1.3336,-1.3302,-1.3329,-1.3507,-1.3995,-1.4196,-1.4375,-1.4871,-1.4871,-1.4931,-1.5059,-1.9008,-2.2701,-2.6392,-2.6892,-2.7094,-2.7161,-2.7161,-2.7201,-2.7281,-2.7495,-2.7602,-2.7615,-2.7843,-2.7976,-2.8043,-2.8043,-2.8083,-2.8136,-2.8136,-2.8136,-2.8136,-2.8136,-2.8136,-2.8136,-2.8136,-2.8136,-2.8136,-2.8136,-2.8136,-2.8136,-2.8136,-2.8136,-2.8136,-2.8136,-2.8136,-2.8136,-2.8136,-2.8136,-2.8136,-2.8136,-2.8136,-2.8136,-2.8136,-2.8136,-2.8136,-2.8136,-2.8136,-2.8136,-2.8136,-2.8136,-2.8136,-2.8136,-2.8136,-2.8043,-2.7762,-2.7722,-2.7722,-2.7722,-2.7722,-2.7468,0.0,0.0,0.0,-2.68,-2.6279,-2.664,-2.8096,-2.8136,-2.8136,-2.8136,-2.8136,-2.8136,-2.815,-2.8684,-2.8978,-2.9058,-2.9579,-2.9847,-2.9913,-2.9913,-2.9913,-2.9913,-2.9913,-2.9913,-2.9913,-2.9913,-2.9913,-2.9913,-2.9913,-2.9913,-2.9913,-1.282,-1.2834,-1.2881,-1.303,-1.3057,-1.3078,-1.3152,-1.3227,-1.3275,-1.3275,-1.3349,-1.3403,-1.3403,-1.3464,-1.3505,-1.3505,-1.3444,-1.3431,-1.3498,-1.3505,-1.3532,-1.36,-1.36,-1.3641,-1.3722,-1.7061,-2.0609,-2.4069,-2.4069,-2.414,-2.4425,-2.5434,-2.6007,-2.6146,-2.7315,-2.7896,-2.7909,-2.807,-2.8136,-2.8136,-2.8136,-2.8136,-2.8136,-2.8136,-2.8136,-2.8136,-2.8136,-2.8136,-2.8136,-2.8136,-2.8136,-2.8136,-2.8136,-2.8136,-2.8136,-2.8136,-2.8136,-2.8136,-2.8136,-2.8136,-2.8136,-2.8136,-2.8136,-2.8136,-2.8136,-2.8136,-2.8136,-2.8136,-2.8136,-2.8136,-2.8136,-2.8136,-2.8136,-2.8136,-2.8136,-2.8136,-2.8136,-2.8136,-2.8136,-2.8136,-2.8136,-2.8136,-2.8136,-2.8136,-2.7883,-2.7241,-2.7188,0.0,-2.7188,-2.7188,-2.7482,-2.8123,-2.8136,-2.8136,-2.8136,-2.8136,-2.8136,-2.815,-2.8751,-2.9045,-2.9058,-2.9646,-2.9913,-2.9913,-2.9913,-2.9913,-2.9913,-2.9913,-2.9913,-2.9913,-2.9913,-2.9913,-2.9913,-2.9913,-2.9913,-2.9913,-1.299,-1.299,-1.3037,-1.318,-1.3207,-1.3254,-1.3383,-1.3403,-1.3403,-1.3403,-1.3417,-1.3437,-1.3437,-1.3573,-1.3661,-1.3661,-1.3539,-1.3519,-1.3654,-1.3661,-1.3715,-1.3838,-1.3838,-1.3851,-1.3871,-1.6105,-1.8309,-2.0487,-2.0487,-2.0587,-2.0948,-2.3157,-2.4479,-2.4861,-2.7109,-2.8136,-2.8136,-2.8136,-2.8136,-2.8136,-2.8136,-2.8136,-2.8136,-2.8136,-2.8136,-2.8136,-2.8136,-2.8136,-2.8136,-2.8136,-2.8136,-2.8136,-2.8136,-2.8136,-2.8136,-2.8136,-2.8136,-2.8136,-2.8136,-2.8136,-2.8136,-2.8136,-2.8136,-2.8136,-2.8136,-2.8136,-2.8136,-2.8136,-2.8136,-2.8136,-2.8136,-2.8136,-2.8096,-2.7963,-2.8056,-2.8096,-2.7963,-2.8056,-2.8136,-2.8136,-2.8136,-2.8136,-2.8136,-2.8136,-2.8136,-2.8136,-2.8136,-2.8136,-2.8136,-2.8136,-2.8136,-2.8136,-2.8136,-2.8136,-2.8136,-2.8136,-2.8136,-2.815,-2.8751,-2.9045,-2.9058,-2.9646,-2.9913,-2.9913,-2.9913,-2.9913,-2.9913,-2.9913,-2.9913,-2.9913,-2.9913,-2.9913,-2.9913,-2.9913,-2.9913,-2.9913,-1.3119,-1.3139,-1.3186,-1.3342,-1.3363,-1.337,-1.3397,-1.3403,-1.3403,-1.3403,-1.3512,-1.3593,-1.3593,-1.3722,-1.3804,-1.3804,-1.3783,-1.3783,-1.3804,-1.3804,-1.3817,-1.3838,-1.3838,-1.3899,-1.4034,-1.6396,-1.8885,-2.112,-2.112,-2.114,-2.1171,-2.3585,-2.4655,-2.4861,-2.7109,-2.8136,-2.8136,-2.8136,-2.8136,-2.8136,-2.8136,-2.8136,-2.8136,-2.8136,-2.8136,-2.8136,-2.8136,-2.8136,-2.8136,-2.8136,-2.8136,-2.8136,-2.8136,-2.8136,-2.8136,-2.8136,-2.8136,-2.8136,-2.8136,-2.8136,-2.8136,-2.8136,-2.8136,-2.8136,-2.8136,-2.8136,-2.8136,-2.8136,-2.8136,-2.8136,-2.8136,-2.8136,-2.7896,-2.7148,-2.7655,-2.7883,-2.7134,-2.7669,-2.8136,-2.8136,-2.8136,-2.8136,-2.8136,-2.8136,-2.8136,-2.8136,-2.8136,-2.8136,-2.8136,-2.8136,-2.8136,-2.8136,-2.8136,-2.8136,-2.8136,-2.8136,-2.8136,-2.815,-2.8751,-2.9045,-2.9058,-2.9646,-2.9913,-2.9913,-2.9913,-2.9913,-2.9913,-2.9913,-2.9913,-2.9913,-2.9913,-2.9913,-2.9913,-2.9913,-2.9913,-2.9913,-1.3281,-1.3295,-1.3315,-1.339,-1.3403,-1.3403,-1.3403,-1.3403,-1.3431,-1.3512,-1.3587,-1.3661,-1.3736,-1.3878,-1.3966,-1.3966,-1.4041,-1.4089,-1.4089,-1.4014,-1.4,-1.4082,-1.4089,-1.4122,-1.419,-1.5301,-1.6378,-1.7422,-1.7422,-1.7422,-1.7597,-2.1221,-2.2783,-2.2955,-2.6575,-2.8136,-2.8136,-2.8136,-2.8136,-2.8136,-2.8136,-2.8136,-2.8136,-2.8136,-2.8136,-2.8136,-2.8136,-2.8136,-2.8136,-2.8136,-2.8136,-2.8136,-2.8136,-2.8136,-2.8136,-2.8136,-2.8136,-2.8136,-2.8136,-2.8136,-2.8136,-2.8136,-2.8136,-2.8136,-2.8136,-2.8136,-2.8136,-2.8136,-2.8136,-2.8136,-2.8136,-2.8136,-2.8016,-2.7602,-2.7869,-2.8003,-2.7589,-2.7883,-2.8136,-2.8136,-2.8136,-2.8136,-2.8136,-2.8136,-2.8136,-2.8136,-2.8136,-2.8136,-2.8136,-2.8136,-2.8136,-2.8136,-2.8136,-2.8136,-2.8136,-2.8136,-2.8136,-2.815,-2.8751,-2.9045,-2.9058,-2.9646,-2.9913,-2.9913,-2.9913,-2.9913,-2.9913,-2.9913,-2.9913,-2.9913,-2.9913,-2.9913,-2.9913,-2.9913,-2.9913,-2.9913,-1.3403,-1.3403,-1.3403,-1.3403,-1.3403,-1.341,-1.3451,-1.3451,-1.3505,-1.3661,-1.3709,-1.3777,-1.3878,-1.4034,-1.4122,-1.4122,-1.4231,-1.4299,-1.4299,-1.419,-1.4177,-1.4292,-1.4299,-1.4299,-1.4299,-1.4299,-1.4299,-1.4299,-1.4299,-1.4299,-1.4476,-1.8976,-2.1221,-2.1394,-2.6066,-2.8136,-2.8136,-2.8136,-2.8136,-2.8136,-2.8136,-2.8136,-2.8136,-2.8136,-2.8136,-2.8136,-2.8136,-2.8136,-2.8136,-2.8136,-2.8136,-2.8136,-2.8136,-2.8136,-2.8136,-2.8136,-2.8136,-2.8136,-2.8136,-2.8136,-2.8136,-2.8136,-2.8136,-2.8136,-2.8136,-2.8136,-2.8136,-2.8136,-2.8136,-2.8136,-2.8136,-2.8136,-2.8083,-2.7869,-2.8003,-2.807,-2.7869,-2.8016,-2.8136,-2.8136,-2.8136,-2.8136,-2.8136,-2.8136,-2.8136,-2.8136,-2.8136,-2.8136,-2.8136,-2.8136,-2.8136,-2.8136,-2.8136,-2.8136,-2.8136,-2.8136,-2.8136,-2.815,-2.8751,-2.9045,-2.9058,-2.9646,-2.9913,-2.9913,-2.9913,-2.9913,-2.9913,-2.9913,-2.9913,-2.9913,-2.9913,-2.9913,-2.9913,-2.9913,-2.9913,-2.9913,-1.3403,-1.3403,-1.3403,-1.3403,-1.3403,-1.3451,-1.3593,-1.3614,-1.3661,-1.3804,-1.3946,-1.4041,-1.4055,-1.419,-1.4285,-1.4285,-1.4292,-1.4299,-1.4299,-1.4292,-1.4285,-1.4299,-1.4299,-1.4299,-1.4299,-1.4299,-1.4299,-1.4299,-1.4299,-1.4299,-1.4476,-1.8976,-2.1221,-2.1394,-2.6066,-2.8136,-2.8136,-2.8136,-2.8136,-2.8136,-2.8136,-2.8136,-2.8136,-2.8136,-2.8136,-2.8136,-2.8136,-2.8136,-2.8136,-2.8136,-2.8136,-2.8136,-2.8136,-2.8136,-2.8136,-2.8136,-2.8136,-2.8136,-2.8136,-2.8136,-2.8136,-2.8136,-2.8136,-2.8136,-2.8136,-2.8136,-2.8136,-2.8136,-2.8136,-2.8136,-2.8136,-2.8136,-2.7869,-2.7054,-2.7602,-2.7856,-2.7041,-2.7629,-2.8136,-2.8136,-2.8136,-2.8136,-2.8136,-2.8136,-2.8136,-2.8136,-2.8136,-2.8136,-2.8136,-2.8136,-2.8136,-2.8136,-2.8136,-2.8136,-2.8136,-2.8136,-2.8136,-2.815,-2.8751,-2.9045,-2.9058,-2.9646,-2.9913,-2.9913,-2.9913,-2.9913,-2.9913,-2.9913,-2.9913,-2.9913,-2.9913,-2.9913,-2.9913,-2.9913,-2.9913,-2.9913,-1.3403,-1.3478,-1.3546,-1.3546,-1.3614,-1.3695,-1.3749,-1.3756,-1.3817,-1.3966,-1.4034,-1.4109,-1.4204,-1.4265,-1.4299,-1.4299,-1.4299,-1.4299,-1.4299,-1.4299,-1.4299,-1.4299,-1.4299,-1.4299,-1.4299,-1.4299,-1.4299,-1.4299,-1.4299,-1.4299,-1.4299,-1.7588,-1.9836,-2.1394,-2.4508,-2.6758,-2.8136,-2.8136,-2.8136,-2.8136,-2.8136,-2.8136,-2.8136,-2.8136,-2.8136,-2.8136,-2.8136,-2.8136,-2.8136,-2.8136,-2.8136,-2.8136,-2.8136,-2.8136,-2.8136,-2.8136,-2.8136,-2.8136,-2.8136,-2.8136,-2.8136,-2.8136,-2.8136,-2.8136,-2.8136,-2.8136,-2.8136,-2.8136,-2.8136,-2.8136,-2.8136,-2.8136,-2.803,-2.7696,-2.7923,-2.803,-2.7682,-2.7936,-2.8136,-2.8136,-2.8136,-2.8136,-2.8136,-2.8136,-2.8136,-2.8136,-2.8136,-2.8136,-2.8136,-2.8136,-2.8136,-2.8136,-2.8136,-2.8136,-2.8136,-2.8136,-2.8136,-2.815,-2.8751,-2.9045,-2.9058,-2.9646,-2.9913,-2.9913,-2.9913,-2.9913,-2.9913,-2.9913,-2.9913,-2.9913,-2.9913,-2.9913,-2.9913,-2.9913,-2.9913,-2.9913,-1.3532,-1.3627,-1.3695,-1.3695,-1.3777,-1.3858,-1.3905,-1.3912,-1.3966,-1.4122,-1.4143,-1.4183,-1.4285,-1.4299,-1.4299,-1.4299,-1.4299,-1.4299,-1.4299,-1.4299,-1.4299,-1.4299,-1.4299,-1.4299,-1.4299,-1.4299,-1.4299,-1.4299,-1.4299,-1.4299,-1.4299,-1.6721,-1.8976,-2.1221,-2.3652,-2.6066,-2.8136,-2.8136,-2.8136,-2.8136,-2.8136,-2.8136,-2.8136,-2.8136,-2.8136,-2.8136,-2.8136,-2.8136,-2.8136,-2.8136,-2.8136,-2.8136,-2.8136,-2.8136,-2.8136,-2.8136,-2.8136,-2.8136,-2.8136,-2.8136,-2.8136,-2.8136,-2.8136,-2.8136,-2.8136,-2.8136,-2.8136,-2.8136,-2.8136,-2.8136,-2.8136,-2.8136,-2.8136,-2.8136,-2.8136,-2.8136,-2.8136,-2.8136,-2.8136,-2.8136,-2.8136,-2.8136,-2.8136,-2.8136,-2.8136,-2.8136,-2.8136,-2.8136,-2.8136,-2.8136,-2.8136,-2.8136,-2.8136,-2.8136,-2.8136,-2.8136,-2.8136,-2.815,-2.8751,-2.9045,-2.9058,-2.9646,-2.9913,-2.9913,-2.9913,-2.9913,-2.9913,-2.9913,-2.9913,-2.9913,-2.9913,-2.9913,-2.9913,-2.9913,-2.9913,-2.9913,-1.381,-1.3844,-1.3844,-1.3844,-1.3844,-1.3899,-1.4048,-1.4075,-1.4129,-1.4278,-1.4299,-1.4299,-1.4299,-1.4299,-1.4299,-1.4299,-1.4299,-1.4299,-1.4299,-1.4299,-1.4299,-1.4299,-1.4299,-1.4299,-1.4299,-1.4299,-1.4299,-1.4299,-1.4299,-1.4299,-1.4299,-1.6729,-1.8967,-2.1221,-2.3641,-2.6066,-2.8136,-2.8136,-2.8136,-2.8136,-2.8136,-2.8136,-2.8136,-2.8136,-2.8136,-2.8136,-2.8136,-2.8136,-2.8136,-2.8136,-2.8136,-2.8136,-2.8136,-2.8136,-2.8136,-2.8136,-2.8136,-2.8136,-2.8136,-2.8136,-2.8136,-2.8136,-2.8136,-2.8136,-2.8136,-2.8136,-2.8136,-2.8136,-2.8136,-2.8136,-2.8136,-2.8136,-2.8136,-2.8136,-2.8136,-2.8136,-2.8136,-2.8136,-2.8136,-2.8136,-2.8136,-2.8136,-2.8136,-2.8136,-2.8136,-2.8136,-2.8136,-2.8136,-2.8136,-2.8136,-2.8136,-2.8136,-2.8136,-2.8136,-2.8136,-2.8136,-2.8136,-2.815,-2.8751,-2.9045,-2.9058,-2.9646,-2.9913,-2.9913,-2.9913,-2.9913,-2.9913,-2.9913,-2.9913,-2.9913,-2.9913,-2.9913,-2.9913,-2.9913,-2.9913,-2.9913,-1.3831,-1.3926,-1.4,-1.4,-1.4095,-1.4177,-1.4224,-1.4231,-1.4251,-1.4292,-1.4299,-1.4299,-1.4299,-1.4299,-1.4299,-1.4299,-1.4299,-1.4299,-1.4299,-1.4299,-1.4299,-1.4299,-1.4299,-1.4299,-1.4299,-1.4299,-1.4299,-1.4299,-1.4299,-1.4299,-1.4299,-1.4992,-1.7422,-2.1221,-2.1911,-2.4496,-2.8136,-2.8136,-2.8136,-2.8136,-2.8136,-2.8136,-2.8136,-2.8136,-2.8136,-2.8136,-2.8136,-2.8136,-2.8136,-2.8136,-2.8136,-2.8136,-2.8136,-2.8136,-2.8136,-2.8136,-2.8136,-2.8136,-2.8136,-2.8136,-2.8136,-2.8136,-2.8136,-2.8136,-2.8136,-2.8136,-2.8136,-2.8136,-2.8136,-2.8136,-2.8136,-2.8136,-2.8136,-2.8136,-2.8136,-2.8136,-2.8136,-2.8136,-2.8136,-2.8136,-2.8136,-2.8136,-2.8136,-2.8136,-2.8136,-2.8136,-2.8136,-2.8136,-2.8136,-2.8136,-2.8136,-2.8136,-2.8136,-2.8136,-2.8136,-2.8136,-2.8136,-2.815,-2.8751,-2.9045,-2.9058,-2.9646,-2.9913,-2.9913,-2.9913,-2.9913,-2.9913,-2.9913,-2.9913,-2.9913,-2.9913,-2.9913,-2.9913,-2.9913,-2.9913,-2.9913,-1.4007,-1.4095,-1.4163,-1.4163,-1.4238,-1.4299,-1.4299,-1.4299,-1.4299,-1.4299,-1.4299,-1.4299,-1.4299,-1.4299,-1.4299,-1.4299,-1.4299,-1.4299,-1.4299,-1.4299,-1.4299,-1.4299,-1.4299,-1.4299,-1.4299,-1.4299,-1.4299,-1.4299,-1.4299,-1.4299,-1.4299,-1.4299,-1.621,-1.9836,-1.9836,-2.1911,-2.5361,-2.5361,-2.5361,-2.5543,-2.6406,-2.6758,-2.6927,-2.7799,-2.8136,-2.8136,-2.8136,-2.8136,-2.8136,-2.8136,-2.8136,-2.8136,-2.8136,-2.8136,-2.8136,-2.8136,-2.8136,-2.8136,-2.8136,-2.8136,-2.8136,-2.8136,-2.8136,-2.8136,-2.8136,-2.8136,-2.8136,-2.8136,-2.8136,-2.8136,-2.8136,-2.8136,-2.8136,-2.8136,-2.8136,-2.8136,-2.8136,-2.8136,-2.8136,-2.8136,-2.8136,-2.8136,-2.8136,-2.8136,-2.8136,-2.8136,-2.8136,-2.8136,-2.8136,-2.8136,-2.8136,-2.8136,-2.8136,-2.8136,-2.8136,-2.8136,-2.8136,-2.815,-2.8751,-2.9045,-2.9058,-2.9646,-2.9913,-2.9913,-2.9913,-2.9913,-2.9913,-2.9913,-2.9913,-2.9913,-2.9913,-2.9913,-2.9913,-2.9913,-2.9913,-2.9913,-1.4272,-1.4299,-1.4299,-1.4299,-1.4299,-1.4299,-1.4299,-1.4299,-1.4299,-1.4299,-1.4299,-1.4299,-1.4299,-1.4299,-1.4299,-1.4299,-1.4299,-1.4299,-1.4299,-1.4299,-1.4299,-1.4299,-1.4299,-1.4299,-1.4299,-1.4299,-1.4299,-1.4299,-1.4299,-1.4299,-1.4299,-1.4299,-1.5513,-1.7763,-1.7763,-1.9141,-2.1221,-2.1221,-2.1221,-2.1394,-2.347,-2.452,-2.4861,-2.7096,-2.7968,-2.8136,-2.8136,-2.8136,-2.8136,-2.8136,-2.8136,-2.8136,-2.8136,-2.8136,-2.8136,-2.8136,-2.8136,-2.8136,-2.8136,-2.8136,-2.8136,-2.8136,-2.8136,-2.8136,-2.8136,-2.8136,-2.8136,-2.8136,-2.8136,-2.8136,-2.8136,-2.8136,-2.8136,-2.8136,-2.8136,-2.8136,-2.8136,-2.8136,-2.8136,-2.8136,-2.8136,-2.8136,-2.8136,-2.8136,-2.8136,-2.8136,-2.8136,-2.8136,-2.8136,-2.8136,-2.8136,-2.8136,-2.8136,-2.8136,-2.8136,-2.8136,-2.8136,-2.815,-2.8724,-2.9018,-2.9058,-2.9619,-2.9887,-2.9913,-2.9913,-2.9913,-2.9913,-2.9913,-2.9913,-2.9913,-2.9913,-2.9913,-2.9913,-2.9913,-2.9913,-2.9913,-1.4292,-1.4299,-1.4299,-1.4299,-1.4299,-1.4299,-1.4299,-1.4299,-1.4299,-1.4299,-1.4299,-1.4299,-1.4299,-1.4299,-1.4299,-1.4299,-1.4299,-1.4299,-1.4299,-1.4299,-1.4299,-1.4299,-1.4299,-1.4299,-1.4299,-1.4299,-1.4299,-1.4299,-1.4299,-1.4299,-1.4299,-1.4299,-1.5513,-1.7763,-1.7763,-1.9141,-2.1221,-2.1221,-2.1221,-2.1221,-2.1739,-2.3126,-2.4691,-2.5203,-2.6588,-2.8136,-2.8136,-2.8136,-2.8136,-2.8136,-2.8136,-2.8136,-2.8136,-2.8136,-2.8136,-2.8136,-2.8136,-2.8136,-2.8136,-2.8136,-2.8136,-2.8136,-2.8136,-2.8136,-2.8136,-2.8136,-2.8136,-2.8136,-2.8136,-2.8136,-2.8136,-2.8136,-2.8136,-2.8136,-2.8136,-2.8136,-2.8136,-2.8136,-2.8136,-2.8136,-2.8136,-2.8136,-2.8136,-2.8136,-2.8136,-2.8136,-2.8136,-2.8136,-2.8136,-2.8136,-2.8136,-2.8136,-2.8136,-2.8136,-2.8136,-2.8136,-2.8136,-2.815,-2.8524,-2.8818,-2.9045,-2.9406,-2.97,-2.9913,-2.9913,-2.9913,-2.9913,-2.9913,-2.9913,-2.9913,-2.9913,-2.9913,-2.9913,-2.9913,-2.9913,-2.9913,-1.4299,-1.4299,-1.4299,-1.4299,-1.4299,-1.4299,-1.4299,-1.4299,-1.4299,-1.4299,-1.4299,-1.4299,-1.4299,-1.4299,-1.4299,-1.4299,-1.4299,-1.4299,-1.4299,-1.4299,-1.4299,-1.4299,-1.4299,-1.4299,-1.4299,-1.4299,-1.4299,-1.4299,-1.4299,-1.4299,-1.4299,-1.4299,-1.4992,-1.621,-1.621,-1.6729,-1.7938,-1.7938,-1.7938,-1.7938,-1.915,-2.0356,-2.1566,-2.3824,-2.5373,-2.6758,-2.7799,-2.8136,-2.8136,-2.8136,-2.8136,-2.8136,-2.8136,-2.8136,-2.8136,-2.8136,-2.8136,-2.8136,-2.8136,-2.8136,-2.8136,-2.8136,-2.8136,-2.8136,-2.8136,-2.8136,-2.8136,-2.8136,-2.8136,-2.8136,-2.8136,-2.8136,-2.8136,-2.8136,-2.8136,-2.8136,-2.8136,-2.8136,-2.8136,-2.8136,-2.8136,-2.8136,-2.8136,-2.8136,-2.8136,-2.8136,-2.8136,-2.8136,-2.8136,-2.8136,-2.8136,-2.8136,-2.8136,-2.8136,-2.8136,-2.8136,-2.8136,-2.815,-2.8604,-2.8898,-2.9058,-2.9486,-2.9766,-2.9913,-2.9913,-2.9913,-2.9913,-2.9913,-2.9913,-2.9913,-2.9913,-2.9913,-2.9913,-2.9913,-2.9913,-2.9913,-1.4299,-1.4299,-1.4299,-1.4299,-1.4299,-1.4299,-1.4299,-1.4299,-1.4299,-1.4299,-1.4299,-1.4299,-1.4299,-1.4299,-1.4299,-1.4299,-1.4299,-1.4299,-1.4299,-1.4299,-1.4299,-1.4299,-1.4299,-1.4299,-1.4299,-1.4299,-1.4299,-1.4299,-1.4299,-1.4299,-1.4299,-1.4299,-1.4299,-1.4299,-1.4299,-1.4299,-1.4299,-1.4299,-1.4299,-1.4476,-1.6378,-1.7413,-1.8279,-2.2094,-2.3995,-2.5032,-2.6927,-2.7799,-2.8136,-2.8136,-2.8136,-2.8136,-2.8136,-2.8136,-2.8136,-2.8136,-2.8136,-2.8136,-2.8136,-2.8136,-2.8136,-2.8136,-2.8136,-2.8136,-2.8136,-2.8136,-2.8136,-2.8136,-2.8136,-2.8136,-2.8136,-2.8136,-2.8136,-2.8136,-2.8136,-2.8136,-2.8136,-2.8136,-2.8136,-2.8136,-2.8136,-2.8136,-2.8136,-2.8136,-2.8136,-2.8136,-2.8136,-2.8136,-2.8136,-2.8136,-2.8136,-2.8136,-2.8136,-2.8136,-2.8136,-2.8136,-2.8136,-2.815,-2.8751,-2.9045,-2.9058,-2.9593,-2.9873,-2.9913,-2.9913,-2.9913,-2.9913,-2.9913,-2.9913,-2.9913,-2.9913,-2.9913,-2.9913,-2.9913,-2.9913,-2.9913,-1.4299,-1.4299,-1.4299,-1.4299,-1.4299,-1.4299,-1.4299,-1.4299,-1.4299,-1.4299,-1.4299,-1.4299,-1.4299,-1.4299,-1.4299,-1.4299,-1.4299,-1.4299,-1.4299,-1.4299,-1.4299,-1.4299,-1.4299,-1.4299,-1.4299,-1.4299,-1.4299,-1.4299,-1.4299,-1.4299,-1.4299,-1.4299,-1.4299,-1.4299,-1.4299,-1.4299,-1.4299,-1.4299,-1.4299,-1.4299,-1.4646,-1.6034,-1.7929,-1.8453,-2.1221,-2.4691,-2.5032,-2.6418,-2.8136,-2.8136,-2.8136,-2.8136,-2.8136,-2.8136,-2.8136,-2.8136,-2.8136,-2.8136,-2.8136,-2.8136,-2.8136,-2.8136,-2.8136,-2.8136,-2.8136,-2.8136,-2.8136,-2.8136,-2.8136,-2.8136,-2.8136,-2.8136,-2.8136,-2.8136,-2.8136,-2.8136,-2.8136,-2.8136,-2.8136,-2.8136,-2.8136,-2.8136,-2.8136,-2.8136,-2.8136,-2.8136,-2.8136,-2.8136,-2.8136,-2.8136,-2.8136,-2.8136,-2.8136,-2.8136,-2.8136,-2.8136,-2.8136,-2.815,-2.8751,-2.9045,-2.9045,-2.9392,-2.9673,-2.9913,-2.9913,-2.9913,-2.9913,-2.9913,-2.9913,-2.9913,-2.9913,-2.9913,-2.9913,-2.9913,-2.9913,-2.9913,-1.4299,-1.4299,-1.4299,-1.4299,-1.4299,-1.4299,-1.4299,-1.4299,-1.4299,-1.4299,-1.4299,-1.4299,-1.4299,-1.4299,-1.4299,-1.4299,-1.4299,-1.4299,-1.4299,-1.4299,-1.4299,-1.4299,-1.4299,-1.4299,-1.4299,-1.4299,-1.4299,-1.4299,-1.4299,-1.4299,-1.4299,-1.4299,-1.4299,-1.4299,-1.4299,-1.4299,-1.4299,-1.4299,-1.4299,-1.4299,-1.4299,-1.4992,-1.6034,-1.7238,-1.9836,-2.3126,-2.5714,-2.7279,-2.8136,-2.8136,-2.8136,-2.8136,-2.8136,-2.8136,-2.8136,-2.8136,-2.8136,-2.8136,-2.8136,-2.8136,-2.8136,-2.8136,-2.8136,-2.8136,-2.8136,-2.8136,-2.8136,-2.8136,-2.8136,-2.8136,-2.8136,-2.8136,-2.8136,-2.8136,-2.8136,-2.8136,-2.8136,-2.8136,-2.8136,-2.8136,-2.8136,-2.8136,-2.8136,-2.8136,-2.8136,-2.8136,-2.8136,-2.8136,-2.8136,-2.8136,-2.8136,-2.8136,-2.8136,-2.8136,-2.8136,-2.8136,-2.8136,-2.815,-2.8751,-2.9045,-2.9058,-2.9513,-2.9793,-2.9913,-2.9913,-2.9913,-2.9913,-2.9913,-2.9913,-2.9913,-2.9913,-2.9913,-2.9913,-2.9913,-2.9913,-2.9913]}]]